<?xml version="1.0" encoding="UTF-8" standalone="no" ?>
<gpx xmlns="http://www.topografix.com/GPX/1/1" xmlns:xsi="http://www.w3.org/2001/XMLSchema-instance" xsi:schemaLocation="http://www.topografix.com/GPX/1/1 http://www.topografix.com/GPX/1/1/gpx.xsd" version="1.1" creator="VisuGPX - https://www.visugpx.com">
  <metadata>
    <name>vtt fin 2012</name>
    <desc><![CDATA[vtt 15 décembre 2012]]></desc>
  </metadata>
  <trk>
    <name><![CDATA[15-DEC-12 17:40:31]]></name>
    <trkseg>
      <trkpt lat="45.52315" lon="5.90833">
        <ele>738.91</ele>
        <time>2012-12-15T13:03:21Z</time>
      </trkpt>
      <trkpt lat="45.52315" lon="5.90833">
        <ele>740.35</ele>
        <time>2012-12-15T13:03:29Z</time>
      </trkpt>
      <trkpt lat="45.52317" lon="5.90834">
        <ele>739.87</ele>
        <time>2012-12-15T13:03:40Z</time>
      </trkpt>
      <trkpt lat="45.52318" lon="5.90834">
        <ele>740.83</ele>
        <time>2012-12-15T13:03:58Z</time>
      </trkpt>
      <trkpt lat="45.5232" lon="5.90841">
        <ele>738.43</ele>
        <time>2012-12-15T13:04:02Z</time>
      </trkpt>
      <trkpt lat="45.5233" lon="5.90869">
        <ele>735.07</ele>
        <time>2012-12-15T13:04:09Z</time>
      </trkpt>
      <trkpt lat="45.52334" lon="5.90884">
        <ele>732.66</ele>
        <time>2012-12-15T13:04:12Z</time>
      </trkpt>
      <trkpt lat="45.52349" lon="5.90927">
        <ele>729.3</ele>
        <time>2012-12-15T13:04:17Z</time>
      </trkpt>
      <trkpt lat="45.52353" lon="5.90932">
        <ele>728.82</ele>
        <time>2012-12-15T13:04:18Z</time>
      </trkpt>
      <trkpt lat="45.52366" lon="5.90953">
        <ele>725.45</ele>
        <time>2012-12-15T13:04:23Z</time>
      </trkpt>
      <trkpt lat="45.52374" lon="5.90967">
        <ele>722.09</ele>
        <time>2012-12-15T13:04:27Z</time>
      </trkpt>
      <trkpt lat="45.52377" lon="5.90978">
        <ele>720.65</ele>
        <time>2012-12-15T13:04:30Z</time>
      </trkpt>
      <trkpt lat="45.52371" lon="5.90999">
        <ele>716.8</ele>
        <time>2012-12-15T13:04:35Z</time>
      </trkpt>
      <trkpt lat="45.52354" lon="5.91017">
        <ele>713.92</ele>
        <time>2012-12-15T13:04:39Z</time>
      </trkpt>
      <trkpt lat="45.52327" lon="5.91042">
        <ele>710.55</ele>
        <time>2012-12-15T13:04:43Z</time>
      </trkpt>
      <trkpt lat="45.52316" lon="5.91057">
        <ele>709.11</ele>
        <time>2012-12-15T13:04:45Z</time>
      </trkpt>
      <trkpt lat="45.52296" lon="5.91084">
        <ele>705.75</ele>
        <time>2012-12-15T13:04:49Z</time>
      </trkpt>
      <trkpt lat="45.52292" lon="5.91093">
        <ele>705.26</ele>
        <time>2012-12-15T13:04:50Z</time>
      </trkpt>
      <trkpt lat="45.52289" lon="5.91101">
        <ele>704.78</ele>
        <time>2012-12-15T13:04:51Z</time>
      </trkpt>
      <trkpt lat="45.52286" lon="5.91109">
        <ele>704.3</ele>
        <time>2012-12-15T13:04:52Z</time>
      </trkpt>
      <trkpt lat="45.52284" lon="5.91117">
        <ele>703.34</ele>
        <time>2012-12-15T13:04:53Z</time>
      </trkpt>
      <trkpt lat="45.52284" lon="5.91125">
        <ele>702.86</ele>
        <time>2012-12-15T13:04:54Z</time>
      </trkpt>
      <trkpt lat="45.52283" lon="5.91133">
        <ele>701.9</ele>
        <time>2012-12-15T13:04:55Z</time>
      </trkpt>
      <trkpt lat="45.52282" lon="5.91168">
        <ele>699.02</ele>
        <time>2012-12-15T13:04:59Z</time>
      </trkpt>
      <trkpt lat="45.52283" lon="5.91177">
        <ele>698.53</ele>
        <time>2012-12-15T13:05:00Z</time>
      </trkpt>
      <trkpt lat="45.52284" lon="5.91185">
        <ele>697.57</ele>
        <time>2012-12-15T13:05:01Z</time>
      </trkpt>
      <trkpt lat="45.52292" lon="5.91218">
        <ele>693.73</ele>
        <time>2012-12-15T13:05:06Z</time>
      </trkpt>
      <trkpt lat="45.52295" lon="5.91225">
        <ele>692.77</ele>
        <time>2012-12-15T13:05:08Z</time>
      </trkpt>
      <trkpt lat="45.523" lon="5.9123">
        <ele>691.81</ele>
        <time>2012-12-15T13:05:10Z</time>
      </trkpt>
      <trkpt lat="45.52304" lon="5.9123">
        <ele>690.84</ele>
        <time>2012-12-15T13:05:11Z</time>
      </trkpt>
      <trkpt lat="45.52309" lon="5.91227">
        <ele>689.4</ele>
        <time>2012-12-15T13:05:12Z</time>
      </trkpt>
      <trkpt lat="45.52314" lon="5.91224">
        <ele>688.44</ele>
        <time>2012-12-15T13:05:13Z</time>
      </trkpt>
      <trkpt lat="45.52317" lon="5.91221">
        <ele>687.48</ele>
        <time>2012-12-15T13:05:14Z</time>
      </trkpt>
      <trkpt lat="45.52321" lon="5.91221">
        <ele>686.52</ele>
        <time>2012-12-15T13:05:15Z</time>
      </trkpt>
      <trkpt lat="45.52326" lon="5.91223">
        <ele>686.04</ele>
        <time>2012-12-15T13:05:16Z</time>
      </trkpt>
      <trkpt lat="45.5233" lon="5.91229">
        <ele>685.56</ele>
        <time>2012-12-15T13:05:17Z</time>
      </trkpt>
      <trkpt lat="45.52334" lon="5.91235">
        <ele>684.6</ele>
        <time>2012-12-15T13:05:18Z</time>
      </trkpt>
      <trkpt lat="45.52337" lon="5.9124">
        <ele>683.63</ele>
        <time>2012-12-15T13:05:19Z</time>
      </trkpt>
      <trkpt lat="45.52351" lon="5.91251">
        <ele>682.67</ele>
        <time>2012-12-15T13:05:24Z</time>
      </trkpt>
      <trkpt lat="45.52355" lon="5.91249">
        <ele>682.19</ele>
        <time>2012-12-15T13:05:25Z</time>
      </trkpt>
      <trkpt lat="45.52368" lon="5.91239">
        <ele>681.23</ele>
        <time>2012-12-15T13:05:28Z</time>
      </trkpt>
      <trkpt lat="45.52373" lon="5.91236">
        <ele>680.27</ele>
        <time>2012-12-15T13:05:29Z</time>
      </trkpt>
      <trkpt lat="45.52385" lon="5.91229">
        <ele>679.31</ele>
        <time>2012-12-15T13:05:31Z</time>
      </trkpt>
      <trkpt lat="45.52391" lon="5.91224">
        <ele>678.83</ele>
        <time>2012-12-15T13:05:32Z</time>
      </trkpt>
      <trkpt lat="45.52403" lon="5.91214">
        <ele>677.39</ele>
        <time>2012-12-15T13:05:34Z</time>
      </trkpt>
      <trkpt lat="45.52427" lon="5.91197">
        <ele>674.5</ele>
        <time>2012-12-15T13:05:38Z</time>
      </trkpt>
      <trkpt lat="45.52446" lon="5.91186">
        <ele>672.1</ele>
        <time>2012-12-15T13:05:41Z</time>
      </trkpt>
      <trkpt lat="45.52462" lon="5.91179">
        <ele>670.66</ele>
        <time>2012-12-15T13:05:44Z</time>
      </trkpt>
      <trkpt lat="45.52465" lon="5.91178">
        <ele>670.66</ele>
        <time>2012-12-15T13:05:45Z</time>
      </trkpt>
      <trkpt lat="45.5248" lon="5.91176">
        <ele>666.81</ele>
        <time>2012-12-15T13:05:51Z</time>
      </trkpt>
      <trkpt lat="45.52483" lon="5.91176">
        <ele>666.81</ele>
        <time>2012-12-15T13:05:52Z</time>
      </trkpt>
      <trkpt lat="45.52489" lon="5.91174">
        <ele>665.37</ele>
        <time>2012-12-15T13:05:54Z</time>
      </trkpt>
      <trkpt lat="45.52509" lon="5.91165">
        <ele>662.49</ele>
        <time>2012-12-15T13:06:00Z</time>
      </trkpt>
      <trkpt lat="45.52519" lon="5.91161">
        <ele>661.04</ele>
        <time>2012-12-15T13:06:03Z</time>
      </trkpt>
      <trkpt lat="45.52535" lon="5.91153">
        <ele>659.12</ele>
        <time>2012-12-15T13:06:13Z</time>
      </trkpt>
      <trkpt lat="45.52542" lon="5.9115">
        <ele>658.64</ele>
        <time>2012-12-15T13:06:24Z</time>
      </trkpt>
      <trkpt lat="45.52543" lon="5.91148">
        <ele>658.16</ele>
        <time>2012-12-15T13:06:44Z</time>
      </trkpt>
      <trkpt lat="45.52544" lon="5.91148">
        <ele>657.68</ele>
        <time>2012-12-15T13:07:09Z</time>
      </trkpt>
      <trkpt lat="45.52548" lon="5.91149">
        <ele>657.2</ele>
        <time>2012-12-15T13:07:20Z</time>
      </trkpt>
      <trkpt lat="45.52549" lon="5.91149">
        <ele>656.72</ele>
        <time>2012-12-15T13:07:21Z</time>
      </trkpt>
      <trkpt lat="45.52551" lon="5.9115">
        <ele>656.24</ele>
        <time>2012-12-15T13:07:22Z</time>
      </trkpt>
      <trkpt lat="45.52553" lon="5.9115">
        <ele>656.72</ele>
        <time>2012-12-15T13:07:23Z</time>
      </trkpt>
      <trkpt lat="45.52556" lon="5.9115">
        <ele>656.24</ele>
        <time>2012-12-15T13:07:24Z</time>
      </trkpt>
      <trkpt lat="45.52592" lon="5.91152">
        <ele>653.35</ele>
        <time>2012-12-15T13:07:33Z</time>
      </trkpt>
      <trkpt lat="45.52597" lon="5.91152">
        <ele>653.35</ele>
        <time>2012-12-15T13:07:34Z</time>
      </trkpt>
      <trkpt lat="45.52602" lon="5.91151">
        <ele>652.87</ele>
        <time>2012-12-15T13:07:35Z</time>
      </trkpt>
      <trkpt lat="45.52639" lon="5.91135">
        <ele>650.95</ele>
        <time>2012-12-15T13:07:45Z</time>
      </trkpt>
      <trkpt lat="45.52656" lon="5.91127">
        <ele>649.03</ele>
        <time>2012-12-15T13:07:50Z</time>
      </trkpt>
      <trkpt lat="45.5268" lon="5.91123">
        <ele>646.62</ele>
        <time>2012-12-15T13:07:56Z</time>
      </trkpt>
      <trkpt lat="45.52717" lon="5.91114">
        <ele>643.26</ele>
        <time>2012-12-15T13:08:06Z</time>
      </trkpt>
      <trkpt lat="45.52742" lon="5.91118">
        <ele>639.89</ele>
        <time>2012-12-15T13:08:14Z</time>
      </trkpt>
      <trkpt lat="45.52745" lon="5.91119">
        <ele>639.89</ele>
        <time>2012-12-15T13:08:15Z</time>
      </trkpt>
      <trkpt lat="45.52755" lon="5.91134">
        <ele>636.53</ele>
        <time>2012-12-15T13:08:19Z</time>
      </trkpt>
      <trkpt lat="45.5276" lon="5.91139">
        <ele>636.53</ele>
        <time>2012-12-15T13:08:20Z</time>
      </trkpt>
      <trkpt lat="45.52771" lon="5.91149">
        <ele>634.61</ele>
        <time>2012-12-15T13:08:22Z</time>
      </trkpt>
      <trkpt lat="45.52776" lon="5.91151">
        <ele>633.17</ele>
        <time>2012-12-15T13:08:23Z</time>
      </trkpt>
      <trkpt lat="45.52791" lon="5.91155">
        <ele>630.28</ele>
        <time>2012-12-15T13:08:25Z</time>
      </trkpt>
      <trkpt lat="45.52814" lon="5.91162">
        <ele>626.44</ele>
        <time>2012-12-15T13:08:28Z</time>
      </trkpt>
      <trkpt lat="45.52835" lon="5.91171">
        <ele>623.07</ele>
        <time>2012-12-15T13:08:31Z</time>
      </trkpt>
      <trkpt lat="45.52858" lon="5.9118">
        <ele>619.23</ele>
        <time>2012-12-15T13:08:34Z</time>
      </trkpt>
      <trkpt lat="45.52884" lon="5.91189">
        <ele>615.86</ele>
        <time>2012-12-15T13:08:37Z</time>
      </trkpt>
      <trkpt lat="45.52902" lon="5.91194">
        <ele>612.02</ele>
        <time>2012-12-15T13:08:39Z</time>
      </trkpt>
      <trkpt lat="45.52937" lon="5.91203">
        <ele>608.65</ele>
        <time>2012-12-15T13:08:43Z</time>
      </trkpt>
      <trkpt lat="45.5297" lon="5.9121">
        <ele>605.29</ele>
        <time>2012-12-15T13:08:47Z</time>
      </trkpt>
      <trkpt lat="45.53009" lon="5.91219">
        <ele>601.44</ele>
        <time>2012-12-15T13:08:53Z</time>
      </trkpt>
      <trkpt lat="45.53035" lon="5.91234">
        <ele>597.6</ele>
        <time>2012-12-15T13:08:57Z</time>
      </trkpt>
      <trkpt lat="45.53056" lon="5.91256">
        <ele>594.23</ele>
        <time>2012-12-15T13:09:03Z</time>
      </trkpt>
      <trkpt lat="45.53059" lon="5.91259">
        <ele>594.23</ele>
        <time>2012-12-15T13:09:04Z</time>
      </trkpt>
      <trkpt lat="45.53064" lon="5.91262">
        <ele>593.75</ele>
        <time>2012-12-15T13:09:05Z</time>
      </trkpt>
      <trkpt lat="45.53087" lon="5.91273">
        <ele>592.31</ele>
        <time>2012-12-15T13:09:09Z</time>
      </trkpt>
      <trkpt lat="45.53093" lon="5.91279">
        <ele>591.35</ele>
        <time>2012-12-15T13:09:10Z</time>
      </trkpt>
      <trkpt lat="45.53098" lon="5.91285">
        <ele>591.35</ele>
        <time>2012-12-15T13:09:11Z</time>
      </trkpt>
      <trkpt lat="45.53116" lon="5.91317">
        <ele>590.87</ele>
        <time>2012-12-15T13:09:15Z</time>
      </trkpt>
      <trkpt lat="45.53119" lon="5.91327">
        <ele>590.87</ele>
        <time>2012-12-15T13:09:16Z</time>
      </trkpt>
      <trkpt lat="45.53122" lon="5.91336">
        <ele>590.87</ele>
        <time>2012-12-15T13:09:17Z</time>
      </trkpt>
      <trkpt lat="45.53125" lon="5.91345">
        <ele>590.87</ele>
        <time>2012-12-15T13:09:18Z</time>
      </trkpt>
      <trkpt lat="45.53129" lon="5.91354">
        <ele>590.39</ele>
        <time>2012-12-15T13:09:19Z</time>
      </trkpt>
      <trkpt lat="45.53133" lon="5.91362">
        <ele>589.91</ele>
        <time>2012-12-15T13:09:20Z</time>
      </trkpt>
      <trkpt lat="45.53138" lon="5.9137">
        <ele>589.91</ele>
        <time>2012-12-15T13:09:21Z</time>
      </trkpt>
      <trkpt lat="45.53143" lon="5.91376">
        <ele>589.43</ele>
        <time>2012-12-15T13:09:22Z</time>
      </trkpt>
      <trkpt lat="45.53148" lon="5.91383">
        <ele>589.43</ele>
        <time>2012-12-15T13:09:23Z</time>
      </trkpt>
      <trkpt lat="45.53172" lon="5.91404">
        <ele>588.95</ele>
        <time>2012-12-15T13:09:27Z</time>
      </trkpt>
      <trkpt lat="45.53178" lon="5.91409">
        <ele>588.95</ele>
        <time>2012-12-15T13:09:28Z</time>
      </trkpt>
      <trkpt lat="45.53242" lon="5.91439">
        <ele>587.02</ele>
        <time>2012-12-15T13:09:37Z</time>
      </trkpt>
      <trkpt lat="45.53249" lon="5.91445">
        <ele>586.54</ele>
        <time>2012-12-15T13:09:38Z</time>
      </trkpt>
      <trkpt lat="45.53254" lon="5.91453">
        <ele>586.06</ele>
        <time>2012-12-15T13:09:39Z</time>
      </trkpt>
      <trkpt lat="45.53259" lon="5.91463">
        <ele>586.06</ele>
        <time>2012-12-15T13:09:40Z</time>
      </trkpt>
      <trkpt lat="45.53263" lon="5.91472">
        <ele>586.06</ele>
        <time>2012-12-15T13:09:41Z</time>
      </trkpt>
      <trkpt lat="45.53277" lon="5.91499">
        <ele>585.1</ele>
        <time>2012-12-15T13:09:44Z</time>
      </trkpt>
      <trkpt lat="45.53283" lon="5.91505">
        <ele>585.1</ele>
        <time>2012-12-15T13:09:45Z</time>
      </trkpt>
      <trkpt lat="45.53291" lon="5.9151">
        <ele>585.1</ele>
        <time>2012-12-15T13:09:46Z</time>
      </trkpt>
      <trkpt lat="45.53298" lon="5.91513">
        <ele>584.62</ele>
        <time>2012-12-15T13:09:47Z</time>
      </trkpt>
      <trkpt lat="45.53307" lon="5.91516">
        <ele>584.14</ele>
        <time>2012-12-15T13:09:48Z</time>
      </trkpt>
      <trkpt lat="45.53345" lon="5.91529">
        <ele>580.77</ele>
        <time>2012-12-15T13:09:52Z</time>
      </trkpt>
      <trkpt lat="45.53376" lon="5.9154">
        <ele>576.93</ele>
        <time>2012-12-15T13:09:55Z</time>
      </trkpt>
      <trkpt lat="45.53407" lon="5.91553">
        <ele>573.56</ele>
        <time>2012-12-15T13:09:58Z</time>
      </trkpt>
      <trkpt lat="45.53439" lon="5.91568">
        <ele>569.24</ele>
        <time>2012-12-15T13:10:01Z</time>
      </trkpt>
      <trkpt lat="45.53469" lon="5.91582">
        <ele>565.39</ele>
        <time>2012-12-15T13:10:04Z</time>
      </trkpt>
      <trkpt lat="45.53479" lon="5.91584">
        <ele>563.95</ele>
        <time>2012-12-15T13:10:05Z</time>
      </trkpt>
      <trkpt lat="45.53513" lon="5.91588">
        <ele>560.11</ele>
        <time>2012-12-15T13:10:08Z</time>
      </trkpt>
      <trkpt lat="45.53536" lon="5.91589">
        <ele>556.74</ele>
        <time>2012-12-15T13:10:10Z</time>
      </trkpt>
      <trkpt lat="45.53571" lon="5.91587">
        <ele>553.38</ele>
        <time>2012-12-15T13:10:13Z</time>
      </trkpt>
      <trkpt lat="45.53606" lon="5.91592">
        <ele>550.01</ele>
        <time>2012-12-15T13:10:16Z</time>
      </trkpt>
      <trkpt lat="45.53642" lon="5.916">
        <ele>545.69</ele>
        <time>2012-12-15T13:10:19Z</time>
      </trkpt>
      <trkpt lat="45.53678" lon="5.91608">
        <ele>542.8</ele>
        <time>2012-12-15T13:10:22Z</time>
      </trkpt>
      <trkpt lat="45.53716" lon="5.91617">
        <ele>539.44</ele>
        <time>2012-12-15T13:10:25Z</time>
      </trkpt>
      <trkpt lat="45.53724" lon="5.91618">
        <ele>538.48</ele>
        <time>2012-12-15T13:10:26Z</time>
      </trkpt>
      <trkpt lat="45.53782" lon="5.91627">
        <ele>534.15</ele>
        <time>2012-12-15T13:10:30Z</time>
      </trkpt>
      <trkpt lat="45.53822" lon="5.91632">
        <ele>530.79</ele>
        <time>2012-12-15T13:10:33Z</time>
      </trkpt>
      <trkpt lat="45.53862" lon="5.91637">
        <ele>526.94</ele>
        <time>2012-12-15T13:10:36Z</time>
      </trkpt>
      <trkpt lat="45.53901" lon="5.91645">
        <ele>523.58</ele>
        <time>2012-12-15T13:10:39Z</time>
      </trkpt>
      <trkpt lat="45.53938" lon="5.91664">
        <ele>519.73</ele>
        <time>2012-12-15T13:10:42Z</time>
      </trkpt>
      <trkpt lat="45.53949" lon="5.91674">
        <ele>518.77</ele>
        <time>2012-12-15T13:10:43Z</time>
      </trkpt>
      <trkpt lat="45.5396" lon="5.91685">
        <ele>518.29</ele>
        <time>2012-12-15T13:10:44Z</time>
      </trkpt>
      <trkpt lat="45.53987" lon="5.91713">
        <ele>515.88</ele>
        <time>2012-12-15T13:10:47Z</time>
      </trkpt>
      <trkpt lat="45.54007" lon="5.91731">
        <ele>514.92</ele>
        <time>2012-12-15T13:10:50Z</time>
      </trkpt>
      <trkpt lat="45.54015" lon="5.91734">
        <ele>513.96</ele>
        <time>2012-12-15T13:10:51Z</time>
      </trkpt>
      <trkpt lat="45.54023" lon="5.91735">
        <ele>513.96</ele>
        <time>2012-12-15T13:10:52Z</time>
      </trkpt>
      <trkpt lat="45.54031" lon="5.91735">
        <ele>513.48</ele>
        <time>2012-12-15T13:10:53Z</time>
      </trkpt>
      <trkpt lat="45.54039" lon="5.91735">
        <ele>512.52</ele>
        <time>2012-12-15T13:10:54Z</time>
      </trkpt>
      <trkpt lat="45.54096" lon="5.91728">
        <ele>508.67</ele>
        <time>2012-12-15T13:11:00Z</time>
      </trkpt>
      <trkpt lat="45.54147" lon="5.91723">
        <ele>505.31</ele>
        <time>2012-12-15T13:11:05Z</time>
      </trkpt>
      <trkpt lat="45.54208" lon="5.91709">
        <ele>501.95</ele>
        <time>2012-12-15T13:11:11Z</time>
      </trkpt>
      <trkpt lat="45.54228" lon="5.917">
        <ele>500.5</ele>
        <time>2012-12-15T13:11:13Z</time>
      </trkpt>
      <trkpt lat="45.54286" lon="5.91673">
        <ele>496.18</ele>
        <time>2012-12-15T13:11:19Z</time>
      </trkpt>
      <trkpt lat="45.54305" lon="5.91664">
        <ele>495.22</ele>
        <time>2012-12-15T13:11:21Z</time>
      </trkpt>
      <trkpt lat="45.54325" lon="5.91656">
        <ele>493.77</ele>
        <time>2012-12-15T13:11:23Z</time>
      </trkpt>
      <trkpt lat="45.54374" lon="5.91633">
        <ele>490.41</ele>
        <time>2012-12-15T13:11:28Z</time>
      </trkpt>
      <trkpt lat="45.54405" lon="5.91623">
        <ele>488.49</ele>
        <time>2012-12-15T13:11:31Z</time>
      </trkpt>
      <trkpt lat="45.54416" lon="5.91622">
        <ele>487.53</ele>
        <time>2012-12-15T13:11:32Z</time>
      </trkpt>
      <trkpt lat="45.54458" lon="5.91624">
        <ele>483.68</ele>
        <time>2012-12-15T13:11:36Z</time>
      </trkpt>
      <trkpt lat="45.54468" lon="5.91625">
        <ele>483.2</ele>
        <time>2012-12-15T13:11:37Z</time>
      </trkpt>
      <trkpt lat="45.54477" lon="5.91629">
        <ele>482.24</ele>
        <time>2012-12-15T13:11:38Z</time>
      </trkpt>
      <trkpt lat="45.54487" lon="5.91634">
        <ele>481.76</ele>
        <time>2012-12-15T13:11:39Z</time>
      </trkpt>
      <trkpt lat="45.54495" lon="5.91641">
        <ele>481.28</ele>
        <time>2012-12-15T13:11:40Z</time>
      </trkpt>
      <trkpt lat="45.54503" lon="5.91649">
        <ele>480.32</ele>
        <time>2012-12-15T13:11:41Z</time>
      </trkpt>
      <trkpt lat="45.5451" lon="5.9166">
        <ele>479.35</ele>
        <time>2012-12-15T13:11:42Z</time>
      </trkpt>
      <trkpt lat="45.54516" lon="5.91672">
        <ele>478.87</ele>
        <time>2012-12-15T13:11:43Z</time>
      </trkpt>
      <trkpt lat="45.54531" lon="5.91711">
        <ele>475.51</ele>
        <time>2012-12-15T13:11:46Z</time>
      </trkpt>
      <trkpt lat="45.54536" lon="5.91725">
        <ele>475.03</ele>
        <time>2012-12-15T13:11:47Z</time>
      </trkpt>
      <trkpt lat="45.54543" lon="5.91753">
        <ele>473.11</ele>
        <time>2012-12-15T13:11:49Z</time>
      </trkpt>
      <trkpt lat="45.54546" lon="5.91767">
        <ele>472.63</ele>
        <time>2012-12-15T13:11:50Z</time>
      </trkpt>
      <trkpt lat="45.54547" lon="5.91783">
        <ele>471.66</ele>
        <time>2012-12-15T13:11:51Z</time>
      </trkpt>
      <trkpt lat="45.54548" lon="5.918">
        <ele>470.7</ele>
        <time>2012-12-15T13:11:52Z</time>
      </trkpt>
      <trkpt lat="45.54547" lon="5.91816">
        <ele>470.22</ele>
        <time>2012-12-15T13:11:53Z</time>
      </trkpt>
      <trkpt lat="45.54545" lon="5.91832">
        <ele>468.78</ele>
        <time>2012-12-15T13:11:54Z</time>
      </trkpt>
      <trkpt lat="45.54543" lon="5.91848">
        <ele>467.82</ele>
        <time>2012-12-15T13:11:55Z</time>
      </trkpt>
      <trkpt lat="45.54538" lon="5.91864">
        <ele>467.34</ele>
        <time>2012-12-15T13:11:56Z</time>
      </trkpt>
      <trkpt lat="45.54533" lon="5.91879">
        <ele>466.38</ele>
        <time>2012-12-15T13:11:57Z</time>
      </trkpt>
      <trkpt lat="45.54527" lon="5.91893">
        <ele>464.93</ele>
        <time>2012-12-15T13:11:58Z</time>
      </trkpt>
      <trkpt lat="45.5452" lon="5.91907">
        <ele>463.97</ele>
        <time>2012-12-15T13:11:59Z</time>
      </trkpt>
      <trkpt lat="45.54513" lon="5.9192">
        <ele>463.01</ele>
        <time>2012-12-15T13:12:00Z</time>
      </trkpt>
      <trkpt lat="45.54504" lon="5.91932">
        <ele>461.57</ele>
        <time>2012-12-15T13:12:01Z</time>
      </trkpt>
      <trkpt lat="45.54495" lon="5.91943">
        <ele>460.61</ele>
        <time>2012-12-15T13:12:02Z</time>
      </trkpt>
      <trkpt lat="45.54485" lon="5.91952">
        <ele>460.13</ele>
        <time>2012-12-15T13:12:03Z</time>
      </trkpt>
      <trkpt lat="45.54475" lon="5.91961">
        <ele>459.17</ele>
        <time>2012-12-15T13:12:04Z</time>
      </trkpt>
      <trkpt lat="45.54449" lon="5.91991">
        <ele>457.24</ele>
        <time>2012-12-15T13:12:07Z</time>
      </trkpt>
      <trkpt lat="45.54442" lon="5.92003">
        <ele>456.28</ele>
        <time>2012-12-15T13:12:08Z</time>
      </trkpt>
      <trkpt lat="45.54428" lon="5.92031">
        <ele>453.88</ele>
        <time>2012-12-15T13:12:11Z</time>
      </trkpt>
      <trkpt lat="45.54426" lon="5.92039">
        <ele>453.4</ele>
        <time>2012-12-15T13:12:12Z</time>
      </trkpt>
      <trkpt lat="45.54427" lon="5.92048">
        <ele>453.4</ele>
        <time>2012-12-15T13:12:13Z</time>
      </trkpt>
      <trkpt lat="45.54429" lon="5.92056">
        <ele>452.92</ele>
        <time>2012-12-15T13:12:14Z</time>
      </trkpt>
      <trkpt lat="45.54433" lon="5.92064">
        <ele>452.44</ele>
        <time>2012-12-15T13:12:15Z</time>
      </trkpt>
      <trkpt lat="45.54438" lon="5.92072">
        <ele>452.44</ele>
        <time>2012-12-15T13:12:16Z</time>
      </trkpt>
      <trkpt lat="45.54444" lon="5.92077">
        <ele>452.44</ele>
        <time>2012-12-15T13:12:17Z</time>
      </trkpt>
      <trkpt lat="45.54451" lon="5.9208">
        <ele>451.48</ele>
        <time>2012-12-15T13:12:18Z</time>
      </trkpt>
      <trkpt lat="45.54458" lon="5.92082">
        <ele>451.48</ele>
        <time>2012-12-15T13:12:19Z</time>
      </trkpt>
      <trkpt lat="45.545" lon="5.92091">
        <ele>451.48</ele>
        <time>2012-12-15T13:12:25Z</time>
      </trkpt>
      <trkpt lat="45.54506" lon="5.9209">
        <ele>452.44</ele>
        <time>2012-12-15T13:12:26Z</time>
      </trkpt>
      <trkpt lat="45.54575" lon="5.92071">
        <ele>453.88</ele>
        <time>2012-12-15T13:12:40Z</time>
      </trkpt>
      <trkpt lat="45.54606" lon="5.92068">
        <ele>454.36</ele>
        <time>2012-12-15T13:12:47Z</time>
      </trkpt>
      <trkpt lat="45.54619" lon="5.92069">
        <ele>454.84</ele>
        <time>2012-12-15T13:12:50Z</time>
      </trkpt>
      <trkpt lat="45.54688" lon="5.92084">
        <ele>454.84</ele>
        <time>2012-12-15T13:13:05Z</time>
      </trkpt>
      <trkpt lat="45.54769" lon="5.92109">
        <ele>451.48</ele>
        <time>2012-12-15T13:13:19Z</time>
      </trkpt>
      <trkpt lat="45.54815" lon="5.92131">
        <ele>447.63</ele>
        <time>2012-12-15T13:13:25Z</time>
      </trkpt>
      <trkpt lat="45.54848" lon="5.92133">
        <ele>444.27</ele>
        <time>2012-12-15T13:13:29Z</time>
      </trkpt>
      <trkpt lat="45.54856" lon="5.92133">
        <ele>444.27</ele>
        <time>2012-12-15T13:13:30Z</time>
      </trkpt>
      <trkpt lat="45.54871" lon="5.92134">
        <ele>442.82</ele>
        <time>2012-12-15T13:13:32Z</time>
      </trkpt>
      <trkpt lat="45.54905" lon="5.92142">
        <ele>439.94</ele>
        <time>2012-12-15T13:13:37Z</time>
      </trkpt>
      <trkpt lat="45.54911" lon="5.92144">
        <ele>439.46</ele>
        <time>2012-12-15T13:13:38Z</time>
      </trkpt>
      <trkpt lat="45.54922" lon="5.9215">
        <ele>438.02</ele>
        <time>2012-12-15T13:13:40Z</time>
      </trkpt>
      <trkpt lat="45.54928" lon="5.9215">
        <ele>438.02</ele>
        <time>2012-12-15T13:13:41Z</time>
      </trkpt>
      <trkpt lat="45.54934" lon="5.92148">
        <ele>437.06</ele>
        <time>2012-12-15T13:13:42Z</time>
      </trkpt>
      <trkpt lat="45.5494" lon="5.92146">
        <ele>436.58</ele>
        <time>2012-12-15T13:13:43Z</time>
      </trkpt>
      <trkpt lat="45.54947" lon="5.92145">
        <ele>436.1</ele>
        <time>2012-12-15T13:13:44Z</time>
      </trkpt>
      <trkpt lat="45.54952" lon="5.92145">
        <ele>435.61</ele>
        <time>2012-12-15T13:13:45Z</time>
      </trkpt>
      <trkpt lat="45.54958" lon="5.92145">
        <ele>434.65</ele>
        <time>2012-12-15T13:13:46Z</time>
      </trkpt>
      <trkpt lat="45.54965" lon="5.92145">
        <ele>434.17</ele>
        <time>2012-12-15T13:13:47Z</time>
      </trkpt>
      <trkpt lat="45.55008" lon="5.92139">
        <ele>430.81</ele>
        <time>2012-12-15T13:13:53Z</time>
      </trkpt>
      <trkpt lat="45.55016" lon="5.92137">
        <ele>430.33</ele>
        <time>2012-12-15T13:13:54Z</time>
      </trkpt>
      <trkpt lat="45.55063" lon="5.92134">
        <ele>427.44</ele>
        <time>2012-12-15T13:14:01Z</time>
      </trkpt>
      <trkpt lat="45.55077" lon="5.92134">
        <ele>426.48</ele>
        <time>2012-12-15T13:14:03Z</time>
      </trkpt>
      <trkpt lat="45.55127" lon="5.92139">
        <ele>423.12</ele>
        <time>2012-12-15T13:14:10Z</time>
      </trkpt>
      <trkpt lat="45.55175" lon="5.92145">
        <ele>420.23</ele>
        <time>2012-12-15T13:14:16Z</time>
      </trkpt>
      <trkpt lat="45.55198" lon="5.92147">
        <ele>418.79</ele>
        <time>2012-12-15T13:14:19Z</time>
      </trkpt>
      <trkpt lat="45.55259" lon="5.92153">
        <ele>415.43</ele>
        <time>2012-12-15T13:14:26Z</time>
      </trkpt>
      <trkpt lat="45.55316" lon="5.92157">
        <ele>412.54</ele>
        <time>2012-12-15T13:14:33Z</time>
      </trkpt>
      <trkpt lat="45.55322" lon="5.9216">
        <ele>412.54</ele>
        <time>2012-12-15T13:14:34Z</time>
      </trkpt>
      <trkpt lat="45.55329" lon="5.92163">
        <ele>412.06</ele>
        <time>2012-12-15T13:14:35Z</time>
      </trkpt>
      <trkpt lat="45.55336" lon="5.92165">
        <ele>411.58</ele>
        <time>2012-12-15T13:14:36Z</time>
      </trkpt>
      <trkpt lat="45.55343" lon="5.92166">
        <ele>410.62</ele>
        <time>2012-12-15T13:14:37Z</time>
      </trkpt>
      <trkpt lat="45.5535" lon="5.92168">
        <ele>410.62</ele>
        <time>2012-12-15T13:14:38Z</time>
      </trkpt>
      <trkpt lat="45.55357" lon="5.9217">
        <ele>410.14</ele>
        <time>2012-12-15T13:14:39Z</time>
      </trkpt>
      <trkpt lat="45.55365" lon="5.92173">
        <ele>410.14</ele>
        <time>2012-12-15T13:14:40Z</time>
      </trkpt>
      <trkpt lat="45.55373" lon="5.92175">
        <ele>409.18</ele>
        <time>2012-12-15T13:14:41Z</time>
      </trkpt>
      <trkpt lat="45.55381" lon="5.92176">
        <ele>408.7</ele>
        <time>2012-12-15T13:14:42Z</time>
      </trkpt>
      <trkpt lat="45.5539" lon="5.92176">
        <ele>407.74</ele>
        <time>2012-12-15T13:14:43Z</time>
      </trkpt>
      <trkpt lat="45.55453" lon="5.92174">
        <ele>403.89</ele>
        <time>2012-12-15T13:14:50Z</time>
      </trkpt>
      <trkpt lat="45.55463" lon="5.92174">
        <ele>403.89</ele>
        <time>2012-12-15T13:14:51Z</time>
      </trkpt>
      <trkpt lat="45.55507" lon="5.9218">
        <ele>400.53</ele>
        <time>2012-12-15T13:14:56Z</time>
      </trkpt>
      <trkpt lat="45.55555" lon="5.92185">
        <ele>397.64</ele>
        <time>2012-12-15T13:15:02Z</time>
      </trkpt>
      <trkpt lat="45.55601" lon="5.92192">
        <ele>394.28</ele>
        <time>2012-12-15T13:15:07Z</time>
      </trkpt>
      <trkpt lat="45.55611" lon="5.92193">
        <ele>393.8</ele>
        <time>2012-12-15T13:15:08Z</time>
      </trkpt>
      <trkpt lat="45.5566" lon="5.92199">
        <ele>389.95</ele>
        <time>2012-12-15T13:15:13Z</time>
      </trkpt>
      <trkpt lat="45.55681" lon="5.92201">
        <ele>389.47</ele>
        <time>2012-12-15T13:15:15Z</time>
      </trkpt>
      <trkpt lat="45.55723" lon="5.92205">
        <ele>386.11</ele>
        <time>2012-12-15T13:15:19Z</time>
      </trkpt>
      <trkpt lat="45.55779" lon="5.92212">
        <ele>382.74</ele>
        <time>2012-12-15T13:15:24Z</time>
      </trkpt>
      <trkpt lat="45.55813" lon="5.92217">
        <ele>379.38</ele>
        <time>2012-12-15T13:15:27Z</time>
      </trkpt>
      <trkpt lat="45.55867" lon="5.92222">
        <ele>375.05</ele>
        <time>2012-12-15T13:15:32Z</time>
      </trkpt>
      <trkpt lat="45.55896" lon="5.92228">
        <ele>372.65</ele>
        <time>2012-12-15T13:15:36Z</time>
      </trkpt>
      <trkpt lat="45.55903" lon="5.92231">
        <ele>372.17</ele>
        <time>2012-12-15T13:15:37Z</time>
      </trkpt>
      <trkpt lat="45.5591" lon="5.92236">
        <ele>371.21</ele>
        <time>2012-12-15T13:15:38Z</time>
      </trkpt>
      <trkpt lat="45.55916" lon="5.92243">
        <ele>370.73</ele>
        <time>2012-12-15T13:15:39Z</time>
      </trkpt>
      <trkpt lat="45.55949" lon="5.92286">
        <ele>366.88</ele>
        <time>2012-12-15T13:15:44Z</time>
      </trkpt>
      <trkpt lat="45.55961" lon="5.92309">
        <ele>364.96</ele>
        <time>2012-12-15T13:15:46Z</time>
      </trkpt>
      <trkpt lat="45.55966" lon="5.92321">
        <ele>364.48</ele>
        <time>2012-12-15T13:15:47Z</time>
      </trkpt>
      <trkpt lat="45.5597" lon="5.92335">
        <ele>363.52</ele>
        <time>2012-12-15T13:15:48Z</time>
      </trkpt>
      <trkpt lat="45.55974" lon="5.9235">
        <ele>362.55</ele>
        <time>2012-12-15T13:15:49Z</time>
      </trkpt>
      <trkpt lat="45.55977" lon="5.92365">
        <ele>361.59</ele>
        <time>2012-12-15T13:15:50Z</time>
      </trkpt>
      <trkpt lat="45.55984" lon="5.92396">
        <ele>360.15</ele>
        <time>2012-12-15T13:15:52Z</time>
      </trkpt>
      <trkpt lat="45.55999" lon="5.92439">
        <ele>356.79</ele>
        <time>2012-12-15T13:15:55Z</time>
      </trkpt>
      <trkpt lat="45.56024" lon="5.92496">
        <ele>352.94</ele>
        <time>2012-12-15T13:15:59Z</time>
      </trkpt>
      <trkpt lat="45.56047" lon="5.92557">
        <ele>349.58</ele>
        <time>2012-12-15T13:16:03Z</time>
      </trkpt>
      <trkpt lat="45.56064" lon="5.92598">
        <ele>347.17</ele>
        <time>2012-12-15T13:16:06Z</time>
      </trkpt>
      <trkpt lat="45.56071" lon="5.92608">
        <ele>346.21</ele>
        <time>2012-12-15T13:16:07Z</time>
      </trkpt>
      <trkpt lat="45.56079" lon="5.92618">
        <ele>345.25</ele>
        <time>2012-12-15T13:16:08Z</time>
      </trkpt>
      <trkpt lat="45.56105" lon="5.92647">
        <ele>342.37</ele>
        <time>2012-12-15T13:16:11Z</time>
      </trkpt>
      <trkpt lat="45.56129" lon="5.92682">
        <ele>339</ele>
        <time>2012-12-15T13:16:14Z</time>
      </trkpt>
      <trkpt lat="45.5616" lon="5.92731">
        <ele>335.16</ele>
        <time>2012-12-15T13:16:18Z</time>
      </trkpt>
      <trkpt lat="45.56173" lon="5.92754">
        <ele>333.71</ele>
        <time>2012-12-15T13:16:20Z</time>
      </trkpt>
      <trkpt lat="45.56178" lon="5.92767">
        <ele>331.79</ele>
        <time>2012-12-15T13:16:21Z</time>
      </trkpt>
      <trkpt lat="45.56181" lon="5.92781">
        <ele>331.31</ele>
        <time>2012-12-15T13:16:22Z</time>
      </trkpt>
      <trkpt lat="45.56183" lon="5.92795">
        <ele>330.35</ele>
        <time>2012-12-15T13:16:23Z</time>
      </trkpt>
      <trkpt lat="45.56183" lon="5.92811">
        <ele>328.91</ele>
        <time>2012-12-15T13:16:24Z</time>
      </trkpt>
      <trkpt lat="45.56184" lon="5.92873">
        <ele>326.02</ele>
        <time>2012-12-15T13:16:28Z</time>
      </trkpt>
      <trkpt lat="45.56184" lon="5.92899">
        <ele>324.58</ele>
        <time>2012-12-15T13:16:30Z</time>
      </trkpt>
      <trkpt lat="45.56181" lon="5.9291">
        <ele>324.1</ele>
        <time>2012-12-15T13:16:31Z</time>
      </trkpt>
      <trkpt lat="45.56178" lon="5.9292">
        <ele>322.66</ele>
        <time>2012-12-15T13:16:32Z</time>
      </trkpt>
      <trkpt lat="45.56171" lon="5.92929">
        <ele>322.18</ele>
        <time>2012-12-15T13:16:33Z</time>
      </trkpt>
      <trkpt lat="45.56164" lon="5.92938">
        <ele>321.22</ele>
        <time>2012-12-15T13:16:34Z</time>
      </trkpt>
      <trkpt lat="45.56136" lon="5.92975">
        <ele>317.85</ele>
        <time>2012-12-15T13:16:38Z</time>
      </trkpt>
      <trkpt lat="45.56129" lon="5.92987">
        <ele>317.37</ele>
        <time>2012-12-15T13:16:39Z</time>
      </trkpt>
      <trkpt lat="45.56106" lon="5.93033">
        <ele>313.53</ele>
        <time>2012-12-15T13:16:43Z</time>
      </trkpt>
      <trkpt lat="45.56099" lon="5.93042">
        <ele>312.57</ele>
        <time>2012-12-15T13:16:44Z</time>
      </trkpt>
      <trkpt lat="45.56091" lon="5.93049">
        <ele>312.57</ele>
        <time>2012-12-15T13:16:45Z</time>
      </trkpt>
      <trkpt lat="45.56084" lon="5.93054">
        <ele>311.6</ele>
        <time>2012-12-15T13:16:46Z</time>
      </trkpt>
      <trkpt lat="45.56079" lon="5.9306">
        <ele>311.12</ele>
        <time>2012-12-15T13:16:47Z</time>
      </trkpt>
      <trkpt lat="45.56076" lon="5.93067">
        <ele>310.16</ele>
        <time>2012-12-15T13:16:48Z</time>
      </trkpt>
      <trkpt lat="45.56074" lon="5.93075">
        <ele>310.16</ele>
        <time>2012-12-15T13:16:49Z</time>
      </trkpt>
      <trkpt lat="45.56073" lon="5.93083">
        <ele>309.68</ele>
        <time>2012-12-15T13:16:50Z</time>
      </trkpt>
      <trkpt lat="45.5607" lon="5.9309">
        <ele>309.68</ele>
        <time>2012-12-15T13:16:51Z</time>
      </trkpt>
      <trkpt lat="45.56067" lon="5.93096">
        <ele>309.2</ele>
        <time>2012-12-15T13:16:52Z</time>
      </trkpt>
      <trkpt lat="45.56063" lon="5.93101">
        <ele>310.16</ele>
        <time>2012-12-15T13:16:53Z</time>
      </trkpt>
      <trkpt lat="45.56059" lon="5.93103">
        <ele>309.68</ele>
        <time>2012-12-15T13:16:54Z</time>
      </trkpt>
      <trkpt lat="45.56054" lon="5.93106">
        <ele>310.64</ele>
        <time>2012-12-15T13:16:55Z</time>
      </trkpt>
      <trkpt lat="45.56051" lon="5.9311">
        <ele>310.64</ele>
        <time>2012-12-15T13:16:56Z</time>
      </trkpt>
      <trkpt lat="45.56048" lon="5.93115">
        <ele>310.64</ele>
        <time>2012-12-15T13:16:57Z</time>
      </trkpt>
      <trkpt lat="45.56045" lon="5.93121">
        <ele>310.64</ele>
        <time>2012-12-15T13:16:58Z</time>
      </trkpt>
      <trkpt lat="45.56043" lon="5.93128">
        <ele>310.64</ele>
        <time>2012-12-15T13:16:59Z</time>
      </trkpt>
      <trkpt lat="45.56043" lon="5.93135">
        <ele>310.64</ele>
        <time>2012-12-15T13:17:00Z</time>
      </trkpt>
      <trkpt lat="45.56042" lon="5.93142">
        <ele>310.64</ele>
        <time>2012-12-15T13:17:01Z</time>
      </trkpt>
      <trkpt lat="45.56033" lon="5.93286">
        <ele>311.6</ele>
        <time>2012-12-15T13:17:20Z</time>
      </trkpt>
      <trkpt lat="45.56026" lon="5.93394">
        <ele>314.49</ele>
        <time>2012-12-15T13:17:38Z</time>
      </trkpt>
      <trkpt lat="45.56023" lon="5.93469">
        <ele>316.41</ele>
        <time>2012-12-15T13:17:52Z</time>
      </trkpt>
      <trkpt lat="45.56043" lon="5.93516">
        <ele>318.81</ele>
        <time>2012-12-15T13:18:04Z</time>
      </trkpt>
      <trkpt lat="45.56075" lon="5.93546">
        <ele>321.7</ele>
        <time>2012-12-15T13:18:18Z</time>
      </trkpt>
      <trkpt lat="45.56104" lon="5.93577">
        <ele>324.1</ele>
        <time>2012-12-15T13:18:32Z</time>
      </trkpt>
      <trkpt lat="45.56119" lon="5.93627">
        <ele>326.5</ele>
        <time>2012-12-15T13:18:47Z</time>
      </trkpt>
      <trkpt lat="45.56105" lon="5.93682">
        <ele>326.99</ele>
        <time>2012-12-15T13:19:00Z</time>
      </trkpt>
      <trkpt lat="45.56074" lon="5.93758">
        <ele>326.5</ele>
        <time>2012-12-15T13:19:16Z</time>
      </trkpt>
      <trkpt lat="45.56072" lon="5.93788">
        <ele>325.54</ele>
        <time>2012-12-15T13:19:23Z</time>
      </trkpt>
      <trkpt lat="45.56093" lon="5.93778">
        <ele>324.58</ele>
        <time>2012-12-15T13:19:31Z</time>
      </trkpt>
      <trkpt lat="45.56133" lon="5.93705">
        <ele>322.66</ele>
        <time>2012-12-15T13:19:44Z</time>
      </trkpt>
      <trkpt lat="45.56157" lon="5.9367">
        <ele>321.7</ele>
        <time>2012-12-15T13:19:50Z</time>
      </trkpt>
      <trkpt lat="45.56161" lon="5.93666">
        <ele>321.7</ele>
        <time>2012-12-15T13:19:51Z</time>
      </trkpt>
      <trkpt lat="45.56166" lon="5.93661">
        <ele>321.7</ele>
        <time>2012-12-15T13:19:52Z</time>
      </trkpt>
      <trkpt lat="45.56171" lon="5.93658">
        <ele>321.22</ele>
        <time>2012-12-15T13:19:53Z</time>
      </trkpt>
      <trkpt lat="45.56176" lon="5.93655">
        <ele>320.74</ele>
        <time>2012-12-15T13:19:54Z</time>
      </trkpt>
      <trkpt lat="45.56181" lon="5.93653">
        <ele>320.74</ele>
        <time>2012-12-15T13:19:55Z</time>
      </trkpt>
      <trkpt lat="45.56186" lon="5.93651">
        <ele>320.74</ele>
        <time>2012-12-15T13:19:56Z</time>
      </trkpt>
      <trkpt lat="45.56191" lon="5.93651">
        <ele>320.74</ele>
        <time>2012-12-15T13:19:57Z</time>
      </trkpt>
      <trkpt lat="45.56201" lon="5.93652">
        <ele>320.26</ele>
        <time>2012-12-15T13:19:59Z</time>
      </trkpt>
      <trkpt lat="45.56211" lon="5.93655">
        <ele>319.78</ele>
        <time>2012-12-15T13:20:01Z</time>
      </trkpt>
      <trkpt lat="45.56242" lon="5.93674">
        <ele>317.85</ele>
        <time>2012-12-15T13:20:07Z</time>
      </trkpt>
      <trkpt lat="45.5626" lon="5.93685">
        <ele>316.41</ele>
        <time>2012-12-15T13:20:10Z</time>
      </trkpt>
      <trkpt lat="45.56287" lon="5.93701">
        <ele>313.05</ele>
        <time>2012-12-15T13:20:14Z</time>
      </trkpt>
      <trkpt lat="45.56316" lon="5.93718">
        <ele>309.68</ele>
        <time>2012-12-15T13:20:18Z</time>
      </trkpt>
      <trkpt lat="45.56346" lon="5.93735">
        <ele>306.8</ele>
        <time>2012-12-15T13:20:22Z</time>
      </trkpt>
      <trkpt lat="45.56371" lon="5.9375">
        <ele>303.43</ele>
        <time>2012-12-15T13:20:25Z</time>
      </trkpt>
      <trkpt lat="45.56398" lon="5.93777">
        <ele>300.55</ele>
        <time>2012-12-15T13:20:29Z</time>
      </trkpt>
      <trkpt lat="45.56403" lon="5.93784">
        <ele>299.59</ele>
        <time>2012-12-15T13:20:30Z</time>
      </trkpt>
      <trkpt lat="45.56407" lon="5.9379">
        <ele>299.59</ele>
        <time>2012-12-15T13:20:31Z</time>
      </trkpt>
      <trkpt lat="45.56409" lon="5.93797">
        <ele>299.11</ele>
        <time>2012-12-15T13:20:32Z</time>
      </trkpt>
      <trkpt lat="45.5641" lon="5.93803">
        <ele>298.15</ele>
        <time>2012-12-15T13:20:33Z</time>
      </trkpt>
      <trkpt lat="45.56409" lon="5.9381">
        <ele>298.15</ele>
        <time>2012-12-15T13:20:34Z</time>
      </trkpt>
      <trkpt lat="45.56406" lon="5.93817">
        <ele>297.67</ele>
        <time>2012-12-15T13:20:35Z</time>
      </trkpt>
      <trkpt lat="45.56403" lon="5.93824">
        <ele>297.18</ele>
        <time>2012-12-15T13:20:36Z</time>
      </trkpt>
      <trkpt lat="45.56399" lon="5.93831">
        <ele>296.7</ele>
        <time>2012-12-15T13:20:37Z</time>
      </trkpt>
      <trkpt lat="45.56382" lon="5.9386">
        <ele>294.78</ele>
        <time>2012-12-15T13:20:41Z</time>
      </trkpt>
      <trkpt lat="45.56376" lon="5.93867">
        <ele>294.3</ele>
        <time>2012-12-15T13:20:42Z</time>
      </trkpt>
      <trkpt lat="45.5637" lon="5.93872">
        <ele>293.34</ele>
        <time>2012-12-15T13:20:43Z</time>
      </trkpt>
      <trkpt lat="45.56338" lon="5.93908">
        <ele>289.49</ele>
        <time>2012-12-15T13:20:49Z</time>
      </trkpt>
      <trkpt lat="45.56334" lon="5.93914">
        <ele>289.49</ele>
        <time>2012-12-15T13:20:50Z</time>
      </trkpt>
      <trkpt lat="45.56331" lon="5.93918">
        <ele>289.01</ele>
        <time>2012-12-15T13:20:51Z</time>
      </trkpt>
      <trkpt lat="45.56329" lon="5.93922">
        <ele>289.01</ele>
        <time>2012-12-15T13:20:52Z</time>
      </trkpt>
      <trkpt lat="45.56328" lon="5.93927">
        <ele>288.53</ele>
        <time>2012-12-15T13:20:53Z</time>
      </trkpt>
      <trkpt lat="45.56329" lon="5.93932">
        <ele>287.57</ele>
        <time>2012-12-15T13:20:54Z</time>
      </trkpt>
      <trkpt lat="45.56331" lon="5.93937">
        <ele>286.61</ele>
        <time>2012-12-15T13:20:55Z</time>
      </trkpt>
      <trkpt lat="45.56333" lon="5.93943">
        <ele>286.61</ele>
        <time>2012-12-15T13:20:56Z</time>
      </trkpt>
      <trkpt lat="45.56336" lon="5.93948">
        <ele>286.61</ele>
        <time>2012-12-15T13:20:57Z</time>
      </trkpt>
      <trkpt lat="45.56336" lon="5.93953">
        <ele>285.65</ele>
        <time>2012-12-15T13:20:58Z</time>
      </trkpt>
      <trkpt lat="45.56335" lon="5.93958">
        <ele>285.17</ele>
        <time>2012-12-15T13:20:59Z</time>
      </trkpt>
      <trkpt lat="45.56333" lon="5.93962">
        <ele>285.65</ele>
        <time>2012-12-15T13:21:00Z</time>
      </trkpt>
      <trkpt lat="45.56331" lon="5.93966">
        <ele>286.13</ele>
        <time>2012-12-15T13:21:01Z</time>
      </trkpt>
      <trkpt lat="45.56327" lon="5.93968">
        <ele>285.65</ele>
        <time>2012-12-15T13:21:02Z</time>
      </trkpt>
      <trkpt lat="45.56323" lon="5.93971">
        <ele>285.65</ele>
        <time>2012-12-15T13:21:03Z</time>
      </trkpt>
      <trkpt lat="45.56281" lon="5.93994">
        <ele>285.65</ele>
        <time>2012-12-15T13:21:13Z</time>
      </trkpt>
      <trkpt lat="45.56241" lon="5.94025">
        <ele>286.61</ele>
        <time>2012-12-15T13:21:23Z</time>
      </trkpt>
      <trkpt lat="45.56236" lon="5.94027">
        <ele>286.61</ele>
        <time>2012-12-15T13:21:24Z</time>
      </trkpt>
      <trkpt lat="45.56231" lon="5.94029">
        <ele>286.61</ele>
        <time>2012-12-15T13:21:25Z</time>
      </trkpt>
      <trkpt lat="45.56227" lon="5.9403">
        <ele>286.61</ele>
        <time>2012-12-15T13:21:26Z</time>
      </trkpt>
      <trkpt lat="45.56222" lon="5.9403">
        <ele>286.61</ele>
        <time>2012-12-15T13:21:27Z</time>
      </trkpt>
      <trkpt lat="45.56218" lon="5.94032">
        <ele>287.09</ele>
        <time>2012-12-15T13:21:28Z</time>
      </trkpt>
      <trkpt lat="45.56192" lon="5.94047">
        <ele>287.57</ele>
        <time>2012-12-15T13:21:34Z</time>
      </trkpt>
      <trkpt lat="45.56189" lon="5.94051">
        <ele>287.57</ele>
        <time>2012-12-15T13:21:35Z</time>
      </trkpt>
      <trkpt lat="45.56186" lon="5.94055">
        <ele>287.57</ele>
        <time>2012-12-15T13:21:36Z</time>
      </trkpt>
      <trkpt lat="45.56179" lon="5.94065">
        <ele>287.09</ele>
        <time>2012-12-15T13:21:38Z</time>
      </trkpt>
      <trkpt lat="45.56176" lon="5.9407">
        <ele>287.57</ele>
        <time>2012-12-15T13:21:39Z</time>
      </trkpt>
      <trkpt lat="45.56173" lon="5.94075">
        <ele>287.09</ele>
        <time>2012-12-15T13:21:40Z</time>
      </trkpt>
      <trkpt lat="45.56168" lon="5.9408">
        <ele>287.09</ele>
        <time>2012-12-15T13:21:41Z</time>
      </trkpt>
      <trkpt lat="45.56164" lon="5.94084">
        <ele>287.09</ele>
        <time>2012-12-15T13:21:42Z</time>
      </trkpt>
      <trkpt lat="45.56126" lon="5.94138">
        <ele>288.05</ele>
        <time>2012-12-15T13:21:55Z</time>
      </trkpt>
      <trkpt lat="45.56118" lon="5.94182">
        <ele>287.09</ele>
        <time>2012-12-15T13:22:05Z</time>
      </trkpt>
      <trkpt lat="45.56118" lon="5.94185">
        <ele>287.57</ele>
        <time>2012-12-15T13:22:06Z</time>
      </trkpt>
      <trkpt lat="45.56118" lon="5.94209">
        <ele>286.61</ele>
        <time>2012-12-15T13:22:11Z</time>
      </trkpt>
      <trkpt lat="45.56115" lon="5.94214">
        <ele>286.61</ele>
        <time>2012-12-15T13:22:12Z</time>
      </trkpt>
      <trkpt lat="45.56113" lon="5.94219">
        <ele>286.61</ele>
        <time>2012-12-15T13:22:13Z</time>
      </trkpt>
      <trkpt lat="45.56111" lon="5.94224">
        <ele>286.61</ele>
        <time>2012-12-15T13:22:14Z</time>
      </trkpt>
      <trkpt lat="45.56111" lon="5.9423">
        <ele>286.61</ele>
        <time>2012-12-15T13:22:15Z</time>
      </trkpt>
      <trkpt lat="45.56112" lon="5.94236">
        <ele>286.61</ele>
        <time>2012-12-15T13:22:16Z</time>
      </trkpt>
      <trkpt lat="45.56113" lon="5.94242">
        <ele>286.61</ele>
        <time>2012-12-15T13:22:17Z</time>
      </trkpt>
      <trkpt lat="45.56114" lon="5.94248">
        <ele>287.09</ele>
        <time>2012-12-15T13:22:18Z</time>
      </trkpt>
      <trkpt lat="45.56117" lon="5.94261">
        <ele>287.09</ele>
        <time>2012-12-15T13:22:20Z</time>
      </trkpt>
      <trkpt lat="45.56117" lon="5.94267">
        <ele>287.09</ele>
        <time>2012-12-15T13:22:21Z</time>
      </trkpt>
      <trkpt lat="45.56117" lon="5.94273">
        <ele>287.09</ele>
        <time>2012-12-15T13:22:22Z</time>
      </trkpt>
      <trkpt lat="45.56105" lon="5.94383">
        <ele>286.61</ele>
        <time>2012-12-15T13:22:38Z</time>
      </trkpt>
      <trkpt lat="45.56104" lon="5.94397">
        <ele>286.61</ele>
        <time>2012-12-15T13:22:40Z</time>
      </trkpt>
      <trkpt lat="45.56075" lon="5.94509">
        <ele>287.57</ele>
        <time>2012-12-15T13:22:58Z</time>
      </trkpt>
      <trkpt lat="45.5607" lon="5.94522">
        <ele>287.57</ele>
        <time>2012-12-15T13:23:00Z</time>
      </trkpt>
      <trkpt lat="45.56067" lon="5.94527">
        <ele>287.57</ele>
        <time>2012-12-15T13:23:01Z</time>
      </trkpt>
      <trkpt lat="45.56063" lon="5.94532">
        <ele>287.57</ele>
        <time>2012-12-15T13:23:02Z</time>
      </trkpt>
      <trkpt lat="45.56059" lon="5.94535">
        <ele>287.09</ele>
        <time>2012-12-15T13:23:03Z</time>
      </trkpt>
      <trkpt lat="45.56054" lon="5.94538">
        <ele>287.57</ele>
        <time>2012-12-15T13:23:04Z</time>
      </trkpt>
      <trkpt lat="45.56048" lon="5.9454">
        <ele>287.09</ele>
        <time>2012-12-15T13:23:05Z</time>
      </trkpt>
      <trkpt lat="45.55958" lon="5.94565">
        <ele>287.57</ele>
        <time>2012-12-15T13:23:22Z</time>
      </trkpt>
      <trkpt lat="45.55954" lon="5.94568">
        <ele>287.57</ele>
        <time>2012-12-15T13:23:23Z</time>
      </trkpt>
      <trkpt lat="45.55949" lon="5.94572">
        <ele>287.57</ele>
        <time>2012-12-15T13:23:24Z</time>
      </trkpt>
      <trkpt lat="45.55946" lon="5.94577">
        <ele>287.57</ele>
        <time>2012-12-15T13:23:25Z</time>
      </trkpt>
      <trkpt lat="45.55942" lon="5.94583">
        <ele>288.05</ele>
        <time>2012-12-15T13:23:26Z</time>
      </trkpt>
      <trkpt lat="45.55938" lon="5.94589">
        <ele>287.57</ele>
        <time>2012-12-15T13:23:27Z</time>
      </trkpt>
      <trkpt lat="45.55935" lon="5.94595">
        <ele>287.57</ele>
        <time>2012-12-15T13:23:28Z</time>
      </trkpt>
      <trkpt lat="45.55887" lon="5.94694">
        <ele>288.05</ele>
        <time>2012-12-15T13:23:44Z</time>
      </trkpt>
      <trkpt lat="45.55864" lon="5.9479">
        <ele>289.49</ele>
        <time>2012-12-15T13:23:58Z</time>
      </trkpt>
      <trkpt lat="45.55861" lon="5.94794">
        <ele>289.49</ele>
        <time>2012-12-15T13:23:59Z</time>
      </trkpt>
      <trkpt lat="45.55857" lon="5.94797">
        <ele>289.97</ele>
        <time>2012-12-15T13:24:00Z</time>
      </trkpt>
      <trkpt lat="45.55831" lon="5.9481">
        <ele>289.49</ele>
        <time>2012-12-15T13:24:06Z</time>
      </trkpt>
      <trkpt lat="45.55822" lon="5.94814">
        <ele>289.49</ele>
        <time>2012-12-15T13:24:08Z</time>
      </trkpt>
      <trkpt lat="45.5577" lon="5.94843">
        <ele>289.97</ele>
        <time>2012-12-15T13:24:20Z</time>
      </trkpt>
      <trkpt lat="45.55759" lon="5.94852">
        <ele>289.49</ele>
        <time>2012-12-15T13:24:24Z</time>
      </trkpt>
      <trkpt lat="45.55759" lon="5.94854">
        <ele>289.97</ele>
        <time>2012-12-15T13:24:25Z</time>
      </trkpt>
      <trkpt lat="45.55759" lon="5.94857">
        <ele>289.97</ele>
        <time>2012-12-15T13:24:26Z</time>
      </trkpt>
      <trkpt lat="45.5576" lon="5.9486">
        <ele>289.97</ele>
        <time>2012-12-15T13:24:27Z</time>
      </trkpt>
      <trkpt lat="45.55762" lon="5.94864">
        <ele>289.97</ele>
        <time>2012-12-15T13:24:28Z</time>
      </trkpt>
      <trkpt lat="45.55763" lon="5.94869">
        <ele>289.49</ele>
        <time>2012-12-15T13:24:29Z</time>
      </trkpt>
      <trkpt lat="45.55763" lon="5.94875">
        <ele>289.49</ele>
        <time>2012-12-15T13:24:30Z</time>
      </trkpt>
      <trkpt lat="45.55761" lon="5.9488">
        <ele>289.49</ele>
        <time>2012-12-15T13:24:31Z</time>
      </trkpt>
      <trkpt lat="45.55757" lon="5.94884">
        <ele>289.49</ele>
        <time>2012-12-15T13:24:32Z</time>
      </trkpt>
      <trkpt lat="45.55754" lon="5.94889">
        <ele>289.49</ele>
        <time>2012-12-15T13:24:33Z</time>
      </trkpt>
      <trkpt lat="45.5575" lon="5.94893">
        <ele>289.49</ele>
        <time>2012-12-15T13:24:34Z</time>
      </trkpt>
      <trkpt lat="45.55721" lon="5.94917">
        <ele>289.49</ele>
        <time>2012-12-15T13:24:41Z</time>
      </trkpt>
      <trkpt lat="45.55679" lon="5.94983">
        <ele>290.46</ele>
        <time>2012-12-15T13:24:54Z</time>
      </trkpt>
      <trkpt lat="45.55637" lon="5.9503">
        <ele>290.46</ele>
        <time>2012-12-15T13:25:04Z</time>
      </trkpt>
      <trkpt lat="45.55572" lon="5.95114">
        <ele>289.97</ele>
        <time>2012-12-15T13:25:20Z</time>
      </trkpt>
      <trkpt lat="45.55512" lon="5.95191">
        <ele>289.97</ele>
        <time>2012-12-15T13:25:35Z</time>
      </trkpt>
      <trkpt lat="45.55448" lon="5.95273">
        <ele>290.46</ele>
        <time>2012-12-15T13:25:51Z</time>
      </trkpt>
      <trkpt lat="45.55382" lon="5.95349">
        <ele>291.9</ele>
        <time>2012-12-15T13:26:09Z</time>
      </trkpt>
      <trkpt lat="45.55347" lon="5.95408">
        <ele>293.34</ele>
        <time>2012-12-15T13:26:24Z</time>
      </trkpt>
      <trkpt lat="45.55352" lon="5.95417">
        <ele>292.86</ele>
        <time>2012-12-15T13:26:26Z</time>
      </trkpt>
      <trkpt lat="45.55355" lon="5.95421">
        <ele>292.86</ele>
        <time>2012-12-15T13:26:27Z</time>
      </trkpt>
      <trkpt lat="45.55359" lon="5.95423">
        <ele>292.86</ele>
        <time>2012-12-15T13:26:28Z</time>
      </trkpt>
      <trkpt lat="45.55377" lon="5.95428">
        <ele>291.9</ele>
        <time>2012-12-15T13:26:33Z</time>
      </trkpt>
      <trkpt lat="45.55381" lon="5.95424">
        <ele>291.9</ele>
        <time>2012-12-15T13:26:34Z</time>
      </trkpt>
      <trkpt lat="45.55384" lon="5.95419">
        <ele>291.42</ele>
        <time>2012-12-15T13:26:35Z</time>
      </trkpt>
      <trkpt lat="45.55388" lon="5.95414">
        <ele>291.42</ele>
        <time>2012-12-15T13:26:36Z</time>
      </trkpt>
      <trkpt lat="45.55393" lon="5.95411">
        <ele>290.94</ele>
        <time>2012-12-15T13:26:37Z</time>
      </trkpt>
      <trkpt lat="45.55397" lon="5.9541">
        <ele>290.94</ele>
        <time>2012-12-15T13:26:38Z</time>
      </trkpt>
      <trkpt lat="45.55402" lon="5.95412">
        <ele>290.94</ele>
        <time>2012-12-15T13:26:39Z</time>
      </trkpt>
      <trkpt lat="45.55406" lon="5.95415">
        <ele>290.94</ele>
        <time>2012-12-15T13:26:40Z</time>
      </trkpt>
      <trkpt lat="45.55419" lon="5.95423">
        <ele>290.46</ele>
        <time>2012-12-15T13:26:43Z</time>
      </trkpt>
      <trkpt lat="45.55423" lon="5.95424">
        <ele>290.94</ele>
        <time>2012-12-15T13:26:44Z</time>
      </trkpt>
      <trkpt lat="45.55429" lon="5.95424">
        <ele>290.46</ele>
        <time>2012-12-15T13:26:45Z</time>
      </trkpt>
      <trkpt lat="45.55434" lon="5.95423">
        <ele>290.46</ele>
        <time>2012-12-15T13:26:46Z</time>
      </trkpt>
      <trkpt lat="45.55439" lon="5.95422">
        <ele>290.46</ele>
        <time>2012-12-15T13:26:47Z</time>
      </trkpt>
      <trkpt lat="45.55444" lon="5.95419">
        <ele>290.46</ele>
        <time>2012-12-15T13:26:48Z</time>
      </trkpt>
      <trkpt lat="45.55448" lon="5.95416">
        <ele>291.42</ele>
        <time>2012-12-15T13:26:49Z</time>
      </trkpt>
      <trkpt lat="45.55453" lon="5.95412">
        <ele>290.94</ele>
        <time>2012-12-15T13:26:50Z</time>
      </trkpt>
      <trkpt lat="45.55457" lon="5.95408">
        <ele>290.46</ele>
        <time>2012-12-15T13:26:51Z</time>
      </trkpt>
      <trkpt lat="45.5546" lon="5.95403">
        <ele>290.46</ele>
        <time>2012-12-15T13:26:52Z</time>
      </trkpt>
      <trkpt lat="45.55464" lon="5.95397">
        <ele>290.46</ele>
        <time>2012-12-15T13:26:53Z</time>
      </trkpt>
      <trkpt lat="45.55467" lon="5.95391">
        <ele>289.97</ele>
        <time>2012-12-15T13:26:54Z</time>
      </trkpt>
      <trkpt lat="45.5547" lon="5.95386">
        <ele>289.97</ele>
        <time>2012-12-15T13:26:55Z</time>
      </trkpt>
      <trkpt lat="45.55474" lon="5.95381">
        <ele>289.49</ele>
        <time>2012-12-15T13:26:56Z</time>
      </trkpt>
      <trkpt lat="45.55478" lon="5.95378">
        <ele>289.97</ele>
        <time>2012-12-15T13:26:57Z</time>
      </trkpt>
      <trkpt lat="45.55483" lon="5.95377">
        <ele>289.49</ele>
        <time>2012-12-15T13:26:58Z</time>
      </trkpt>
      <trkpt lat="45.55486" lon="5.95377">
        <ele>289.49</ele>
        <time>2012-12-15T13:26:59Z</time>
      </trkpt>
      <trkpt lat="45.55489" lon="5.95379">
        <ele>289.49</ele>
        <time>2012-12-15T13:27:00Z</time>
      </trkpt>
      <trkpt lat="45.55491" lon="5.95383">
        <ele>289.01</ele>
        <time>2012-12-15T13:27:01Z</time>
      </trkpt>
      <trkpt lat="45.55493" lon="5.95387">
        <ele>289.49</ele>
        <time>2012-12-15T13:27:02Z</time>
      </trkpt>
      <trkpt lat="45.5551" lon="5.95425">
        <ele>289.97</ele>
        <time>2012-12-15T13:27:11Z</time>
      </trkpt>
      <trkpt lat="45.5554" lon="5.95485">
        <ele>292.38</ele>
        <time>2012-12-15T13:27:23Z</time>
      </trkpt>
      <trkpt lat="45.55584" lon="5.9556">
        <ele>294.3</ele>
        <time>2012-12-15T13:27:38Z</time>
      </trkpt>
      <trkpt lat="45.55594" lon="5.95573">
        <ele>294.3</ele>
        <time>2012-12-15T13:27:41Z</time>
      </trkpt>
      <trkpt lat="45.55644" lon="5.95632">
        <ele>294.78</ele>
        <time>2012-12-15T13:27:55Z</time>
      </trkpt>
      <trkpt lat="45.55651" lon="5.95639">
        <ele>294.3</ele>
        <time>2012-12-15T13:27:57Z</time>
      </trkpt>
      <trkpt lat="45.55658" lon="5.95646">
        <ele>294.78</ele>
        <time>2012-12-15T13:27:59Z</time>
      </trkpt>
      <trkpt lat="45.55663" lon="5.95649">
        <ele>294.78</ele>
        <time>2012-12-15T13:28:00Z</time>
      </trkpt>
      <trkpt lat="45.55666" lon="5.95653">
        <ele>294.3</ele>
        <time>2012-12-15T13:28:01Z</time>
      </trkpt>
      <trkpt lat="45.55715" lon="5.95711">
        <ele>296.22</ele>
        <time>2012-12-15T13:28:16Z</time>
      </trkpt>
      <trkpt lat="45.55763" lon="5.95765">
        <ele>297.67</ele>
        <time>2012-12-15T13:28:32Z</time>
      </trkpt>
      <trkpt lat="45.55803" lon="5.9581">
        <ele>296.22</ele>
        <time>2012-12-15T13:28:43Z</time>
      </trkpt>
      <trkpt lat="45.55804" lon="5.95814">
        <ele>296.22</ele>
        <time>2012-12-15T13:28:44Z</time>
      </trkpt>
      <trkpt lat="45.55807" lon="5.95838">
        <ele>295.74</ele>
        <time>2012-12-15T13:28:49Z</time>
      </trkpt>
      <trkpt lat="45.55799" lon="5.95869">
        <ele>295.26</ele>
        <time>2012-12-15T13:28:54Z</time>
      </trkpt>
      <trkpt lat="45.55773" lon="5.95964">
        <ele>294.78</ele>
        <time>2012-12-15T13:29:08Z</time>
      </trkpt>
      <trkpt lat="45.55738" lon="5.96065">
        <ele>294.78</ele>
        <time>2012-12-15T13:29:24Z</time>
      </trkpt>
      <trkpt lat="45.55695" lon="5.9615">
        <ele>295.74</ele>
        <time>2012-12-15T13:29:39Z</time>
      </trkpt>
      <trkpt lat="45.55659" lon="5.96204">
        <ele>297.18</ele>
        <time>2012-12-15T13:29:52Z</time>
      </trkpt>
      <trkpt lat="45.55655" lon="5.96203">
        <ele>297.18</ele>
        <time>2012-12-15T13:29:53Z</time>
      </trkpt>
      <trkpt lat="45.55652" lon="5.96201">
        <ele>297.18</ele>
        <time>2012-12-15T13:29:54Z</time>
      </trkpt>
      <trkpt lat="45.55649" lon="5.96196">
        <ele>297.18</ele>
        <time>2012-12-15T13:29:55Z</time>
      </trkpt>
      <trkpt lat="45.55647" lon="5.96191">
        <ele>296.7</ele>
        <time>2012-12-15T13:29:56Z</time>
      </trkpt>
      <trkpt lat="45.55645" lon="5.96185">
        <ele>296.22</ele>
        <time>2012-12-15T13:29:57Z</time>
      </trkpt>
      <trkpt lat="45.55642" lon="5.9618">
        <ele>296.22</ele>
        <time>2012-12-15T13:29:58Z</time>
      </trkpt>
      <trkpt lat="45.55638" lon="5.96176">
        <ele>295.74</ele>
        <time>2012-12-15T13:29:59Z</time>
      </trkpt>
      <trkpt lat="45.55632" lon="5.96174">
        <ele>295.74</ele>
        <time>2012-12-15T13:30:00Z</time>
      </trkpt>
      <trkpt lat="45.55627" lon="5.96174">
        <ele>295.74</ele>
        <time>2012-12-15T13:30:01Z</time>
      </trkpt>
      <trkpt lat="45.55622" lon="5.96176">
        <ele>295.74</ele>
        <time>2012-12-15T13:30:02Z</time>
      </trkpt>
      <trkpt lat="45.55617" lon="5.96178">
        <ele>295.74</ele>
        <time>2012-12-15T13:30:03Z</time>
      </trkpt>
      <trkpt lat="45.5556" lon="5.96206">
        <ele>297.67</ele>
        <time>2012-12-15T13:30:17Z</time>
      </trkpt>
      <trkpt lat="45.55557" lon="5.96208">
        <ele>297.67</ele>
        <time>2012-12-15T13:30:18Z</time>
      </trkpt>
      <trkpt lat="45.55553" lon="5.9621">
        <ele>297.67</ele>
        <time>2012-12-15T13:30:19Z</time>
      </trkpt>
      <trkpt lat="45.55498" lon="5.96244">
        <ele>299.11</ele>
        <time>2012-12-15T13:30:34Z</time>
      </trkpt>
      <trkpt lat="45.55483" lon="5.96254">
        <ele>299.11</ele>
        <time>2012-12-15T13:30:38Z</time>
      </trkpt>
      <trkpt lat="45.55479" lon="5.96256">
        <ele>300.07</ele>
        <time>2012-12-15T13:30:39Z</time>
      </trkpt>
      <trkpt lat="45.55418" lon="5.96272">
        <ele>300.55</ele>
        <time>2012-12-15T13:30:55Z</time>
      </trkpt>
      <trkpt lat="45.55354" lon="5.96273">
        <ele>301.51</ele>
        <time>2012-12-15T13:31:10Z</time>
      </trkpt>
      <trkpt lat="45.553" lon="5.96293">
        <ele>302.95</ele>
        <time>2012-12-15T13:31:23Z</time>
      </trkpt>
      <trkpt lat="45.55253" lon="5.96359">
        <ele>303.43</ele>
        <time>2012-12-15T13:31:38Z</time>
      </trkpt>
      <trkpt lat="45.55234" lon="5.96393">
        <ele>303.43</ele>
        <time>2012-12-15T13:31:49Z</time>
      </trkpt>
      <trkpt lat="45.55208" lon="5.96432">
        <ele>303.91</ele>
        <time>2012-12-15T13:31:59Z</time>
      </trkpt>
      <trkpt lat="45.5518" lon="5.96444">
        <ele>303.91</ele>
        <time>2012-12-15T13:32:06Z</time>
      </trkpt>
      <trkpt lat="45.55176" lon="5.96446">
        <ele>304.39</ele>
        <time>2012-12-15T13:32:07Z</time>
      </trkpt>
      <trkpt lat="45.55113" lon="5.96466">
        <ele>305.36</ele>
        <time>2012-12-15T13:32:23Z</time>
      </trkpt>
      <trkpt lat="45.55064" lon="5.96477">
        <ele>307.76</ele>
        <time>2012-12-15T13:32:37Z</time>
      </trkpt>
      <trkpt lat="45.55006" lon="5.96511">
        <ele>308.72</ele>
        <time>2012-12-15T13:32:53Z</time>
      </trkpt>
      <trkpt lat="45.54949" lon="5.96546">
        <ele>309.2</ele>
        <time>2012-12-15T13:33:09Z</time>
      </trkpt>
      <trkpt lat="45.54911" lon="5.96559">
        <ele>310.16</ele>
        <time>2012-12-15T13:33:22Z</time>
      </trkpt>
      <trkpt lat="45.54909" lon="5.96546">
        <ele>309.68</ele>
        <time>2012-12-15T13:33:25Z</time>
      </trkpt>
      <trkpt lat="45.54909" lon="5.96536">
        <ele>309.2</ele>
        <time>2012-12-15T13:33:26Z</time>
      </trkpt>
      <trkpt lat="45.54909" lon="5.96526">
        <ele>309.2</ele>
        <time>2012-12-15T13:33:27Z</time>
      </trkpt>
      <trkpt lat="45.5491" lon="5.965">
        <ele>308.24</ele>
        <time>2012-12-15T13:33:30Z</time>
      </trkpt>
      <trkpt lat="45.54911" lon="5.96488">
        <ele>308.72</ele>
        <time>2012-12-15T13:33:31Z</time>
      </trkpt>
      <trkpt lat="45.54913" lon="5.96479">
        <ele>308.24</ele>
        <time>2012-12-15T13:33:32Z</time>
      </trkpt>
      <trkpt lat="45.54916" lon="5.96459">
        <ele>308.24</ele>
        <time>2012-12-15T13:33:35Z</time>
      </trkpt>
      <trkpt lat="45.54911" lon="5.96429">
        <ele>310.16</ele>
        <time>2012-12-15T13:33:42Z</time>
      </trkpt>
      <trkpt lat="45.54908" lon="5.96401">
        <ele>313.53</ele>
        <time>2012-12-15T13:33:53Z</time>
      </trkpt>
      <trkpt lat="45.54902" lon="5.96381">
        <ele>315.93</ele>
        <time>2012-12-15T13:34:02Z</time>
      </trkpt>
      <trkpt lat="45.54869" lon="5.9634">
        <ele>314.97</ele>
        <time>2012-12-15T13:34:15Z</time>
      </trkpt>
      <trkpt lat="45.54841" lon="5.96287">
        <ele>314.97</ele>
        <time>2012-12-15T13:34:30Z</time>
      </trkpt>
      <trkpt lat="45.54836" lon="5.96279">
        <ele>314.01</ele>
        <time>2012-12-15T13:34:32Z</time>
      </trkpt>
      <trkpt lat="45.5481" lon="5.96306">
        <ele>316.41</ele>
        <time>2012-12-15T13:34:44Z</time>
      </trkpt>
      <trkpt lat="45.54808" lon="5.9631">
        <ele>316.41</ele>
        <time>2012-12-15T13:34:45Z</time>
      </trkpt>
      <trkpt lat="45.54805" lon="5.96313">
        <ele>316.41</ele>
        <time>2012-12-15T13:34:46Z</time>
      </trkpt>
      <trkpt lat="45.54803" lon="5.96316">
        <ele>316.41</ele>
        <time>2012-12-15T13:34:47Z</time>
      </trkpt>
      <trkpt lat="45.54764" lon="5.96339">
        <ele>319.3</ele>
        <time>2012-12-15T13:35:00Z</time>
      </trkpt>
      <trkpt lat="45.54723" lon="5.9636">
        <ele>321.7</ele>
        <time>2012-12-15T13:35:16Z</time>
      </trkpt>
      <trkpt lat="45.54681" lon="5.96388">
        <ele>324.1</ele>
        <time>2012-12-15T13:35:30Z</time>
      </trkpt>
      <trkpt lat="45.54635" lon="5.96415">
        <ele>326.5</ele>
        <time>2012-12-15T13:35:46Z</time>
      </trkpt>
      <trkpt lat="45.54588" lon="5.96435">
        <ele>325.54</ele>
        <time>2012-12-15T13:36:01Z</time>
      </trkpt>
      <trkpt lat="45.54533" lon="5.96448">
        <ele>325.54</ele>
        <time>2012-12-15T13:36:17Z</time>
      </trkpt>
      <trkpt lat="45.5448" lon="5.96468">
        <ele>326.02</ele>
        <time>2012-12-15T13:36:33Z</time>
      </trkpt>
      <trkpt lat="45.54424" lon="5.96494">
        <ele>327.47</ele>
        <time>2012-12-15T13:36:51Z</time>
      </trkpt>
      <trkpt lat="45.54369" lon="5.9652">
        <ele>326.5</ele>
        <time>2012-12-15T13:37:07Z</time>
      </trkpt>
      <trkpt lat="45.54323" lon="5.96546">
        <ele>325.54</ele>
        <time>2012-12-15T13:37:21Z</time>
      </trkpt>
      <trkpt lat="45.54303" lon="5.96558">
        <ele>326.02</ele>
        <time>2012-12-15T13:37:29Z</time>
      </trkpt>
      <trkpt lat="45.54302" lon="5.96561">
        <ele>326.02</ele>
        <time>2012-12-15T13:37:30Z</time>
      </trkpt>
      <trkpt lat="45.54302" lon="5.96566">
        <ele>326.5</ele>
        <time>2012-12-15T13:37:31Z</time>
      </trkpt>
      <trkpt lat="45.54305" lon="5.96604">
        <ele>323.62</ele>
        <time>2012-12-15T13:37:39Z</time>
      </trkpt>
      <trkpt lat="45.54305" lon="5.9661">
        <ele>322.18</ele>
        <time>2012-12-15T13:37:40Z</time>
      </trkpt>
      <trkpt lat="45.54314" lon="5.9665">
        <ele>318.33</ele>
        <time>2012-12-15T13:37:45Z</time>
      </trkpt>
      <trkpt lat="45.54316" lon="5.96659">
        <ele>318.33</ele>
        <time>2012-12-15T13:37:46Z</time>
      </trkpt>
      <trkpt lat="45.54312" lon="5.96693">
        <ele>316.89</ele>
        <time>2012-12-15T13:37:53Z</time>
      </trkpt>
      <trkpt lat="45.54277" lon="5.96706">
        <ele>317.37</ele>
        <time>2012-12-15T13:38:05Z</time>
      </trkpt>
      <trkpt lat="45.54243" lon="5.96719">
        <ele>318.33</ele>
        <time>2012-12-15T13:38:19Z</time>
      </trkpt>
      <trkpt lat="45.54211" lon="5.96731">
        <ele>319.78</ele>
        <time>2012-12-15T13:38:32Z</time>
      </trkpt>
      <trkpt lat="45.54179" lon="5.9674">
        <ele>320.74</ele>
        <time>2012-12-15T13:38:45Z</time>
      </trkpt>
      <trkpt lat="45.54149" lon="5.96749">
        <ele>321.7</ele>
        <time>2012-12-15T13:38:58Z</time>
      </trkpt>
      <trkpt lat="45.5412" lon="5.96759">
        <ele>323.14</ele>
        <time>2012-12-15T13:39:11Z</time>
      </trkpt>
      <trkpt lat="45.54096" lon="5.96778">
        <ele>323.62</ele>
        <time>2012-12-15T13:39:24Z</time>
      </trkpt>
      <trkpt lat="45.54099" lon="5.96807">
        <ele>323.14</ele>
        <time>2012-12-15T13:39:32Z</time>
      </trkpt>
      <trkpt lat="45.54099" lon="5.9681">
        <ele>323.14</ele>
        <time>2012-12-15T13:39:34Z</time>
      </trkpt>
      <trkpt lat="45.54099" lon="5.96812">
        <ele>323.14</ele>
        <time>2012-12-15T13:39:35Z</time>
      </trkpt>
      <trkpt lat="45.541" lon="5.96815">
        <ele>323.14</ele>
        <time>2012-12-15T13:39:36Z</time>
      </trkpt>
      <trkpt lat="45.541" lon="5.96818">
        <ele>323.14</ele>
        <time>2012-12-15T13:39:37Z</time>
      </trkpt>
      <trkpt lat="45.54101" lon="5.96822">
        <ele>322.66</ele>
        <time>2012-12-15T13:39:38Z</time>
      </trkpt>
      <trkpt lat="45.541" lon="5.96826">
        <ele>323.14</ele>
        <time>2012-12-15T13:39:39Z</time>
      </trkpt>
      <trkpt lat="45.54101" lon="5.96866">
        <ele>321.7</ele>
        <time>2012-12-15T13:39:51Z</time>
      </trkpt>
      <trkpt lat="45.541" lon="5.96867">
        <ele>321.7</ele>
        <time>2012-12-15T13:39:59Z</time>
      </trkpt>
      <trkpt lat="45.54101" lon="5.96869">
        <ele>321.7</ele>
        <time>2012-12-15T13:40:00Z</time>
      </trkpt>
      <trkpt lat="45.54102" lon="5.96873">
        <ele>321.7</ele>
        <time>2012-12-15T13:40:01Z</time>
      </trkpt>
      <trkpt lat="45.54104" lon="5.96876">
        <ele>321.7</ele>
        <time>2012-12-15T13:40:02Z</time>
      </trkpt>
      <trkpt lat="45.54107" lon="5.96878">
        <ele>321.22</ele>
        <time>2012-12-15T13:40:03Z</time>
      </trkpt>
      <trkpt lat="45.54111" lon="5.96879">
        <ele>321.7</ele>
        <time>2012-12-15T13:40:04Z</time>
      </trkpt>
      <trkpt lat="45.54114" lon="5.96881">
        <ele>321.7</ele>
        <time>2012-12-15T13:40:05Z</time>
      </trkpt>
      <trkpt lat="45.54163" lon="5.96929">
        <ele>322.18</ele>
        <time>2012-12-15T13:40:21Z</time>
      </trkpt>
      <trkpt lat="45.54196" lon="5.96983">
        <ele>321.22</ele>
        <time>2012-12-15T13:40:32Z</time>
      </trkpt>
      <trkpt lat="45.54198" lon="5.96988">
        <ele>321.22</ele>
        <time>2012-12-15T13:40:33Z</time>
      </trkpt>
      <trkpt lat="45.54168" lon="5.97021">
        <ele>320.74</ele>
        <time>2012-12-15T13:40:44Z</time>
      </trkpt>
      <trkpt lat="45.54164" lon="5.97023">
        <ele>321.22</ele>
        <time>2012-12-15T13:40:45Z</time>
      </trkpt>
      <trkpt lat="45.5416" lon="5.97025">
        <ele>320.74</ele>
        <time>2012-12-15T13:40:46Z</time>
      </trkpt>
      <trkpt lat="45.54157" lon="5.97028">
        <ele>320.74</ele>
        <time>2012-12-15T13:40:47Z</time>
      </trkpt>
      <trkpt lat="45.54154" lon="5.97031">
        <ele>320.74</ele>
        <time>2012-12-15T13:40:48Z</time>
      </trkpt>
      <trkpt lat="45.54151" lon="5.97034">
        <ele>320.74</ele>
        <time>2012-12-15T13:40:49Z</time>
      </trkpt>
      <trkpt lat="45.54121" lon="5.97057">
        <ele>320.74</ele>
        <time>2012-12-15T13:41:01Z</time>
      </trkpt>
      <trkpt lat="45.54087" lon="5.97078">
        <ele>321.22</ele>
        <time>2012-12-15T13:41:15Z</time>
      </trkpt>
      <trkpt lat="45.54052" lon="5.97076">
        <ele>321.22</ele>
        <time>2012-12-15T13:41:28Z</time>
      </trkpt>
      <trkpt lat="45.54018" lon="5.97061">
        <ele>321.7</ele>
        <time>2012-12-15T13:41:42Z</time>
      </trkpt>
      <trkpt lat="45.53982" lon="5.97078">
        <ele>322.18</ele>
        <time>2012-12-15T13:41:57Z</time>
      </trkpt>
      <trkpt lat="45.53941" lon="5.97102">
        <ele>323.14</ele>
        <time>2012-12-15T13:42:14Z</time>
      </trkpt>
      <trkpt lat="45.53899" lon="5.97112">
        <ele>324.1</ele>
        <time>2012-12-15T13:42:31Z</time>
      </trkpt>
      <trkpt lat="45.53861" lon="5.97126">
        <ele>325.06</ele>
        <time>2012-12-15T13:42:46Z</time>
      </trkpt>
      <trkpt lat="45.53828" lon="5.97133">
        <ele>326.5</ele>
        <time>2012-12-15T13:43:01Z</time>
      </trkpt>
      <trkpt lat="45.53799" lon="5.97137">
        <ele>328.43</ele>
        <time>2012-12-15T13:43:15Z</time>
      </trkpt>
      <trkpt lat="45.53772" lon="5.97139">
        <ele>329.87</ele>
        <time>2012-12-15T13:43:28Z</time>
      </trkpt>
      <trkpt lat="45.53742" lon="5.97161">
        <ele>331.31</ele>
        <time>2012-12-15T13:43:43Z</time>
      </trkpt>
      <trkpt lat="45.53709" lon="5.97173">
        <ele>332.75</ele>
        <time>2012-12-15T13:43:58Z</time>
      </trkpt>
      <trkpt lat="45.53684" lon="5.97182">
        <ele>334.2</ele>
        <time>2012-12-15T13:44:10Z</time>
      </trkpt>
      <trkpt lat="45.53644" lon="5.97203">
        <ele>335.16</ele>
        <time>2012-12-15T13:44:28Z</time>
      </trkpt>
      <trkpt lat="45.536" lon="5.97224">
        <ele>336.6</ele>
        <time>2012-12-15T13:44:46Z</time>
      </trkpt>
      <trkpt lat="45.53561" lon="5.97232">
        <ele>337.56</ele>
        <time>2012-12-15T13:45:01Z</time>
      </trkpt>
      <trkpt lat="45.53552" lon="5.97235">
        <ele>338.04</ele>
        <time>2012-12-15T13:45:12Z</time>
      </trkpt>
      <trkpt lat="45.53552" lon="5.97235">
        <ele>338.52</ele>
        <time>2012-12-15T13:45:46Z</time>
      </trkpt>
      <trkpt lat="45.53552" lon="5.97235">
        <ele>337.56</ele>
        <time>2012-12-15T13:46:10Z</time>
      </trkpt>
      <trkpt lat="45.53548" lon="5.97238">
        <ele>337.56</ele>
        <time>2012-12-15T13:46:15Z</time>
      </trkpt>
      <trkpt lat="45.53547" lon="5.97239">
        <ele>337.56</ele>
        <time>2012-12-15T13:46:16Z</time>
      </trkpt>
      <trkpt lat="45.53544" lon="5.9724">
        <ele>337.56</ele>
        <time>2012-12-15T13:46:17Z</time>
      </trkpt>
      <trkpt lat="45.53542" lon="5.97242">
        <ele>337.56</ele>
        <time>2012-12-15T13:46:18Z</time>
      </trkpt>
      <trkpt lat="45.53539" lon="5.97244">
        <ele>337.56</ele>
        <time>2012-12-15T13:46:19Z</time>
      </trkpt>
      <trkpt lat="45.53537" lon="5.97245">
        <ele>337.56</ele>
        <time>2012-12-15T13:46:20Z</time>
      </trkpt>
      <trkpt lat="45.53534" lon="5.97247">
        <ele>337.56</ele>
        <time>2012-12-15T13:46:21Z</time>
      </trkpt>
      <trkpt lat="45.53531" lon="5.97249">
        <ele>337.56</ele>
        <time>2012-12-15T13:46:22Z</time>
      </trkpt>
      <trkpt lat="45.53528" lon="5.97252">
        <ele>337.56</ele>
        <time>2012-12-15T13:46:23Z</time>
      </trkpt>
      <trkpt lat="45.53483" lon="5.97287">
        <ele>336.6</ele>
        <time>2012-12-15T13:46:39Z</time>
      </trkpt>
      <trkpt lat="45.53437" lon="5.97329">
        <ele>335.16</ele>
        <time>2012-12-15T13:46:55Z</time>
      </trkpt>
      <trkpt lat="45.53413" lon="5.97357">
        <ele>332.75</ele>
        <time>2012-12-15T13:47:02Z</time>
      </trkpt>
      <trkpt lat="45.53384" lon="5.9739">
        <ele>330.35</ele>
        <time>2012-12-15T13:47:13Z</time>
      </trkpt>
      <trkpt lat="45.53381" lon="5.97393">
        <ele>330.35</ele>
        <time>2012-12-15T13:47:14Z</time>
      </trkpt>
      <trkpt lat="45.5337" lon="5.97401">
        <ele>329.39</ele>
        <time>2012-12-15T13:47:17Z</time>
      </trkpt>
      <trkpt lat="45.53319" lon="5.97424">
        <ele>329.39</ele>
        <time>2012-12-15T13:47:32Z</time>
      </trkpt>
      <trkpt lat="45.53276" lon="5.9745">
        <ele>329.39</ele>
        <time>2012-12-15T13:47:46Z</time>
      </trkpt>
      <trkpt lat="45.53236" lon="5.97473">
        <ele>330.83</ele>
        <time>2012-12-15T13:48:01Z</time>
      </trkpt>
      <trkpt lat="45.53202" lon="5.97505">
        <ele>328.43</ele>
        <time>2012-12-15T13:48:13Z</time>
      </trkpt>
      <trkpt lat="45.53194" lon="5.97537">
        <ele>326.99</ele>
        <time>2012-12-15T13:48:22Z</time>
      </trkpt>
      <trkpt lat="45.53212" lon="5.97606">
        <ele>326.5</ele>
        <time>2012-12-15T13:48:36Z</time>
      </trkpt>
      <trkpt lat="45.53228" lon="5.9769">
        <ele>326.5</ele>
        <time>2012-12-15T13:48:54Z</time>
      </trkpt>
      <trkpt lat="45.5325" lon="5.9774">
        <ele>327.47</ele>
        <time>2012-12-15T13:49:09Z</time>
      </trkpt>
      <trkpt lat="45.53282" lon="5.97741">
        <ele>327.47</ele>
        <time>2012-12-15T13:49:21Z</time>
      </trkpt>
      <trkpt lat="45.53296" lon="5.97775">
        <ele>327.47</ele>
        <time>2012-12-15T13:49:31Z</time>
      </trkpt>
      <trkpt lat="45.53309" lon="5.97815">
        <ele>329.39</ele>
        <time>2012-12-15T13:49:44Z</time>
      </trkpt>
      <trkpt lat="45.53337" lon="5.9784">
        <ele>331.31</ele>
        <time>2012-12-15T13:49:58Z</time>
      </trkpt>
      <trkpt lat="45.53365" lon="5.97857">
        <ele>331.79</ele>
        <time>2012-12-15T13:50:10Z</time>
      </trkpt>
      <trkpt lat="45.53398" lon="5.97897">
        <ele>329.39</ele>
        <time>2012-12-15T13:50:21Z</time>
      </trkpt>
      <trkpt lat="45.53412" lon="5.97942">
        <ele>329.39</ele>
        <time>2012-12-15T13:50:33Z</time>
      </trkpt>
      <trkpt lat="45.53411" lon="5.97944">
        <ele>329.87</ele>
        <time>2012-12-15T13:50:34Z</time>
      </trkpt>
      <trkpt lat="45.53411" lon="5.97947">
        <ele>329.87</ele>
        <time>2012-12-15T13:50:35Z</time>
      </trkpt>
      <trkpt lat="45.53399" lon="5.9801">
        <ele>331.79</ele>
        <time>2012-12-15T13:50:50Z</time>
      </trkpt>
      <trkpt lat="45.53403" lon="5.98074">
        <ele>334.2</ele>
        <time>2012-12-15T13:51:05Z</time>
      </trkpt>
      <trkpt lat="45.53399" lon="5.98139">
        <ele>337.08</ele>
        <time>2012-12-15T13:51:22Z</time>
      </trkpt>
      <trkpt lat="45.53384" lon="5.9818">
        <ele>339</ele>
        <time>2012-12-15T13:51:34Z</time>
      </trkpt>
      <trkpt lat="45.53376" lon="5.98254">
        <ele>339.96</ele>
        <time>2012-12-15T13:51:50Z</time>
      </trkpt>
      <trkpt lat="45.53397" lon="5.98267">
        <ele>339</ele>
        <time>2012-12-15T13:52:00Z</time>
      </trkpt>
      <trkpt lat="45.53436" lon="5.98243">
        <ele>339</ele>
        <time>2012-12-15T13:52:12Z</time>
      </trkpt>
      <trkpt lat="45.5344" lon="5.98245">
        <ele>339.96</ele>
        <time>2012-12-15T13:52:15Z</time>
      </trkpt>
      <trkpt lat="45.53443" lon="5.98284">
        <ele>340.44</ele>
        <time>2012-12-15T13:52:28Z</time>
      </trkpt>
      <trkpt lat="45.53449" lon="5.98309">
        <ele>344.29</ele>
        <time>2012-12-15T13:52:40Z</time>
      </trkpt>
      <trkpt lat="45.53449" lon="5.9831">
        <ele>344.29</ele>
        <time>2012-12-15T13:52:41Z</time>
      </trkpt>
      <trkpt lat="45.53443" lon="5.98328">
        <ele>347.65</ele>
        <time>2012-12-15T13:52:53Z</time>
      </trkpt>
      <trkpt lat="45.53437" lon="5.98338">
        <ele>349.1</ele>
        <time>2012-12-15T13:53:00Z</time>
      </trkpt>
      <trkpt lat="45.53419" lon="5.9835">
        <ele>350.54</ele>
        <time>2012-12-15T13:53:13Z</time>
      </trkpt>
      <trkpt lat="45.53403" lon="5.98359">
        <ele>352.94</ele>
        <time>2012-12-15T13:53:25Z</time>
      </trkpt>
      <trkpt lat="45.53398" lon="5.98369">
        <ele>355.34</ele>
        <time>2012-12-15T13:53:39Z</time>
      </trkpt>
      <trkpt lat="45.534" lon="5.98386">
        <ele>357.75</ele>
        <time>2012-12-15T13:53:55Z</time>
      </trkpt>
      <trkpt lat="45.53394" lon="5.98394">
        <ele>358.23</ele>
        <time>2012-12-15T13:54:09Z</time>
      </trkpt>
      <trkpt lat="45.53392" lon="5.98399">
        <ele>358.71</ele>
        <time>2012-12-15T13:54:12Z</time>
      </trkpt>
      <trkpt lat="45.53387" lon="5.9841">
        <ele>357.27</ele>
        <time>2012-12-15T13:54:17Z</time>
      </trkpt>
      <trkpt lat="45.53375" lon="5.98444">
        <ele>353.42</ele>
        <time>2012-12-15T13:54:25Z</time>
      </trkpt>
      <trkpt lat="45.53371" lon="5.98456">
        <ele>351.98</ele>
        <time>2012-12-15T13:54:27Z</time>
      </trkpt>
      <trkpt lat="45.53368" lon="5.9847">
        <ele>351.5</ele>
        <time>2012-12-15T13:54:29Z</time>
      </trkpt>
      <trkpt lat="45.53363" lon="5.98482">
        <ele>351.02</ele>
        <time>2012-12-15T13:54:31Z</time>
      </trkpt>
      <trkpt lat="45.53353" lon="5.98517">
        <ele>351.98</ele>
        <time>2012-12-15T13:54:40Z</time>
      </trkpt>
      <trkpt lat="45.53343" lon="5.98546">
        <ele>355.34</ele>
        <time>2012-12-15T13:54:51Z</time>
      </trkpt>
      <trkpt lat="45.53317" lon="5.98591">
        <ele>354.86</ele>
        <time>2012-12-15T13:55:05Z</time>
      </trkpt>
      <trkpt lat="45.53315" lon="5.98598">
        <ele>353.9</ele>
        <time>2012-12-15T13:55:06Z</time>
      </trkpt>
      <trkpt lat="45.53315" lon="5.98605">
        <ele>353.9</ele>
        <time>2012-12-15T13:55:07Z</time>
      </trkpt>
      <trkpt lat="45.53315" lon="5.98611">
        <ele>353.42</ele>
        <time>2012-12-15T13:55:08Z</time>
      </trkpt>
      <trkpt lat="45.53317" lon="5.98618">
        <ele>353.9</ele>
        <time>2012-12-15T13:55:09Z</time>
      </trkpt>
      <trkpt lat="45.53318" lon="5.98624">
        <ele>353.42</ele>
        <time>2012-12-15T13:55:10Z</time>
      </trkpt>
      <trkpt lat="45.5332" lon="5.9863">
        <ele>353.42</ele>
        <time>2012-12-15T13:55:11Z</time>
      </trkpt>
      <trkpt lat="45.53334" lon="5.98672">
        <ele>352.46</ele>
        <time>2012-12-15T13:55:18Z</time>
      </trkpt>
      <trkpt lat="45.53337" lon="5.98677">
        <ele>352.46</ele>
        <time>2012-12-15T13:55:19Z</time>
      </trkpt>
      <trkpt lat="45.53341" lon="5.9868">
        <ele>351.98</ele>
        <time>2012-12-15T13:55:20Z</time>
      </trkpt>
      <trkpt lat="45.53346" lon="5.98681">
        <ele>351.98</ele>
        <time>2012-12-15T13:55:21Z</time>
      </trkpt>
      <trkpt lat="45.5335" lon="5.9868">
        <ele>351.5</ele>
        <time>2012-12-15T13:55:22Z</time>
      </trkpt>
      <trkpt lat="45.53354" lon="5.98677">
        <ele>351.98</ele>
        <time>2012-12-15T13:55:23Z</time>
      </trkpt>
      <trkpt lat="45.53358" lon="5.98675">
        <ele>351.98</ele>
        <time>2012-12-15T13:55:24Z</time>
      </trkpt>
      <trkpt lat="45.53393" lon="5.98677">
        <ele>352.94</ele>
        <time>2012-12-15T13:55:35Z</time>
      </trkpt>
      <trkpt lat="45.5341" lon="5.98722">
        <ele>355.83</ele>
        <time>2012-12-15T13:55:48Z</time>
      </trkpt>
      <trkpt lat="45.53423" lon="5.98779">
        <ele>357.75</ele>
        <time>2012-12-15T13:56:03Z</time>
      </trkpt>
      <trkpt lat="45.53428" lon="5.98819">
        <ele>358.71</ele>
        <time>2012-12-15T13:56:14Z</time>
      </trkpt>
      <trkpt lat="45.5346" lon="5.98852">
        <ele>361.59</ele>
        <time>2012-12-15T13:56:31Z</time>
      </trkpt>
      <trkpt lat="45.53488" lon="5.98856">
        <ele>364</ele>
        <time>2012-12-15T13:56:44Z</time>
      </trkpt>
      <trkpt lat="45.53489" lon="5.98859">
        <ele>364</ele>
        <time>2012-12-15T13:56:45Z</time>
      </trkpt>
      <trkpt lat="45.53496" lon="5.98912">
        <ele>365.92</ele>
        <time>2012-12-15T13:57:00Z</time>
      </trkpt>
      <trkpt lat="45.53509" lon="5.98968">
        <ele>365.92</ele>
        <time>2012-12-15T13:57:14Z</time>
      </trkpt>
      <trkpt lat="45.53516" lon="5.98992">
        <ele>362.55</ele>
        <time>2012-12-15T13:57:21Z</time>
      </trkpt>
      <trkpt lat="45.53524" lon="5.99004">
        <ele>358.71</ele>
        <time>2012-12-15T13:57:25Z</time>
      </trkpt>
      <trkpt lat="45.53526" lon="5.99007">
        <ele>358.71</ele>
        <time>2012-12-15T13:57:26Z</time>
      </trkpt>
      <trkpt lat="45.5353" lon="5.99014">
        <ele>356.79</ele>
        <time>2012-12-15T13:57:29Z</time>
      </trkpt>
      <trkpt lat="45.5353" lon="5.99016">
        <ele>356.31</ele>
        <time>2012-12-15T13:57:30Z</time>
      </trkpt>
      <trkpt lat="45.5353" lon="5.99018">
        <ele>356.31</ele>
        <time>2012-12-15T13:57:31Z</time>
      </trkpt>
      <trkpt lat="45.53529" lon="5.9902">
        <ele>355.34</ele>
        <time>2012-12-15T13:57:32Z</time>
      </trkpt>
      <trkpt lat="45.53527" lon="5.99022">
        <ele>354.86</ele>
        <time>2012-12-15T13:57:33Z</time>
      </trkpt>
      <trkpt lat="45.53525" lon="5.99024">
        <ele>353.42</ele>
        <time>2012-12-15T13:57:34Z</time>
      </trkpt>
      <trkpt lat="45.53523" lon="5.99026">
        <ele>352.94</ele>
        <time>2012-12-15T13:57:35Z</time>
      </trkpt>
      <trkpt lat="45.5352" lon="5.99027">
        <ele>352.46</ele>
        <time>2012-12-15T13:57:36Z</time>
      </trkpt>
      <trkpt lat="45.53517" lon="5.99029">
        <ele>351.5</ele>
        <time>2012-12-15T13:57:37Z</time>
      </trkpt>
      <trkpt lat="45.53514" lon="5.9903">
        <ele>351.02</ele>
        <time>2012-12-15T13:57:38Z</time>
      </trkpt>
      <trkpt lat="45.535" lon="5.99035">
        <ele>347.65</ele>
        <time>2012-12-15T13:57:43Z</time>
      </trkpt>
      <trkpt lat="45.53485" lon="5.99039">
        <ele>344.77</ele>
        <time>2012-12-15T13:57:48Z</time>
      </trkpt>
      <trkpt lat="45.53465" lon="5.99038">
        <ele>341.41</ele>
        <time>2012-12-15T13:57:53Z</time>
      </trkpt>
      <trkpt lat="45.53449" lon="5.99034">
        <ele>338.52</ele>
        <time>2012-12-15T13:57:58Z</time>
      </trkpt>
      <trkpt lat="45.53426" lon="5.9905">
        <ele>336.12</ele>
        <time>2012-12-15T13:58:08Z</time>
      </trkpt>
      <trkpt lat="45.53444" lon="5.99066">
        <ele>333.71</ele>
        <time>2012-12-15T13:58:14Z</time>
      </trkpt>
      <trkpt lat="45.5345" lon="5.9907">
        <ele>334.2</ele>
        <time>2012-12-15T13:58:15Z</time>
      </trkpt>
      <trkpt lat="45.53456" lon="5.99074">
        <ele>333.71</ele>
        <time>2012-12-15T13:58:16Z</time>
      </trkpt>
      <trkpt lat="45.53462" lon="5.99078">
        <ele>332.27</ele>
        <time>2012-12-15T13:58:17Z</time>
      </trkpt>
      <trkpt lat="45.53469" lon="5.99082">
        <ele>331.79</ele>
        <time>2012-12-15T13:58:18Z</time>
      </trkpt>
      <trkpt lat="45.53476" lon="5.99085">
        <ele>331.31</ele>
        <time>2012-12-15T13:58:19Z</time>
      </trkpt>
      <trkpt lat="45.53484" lon="5.99088">
        <ele>330.83</ele>
        <time>2012-12-15T13:58:20Z</time>
      </trkpt>
      <trkpt lat="45.53492" lon="5.99091">
        <ele>330.35</ele>
        <time>2012-12-15T13:58:21Z</time>
      </trkpt>
      <trkpt lat="45.53541" lon="5.99108">
        <ele>327.47</ele>
        <time>2012-12-15T13:58:27Z</time>
      </trkpt>
      <trkpt lat="45.53616" lon="5.99135">
        <ele>324.58</ele>
        <time>2012-12-15T13:58:35Z</time>
      </trkpt>
      <trkpt lat="45.53622" lon="5.99139">
        <ele>325.06</ele>
        <time>2012-12-15T13:58:36Z</time>
      </trkpt>
      <trkpt lat="45.53627" lon="5.99144">
        <ele>324.58</ele>
        <time>2012-12-15T13:58:37Z</time>
      </trkpt>
      <trkpt lat="45.53631" lon="5.9915">
        <ele>324.1</ele>
        <time>2012-12-15T13:58:38Z</time>
      </trkpt>
      <trkpt lat="45.53634" lon="5.99155">
        <ele>324.1</ele>
        <time>2012-12-15T13:58:39Z</time>
      </trkpt>
      <trkpt lat="45.53635" lon="5.99161">
        <ele>323.14</ele>
        <time>2012-12-15T13:58:40Z</time>
      </trkpt>
      <trkpt lat="45.53644" lon="5.99187">
        <ele>322.66</ele>
        <time>2012-12-15T13:58:48Z</time>
      </trkpt>
      <trkpt lat="45.53669" lon="5.99202">
        <ele>324.58</ele>
        <time>2012-12-15T13:58:58Z</time>
      </trkpt>
      <trkpt lat="45.53719" lon="5.99174">
        <ele>325.54</ele>
        <time>2012-12-15T13:59:11Z</time>
      </trkpt>
      <trkpt lat="45.53723" lon="5.99172">
        <ele>325.54</ele>
        <time>2012-12-15T13:59:12Z</time>
      </trkpt>
      <trkpt lat="45.53727" lon="5.99169">
        <ele>325.06</ele>
        <time>2012-12-15T13:59:13Z</time>
      </trkpt>
      <trkpt lat="45.53731" lon="5.99167">
        <ele>325.54</ele>
        <time>2012-12-15T13:59:14Z</time>
      </trkpt>
      <trkpt lat="45.53735" lon="5.99165">
        <ele>325.06</ele>
        <time>2012-12-15T13:59:15Z</time>
      </trkpt>
      <trkpt lat="45.53793" lon="5.99134">
        <ele>325.06</ele>
        <time>2012-12-15T13:59:30Z</time>
      </trkpt>
      <trkpt lat="45.53797" lon="5.99133">
        <ele>325.06</ele>
        <time>2012-12-15T13:59:31Z</time>
      </trkpt>
      <trkpt lat="45.53801" lon="5.99135">
        <ele>325.06</ele>
        <time>2012-12-15T13:59:32Z</time>
      </trkpt>
      <trkpt lat="45.53804" lon="5.99137">
        <ele>325.54</ele>
        <time>2012-12-15T13:59:33Z</time>
      </trkpt>
      <trkpt lat="45.53807" lon="5.99141">
        <ele>326.02</ele>
        <time>2012-12-15T13:59:34Z</time>
      </trkpt>
      <trkpt lat="45.53809" lon="5.99146">
        <ele>326.02</ele>
        <time>2012-12-15T13:59:35Z</time>
      </trkpt>
      <trkpt lat="45.53811" lon="5.99152">
        <ele>326.02</ele>
        <time>2012-12-15T13:59:36Z</time>
      </trkpt>
      <trkpt lat="45.53812" lon="5.99157">
        <ele>326.02</ele>
        <time>2012-12-15T13:59:37Z</time>
      </trkpt>
      <trkpt lat="45.5383" lon="5.99233">
        <ele>328.91</ele>
        <time>2012-12-15T13:59:53Z</time>
      </trkpt>
      <trkpt lat="45.53851" lon="5.99291">
        <ele>331.79</ele>
        <time>2012-12-15T14:00:08Z</time>
      </trkpt>
      <trkpt lat="45.53857" lon="5.99304">
        <ele>331.79</ele>
        <time>2012-12-15T14:00:13Z</time>
      </trkpt>
      <trkpt lat="45.53859" lon="5.99305">
        <ele>332.75</ele>
        <time>2012-12-15T14:00:14Z</time>
      </trkpt>
      <trkpt lat="45.5386" lon="5.99306">
        <ele>332.27</ele>
        <time>2012-12-15T14:00:15Z</time>
      </trkpt>
      <trkpt lat="45.53862" lon="5.99306">
        <ele>332.27</ele>
        <time>2012-12-15T14:00:16Z</time>
      </trkpt>
      <trkpt lat="45.53865" lon="5.99306">
        <ele>332.75</ele>
        <time>2012-12-15T14:00:17Z</time>
      </trkpt>
      <trkpt lat="45.53867" lon="5.99307">
        <ele>332.27</ele>
        <time>2012-12-15T14:00:18Z</time>
      </trkpt>
      <trkpt lat="45.53869" lon="5.99309">
        <ele>332.27</ele>
        <time>2012-12-15T14:00:19Z</time>
      </trkpt>
      <trkpt lat="45.53871" lon="5.99312">
        <ele>332.27</ele>
        <time>2012-12-15T14:00:20Z</time>
      </trkpt>
      <trkpt lat="45.53871" lon="5.99316">
        <ele>331.79</ele>
        <time>2012-12-15T14:00:21Z</time>
      </trkpt>
      <trkpt lat="45.53871" lon="5.99319">
        <ele>331.79</ele>
        <time>2012-12-15T14:00:22Z</time>
      </trkpt>
      <trkpt lat="45.53869" lon="5.99322">
        <ele>332.27</ele>
        <time>2012-12-15T14:00:23Z</time>
      </trkpt>
      <trkpt lat="45.53867" lon="5.99325">
        <ele>332.27</ele>
        <time>2012-12-15T14:00:24Z</time>
      </trkpt>
      <trkpt lat="45.53864" lon="5.99328">
        <ele>332.27</ele>
        <time>2012-12-15T14:00:25Z</time>
      </trkpt>
      <trkpt lat="45.53861" lon="5.99332">
        <ele>332.27</ele>
        <time>2012-12-15T14:00:26Z</time>
      </trkpt>
      <trkpt lat="45.53843" lon="5.99387">
        <ele>334.68</ele>
        <time>2012-12-15T14:00:41Z</time>
      </trkpt>
      <trkpt lat="45.5383" lon="5.99439">
        <ele>335.64</ele>
        <time>2012-12-15T14:00:55Z</time>
      </trkpt>
      <trkpt lat="45.53834" lon="5.99502">
        <ele>337.08</ele>
        <time>2012-12-15T14:01:11Z</time>
      </trkpt>
      <trkpt lat="45.53838" lon="5.99553">
        <ele>339.48</ele>
        <time>2012-12-15T14:01:26Z</time>
      </trkpt>
      <trkpt lat="45.53843" lon="5.99599">
        <ele>340.92</ele>
        <time>2012-12-15T14:01:40Z</time>
      </trkpt>
      <trkpt lat="45.53856" lon="5.99654">
        <ele>342.85</ele>
        <time>2012-12-15T14:01:58Z</time>
      </trkpt>
      <trkpt lat="45.53854" lon="5.99673">
        <ele>344.77</ele>
        <time>2012-12-15T14:02:10Z</time>
      </trkpt>
      <trkpt lat="45.53854" lon="5.99674">
        <ele>344.29</ele>
        <time>2012-12-15T14:02:31Z</time>
      </trkpt>
      <trkpt lat="45.53854" lon="5.99674">
        <ele>344.29</ele>
        <time>2012-12-15T14:02:43Z</time>
      </trkpt>
      <trkpt lat="45.53855" lon="5.99676">
        <ele>344.29</ele>
        <time>2012-12-15T14:02:46Z</time>
      </trkpt>
      <trkpt lat="45.53856" lon="5.99679">
        <ele>344.77</ele>
        <time>2012-12-15T14:02:47Z</time>
      </trkpt>
      <trkpt lat="45.53856" lon="5.99681">
        <ele>344.77</ele>
        <time>2012-12-15T14:02:48Z</time>
      </trkpt>
      <trkpt lat="45.53857" lon="5.99712">
        <ele>346.21</ele>
        <time>2012-12-15T14:03:00Z</time>
      </trkpt>
      <trkpt lat="45.53856" lon="5.99733">
        <ele>347.17</ele>
        <time>2012-12-15T14:03:08Z</time>
      </trkpt>
      <trkpt lat="45.53855" lon="5.99735">
        <ele>346.69</ele>
        <time>2012-12-15T14:03:09Z</time>
      </trkpt>
      <trkpt lat="45.53854" lon="5.99738">
        <ele>347.65</ele>
        <time>2012-12-15T14:03:10Z</time>
      </trkpt>
      <trkpt lat="45.53854" lon="5.9974">
        <ele>347.17</ele>
        <time>2012-12-15T14:03:11Z</time>
      </trkpt>
      <trkpt lat="45.53854" lon="5.99743">
        <ele>347.65</ele>
        <time>2012-12-15T14:03:12Z</time>
      </trkpt>
      <trkpt lat="45.53854" lon="5.99745">
        <ele>347.65</ele>
        <time>2012-12-15T14:03:13Z</time>
      </trkpt>
      <trkpt lat="45.53854" lon="5.99747">
        <ele>348.13</ele>
        <time>2012-12-15T14:03:14Z</time>
      </trkpt>
      <trkpt lat="45.53854" lon="5.9975">
        <ele>348.13</ele>
        <time>2012-12-15T14:03:15Z</time>
      </trkpt>
      <trkpt lat="45.53855" lon="5.99752">
        <ele>348.13</ele>
        <time>2012-12-15T14:03:16Z</time>
      </trkpt>
      <trkpt lat="45.53855" lon="5.99755">
        <ele>348.13</ele>
        <time>2012-12-15T14:03:17Z</time>
      </trkpt>
      <trkpt lat="45.53856" lon="5.99757">
        <ele>348.62</ele>
        <time>2012-12-15T14:03:18Z</time>
      </trkpt>
      <trkpt lat="45.53857" lon="5.99759">
        <ele>349.1</ele>
        <time>2012-12-15T14:03:19Z</time>
      </trkpt>
      <trkpt lat="45.53858" lon="5.99761">
        <ele>349.1</ele>
        <time>2012-12-15T14:03:20Z</time>
      </trkpt>
      <trkpt lat="45.53869" lon="5.99777">
        <ele>350.54</ele>
        <time>2012-12-15T14:03:32Z</time>
      </trkpt>
      <trkpt lat="45.53869" lon="5.99778">
        <ele>350.06</ele>
        <time>2012-12-15T14:03:40Z</time>
      </trkpt>
      <trkpt lat="45.53869" lon="5.99779">
        <ele>351.02</ele>
        <time>2012-12-15T14:03:50Z</time>
      </trkpt>
      <trkpt lat="45.53867" lon="5.99783">
        <ele>351.5</ele>
        <time>2012-12-15T14:03:53Z</time>
      </trkpt>
      <trkpt lat="45.53866" lon="5.99785">
        <ele>350.54</ele>
        <time>2012-12-15T14:03:54Z</time>
      </trkpt>
      <trkpt lat="45.53866" lon="5.99793">
        <ele>351.5</ele>
        <time>2012-12-15T14:03:59Z</time>
      </trkpt>
      <trkpt lat="45.53867" lon="5.99809">
        <ele>351.98</ele>
        <time>2012-12-15T14:04:12Z</time>
      </trkpt>
      <trkpt lat="45.53867" lon="5.99816">
        <ele>351.5</ele>
        <time>2012-12-15T14:04:29Z</time>
      </trkpt>
      <trkpt lat="45.53867" lon="5.99818">
        <ele>351.5</ele>
        <time>2012-12-15T14:04:30Z</time>
      </trkpt>
      <trkpt lat="45.53867" lon="5.9982">
        <ele>351.98</ele>
        <time>2012-12-15T14:04:31Z</time>
      </trkpt>
      <trkpt lat="45.53867" lon="5.99823">
        <ele>351.98</ele>
        <time>2012-12-15T14:04:32Z</time>
      </trkpt>
      <trkpt lat="45.53867" lon="5.99825">
        <ele>352.46</ele>
        <time>2012-12-15T14:04:33Z</time>
      </trkpt>
      <trkpt lat="45.53866" lon="5.99828">
        <ele>352.94</ele>
        <time>2012-12-15T14:04:34Z</time>
      </trkpt>
      <trkpt lat="45.53866" lon="5.9983">
        <ele>352.94</ele>
        <time>2012-12-15T14:04:35Z</time>
      </trkpt>
      <trkpt lat="45.53866" lon="5.99832">
        <ele>352.94</ele>
        <time>2012-12-15T14:04:36Z</time>
      </trkpt>
      <trkpt lat="45.53866" lon="5.99835">
        <ele>352.94</ele>
        <time>2012-12-15T14:04:37Z</time>
      </trkpt>
      <trkpt lat="45.53867" lon="5.99838">
        <ele>352.94</ele>
        <time>2012-12-15T14:04:38Z</time>
      </trkpt>
      <trkpt lat="45.53868" lon="5.9984">
        <ele>352.94</ele>
        <time>2012-12-15T14:04:39Z</time>
      </trkpt>
      <trkpt lat="45.53869" lon="5.99843">
        <ele>352.94</ele>
        <time>2012-12-15T14:04:40Z</time>
      </trkpt>
      <trkpt lat="45.53882" lon="5.99867">
        <ele>355.83</ele>
        <time>2012-12-15T14:04:54Z</time>
      </trkpt>
      <trkpt lat="45.53883" lon="5.99871">
        <ele>355.83</ele>
        <time>2012-12-15T14:04:59Z</time>
      </trkpt>
      <trkpt lat="45.53884" lon="5.99873">
        <ele>355.34</ele>
        <time>2012-12-15T14:05:00Z</time>
      </trkpt>
      <trkpt lat="45.53885" lon="5.99874">
        <ele>355.83</ele>
        <time>2012-12-15T14:05:01Z</time>
      </trkpt>
      <trkpt lat="45.53891" lon="5.99888">
        <ele>356.31</ele>
        <time>2012-12-15T14:05:15Z</time>
      </trkpt>
      <trkpt lat="45.53892" lon="5.99889">
        <ele>355.83</ele>
        <time>2012-12-15T14:05:33Z</time>
      </trkpt>
      <trkpt lat="45.53895" lon="5.999">
        <ele>356.79</ele>
        <time>2012-12-15T14:05:43Z</time>
      </trkpt>
      <trkpt lat="45.53895" lon="5.99902">
        <ele>356.79</ele>
        <time>2012-12-15T14:05:44Z</time>
      </trkpt>
      <trkpt lat="45.53896" lon="5.99903">
        <ele>356.31</ele>
        <time>2012-12-15T14:05:45Z</time>
      </trkpt>
      <trkpt lat="45.539" lon="5.9991">
        <ele>357.75</ele>
        <time>2012-12-15T14:05:58Z</time>
      </trkpt>
      <trkpt lat="45.53906" lon="5.99922">
        <ele>359.19</ele>
        <time>2012-12-15T14:06:10Z</time>
      </trkpt>
      <trkpt lat="45.53914" lon="5.99933">
        <ele>362.07</ele>
        <time>2012-12-15T14:06:24Z</time>
      </trkpt>
      <trkpt lat="45.5392" lon="5.9994">
        <ele>364.48</ele>
        <time>2012-12-15T14:06:35Z</time>
      </trkpt>
      <trkpt lat="45.53921" lon="5.99941">
        <ele>364.96</ele>
        <time>2012-12-15T14:06:36Z</time>
      </trkpt>
      <trkpt lat="45.53923" lon="5.99942">
        <ele>365.44</ele>
        <time>2012-12-15T14:06:39Z</time>
      </trkpt>
      <trkpt lat="45.53936" lon="5.9995">
        <ele>367.36</ele>
        <time>2012-12-15T14:06:54Z</time>
      </trkpt>
      <trkpt lat="45.53947" lon="5.99955">
        <ele>368.32</ele>
        <time>2012-12-15T14:07:08Z</time>
      </trkpt>
      <trkpt lat="45.5395" lon="5.9996">
        <ele>368.32</ele>
        <time>2012-12-15T14:07:11Z</time>
      </trkpt>
      <trkpt lat="45.53951" lon="5.99962">
        <ele>367.84</ele>
        <time>2012-12-15T14:07:12Z</time>
      </trkpt>
      <trkpt lat="45.53951" lon="5.99965">
        <ele>368.32</ele>
        <time>2012-12-15T14:07:13Z</time>
      </trkpt>
      <trkpt lat="45.53952" lon="5.99967">
        <ele>368.8</ele>
        <time>2012-12-15T14:07:14Z</time>
      </trkpt>
      <trkpt lat="45.53953" lon="5.9997">
        <ele>368.8</ele>
        <time>2012-12-15T14:07:15Z</time>
      </trkpt>
      <trkpt lat="45.53954" lon="5.99972">
        <ele>368.8</ele>
        <time>2012-12-15T14:07:16Z</time>
      </trkpt>
      <trkpt lat="45.53954" lon="5.99975">
        <ele>369.28</ele>
        <time>2012-12-15T14:07:17Z</time>
      </trkpt>
      <trkpt lat="45.53955" lon="5.99977">
        <ele>369.28</ele>
        <time>2012-12-15T14:07:18Z</time>
      </trkpt>
      <trkpt lat="45.53955" lon="5.99979">
        <ele>369.76</ele>
        <time>2012-12-15T14:07:19Z</time>
      </trkpt>
      <trkpt lat="45.53964" lon="6.00005">
        <ele>373.13</ele>
        <time>2012-12-15T14:07:31Z</time>
      </trkpt>
      <trkpt lat="45.53973" lon="6.0003">
        <ele>375.05</ele>
        <time>2012-12-15T14:07:44Z</time>
      </trkpt>
      <trkpt lat="45.53976" lon="6.00044">
        <ele>376.01</ele>
        <time>2012-12-15T14:07:51Z</time>
      </trkpt>
      <trkpt lat="45.53982" lon="6.00057">
        <ele>376.97</ele>
        <time>2012-12-15T14:07:59Z</time>
      </trkpt>
      <trkpt lat="45.53989" lon="6.00088">
        <ele>379.86</ele>
        <time>2012-12-15T14:08:14Z</time>
      </trkpt>
      <trkpt lat="45.53998" lon="6.00114">
        <ele>381.78</ele>
        <time>2012-12-15T14:08:28Z</time>
      </trkpt>
      <trkpt lat="45.53999" lon="6.00115">
        <ele>381.78</ele>
        <time>2012-12-15T14:08:29Z</time>
      </trkpt>
      <trkpt lat="45.54011" lon="6.0015">
        <ele>384.66</ele>
        <time>2012-12-15T14:08:45Z</time>
      </trkpt>
      <trkpt lat="45.54025" lon="6.00162">
        <ele>387.07</ele>
        <time>2012-12-15T14:08:57Z</time>
      </trkpt>
      <trkpt lat="45.54039" lon="6.00174">
        <ele>388.03</ele>
        <time>2012-12-15T14:09:08Z</time>
      </trkpt>
      <trkpt lat="45.5406" lon="6.00198">
        <ele>389.95</ele>
        <time>2012-12-15T14:09:24Z</time>
      </trkpt>
      <trkpt lat="45.54068" lon="6.0021">
        <ele>392.36</ele>
        <time>2012-12-15T14:09:32Z</time>
      </trkpt>
      <trkpt lat="45.54085" lon="6.00235">
        <ele>393.8</ele>
        <time>2012-12-15T14:09:46Z</time>
      </trkpt>
      <trkpt lat="45.5411" lon="6.00251">
        <ele>395.24</ele>
        <time>2012-12-15T14:10:00Z</time>
      </trkpt>
      <trkpt lat="45.54128" lon="6.00258">
        <ele>398.6</ele>
        <time>2012-12-15T14:10:13Z</time>
      </trkpt>
      <trkpt lat="45.54142" lon="6.00277">
        <ele>401.01</ele>
        <time>2012-12-15T14:10:26Z</time>
      </trkpt>
      <trkpt lat="45.5415" lon="6.00307">
        <ele>401.97</ele>
        <time>2012-12-15T14:10:38Z</time>
      </trkpt>
      <trkpt lat="45.54168" lon="6.00328">
        <ele>403.89</ele>
        <time>2012-12-15T14:10:52Z</time>
      </trkpt>
      <trkpt lat="45.54173" lon="6.00331">
        <ele>404.37</ele>
        <time>2012-12-15T14:10:55Z</time>
      </trkpt>
      <trkpt lat="45.54164" lon="6.0035">
        <ele>405.81</ele>
        <time>2012-12-15T14:11:05Z</time>
      </trkpt>
      <trkpt lat="45.54161" lon="6.00352">
        <ele>405.81</ele>
        <time>2012-12-15T14:11:07Z</time>
      </trkpt>
      <trkpt lat="45.54139" lon="6.00373">
        <ele>408.22</ele>
        <time>2012-12-15T14:11:21Z</time>
      </trkpt>
      <trkpt lat="45.54125" lon="6.00395">
        <ele>411.58</ele>
        <time>2012-12-15T14:11:34Z</time>
      </trkpt>
      <trkpt lat="45.54106" lon="6.00416">
        <ele>413.5</ele>
        <time>2012-12-15T14:11:48Z</time>
      </trkpt>
      <trkpt lat="45.54088" lon="6.00447">
        <ele>416.39</ele>
        <time>2012-12-15T14:12:04Z</time>
      </trkpt>
      <trkpt lat="45.54091" lon="6.00487">
        <ele>418.79</ele>
        <time>2012-12-15T14:12:20Z</time>
      </trkpt>
      <trkpt lat="45.54092" lon="6.00506">
        <ele>421.19</ele>
        <time>2012-12-15T14:12:29Z</time>
      </trkpt>
      <trkpt lat="45.54065" lon="6.00512">
        <ele>419.75</ele>
        <time>2012-12-15T14:12:40Z</time>
      </trkpt>
      <trkpt lat="45.5406" lon="6.00511">
        <ele>419.75</ele>
        <time>2012-12-15T14:12:41Z</time>
      </trkpt>
      <trkpt lat="45.54039" lon="6.00511">
        <ele>417.83</ele>
        <time>2012-12-15T14:12:45Z</time>
      </trkpt>
      <trkpt lat="45.54033" lon="6.0051">
        <ele>417.83</ele>
        <time>2012-12-15T14:12:46Z</time>
      </trkpt>
      <trkpt lat="45.53998" lon="6.00508">
        <ele>415.43</ele>
        <time>2012-12-15T14:12:52Z</time>
      </trkpt>
      <trkpt lat="45.53969" lon="6.00516">
        <ele>414.95</ele>
        <time>2012-12-15T14:13:02Z</time>
      </trkpt>
      <trkpt lat="45.5393" lon="6.00526">
        <ele>415.91</ele>
        <time>2012-12-15T14:13:16Z</time>
      </trkpt>
      <trkpt lat="45.53894" lon="6.00528">
        <ele>417.83</ele>
        <time>2012-12-15T14:13:31Z</time>
      </trkpt>
      <trkpt lat="45.53863" lon="6.00529">
        <ele>421.19</ele>
        <time>2012-12-15T14:13:47Z</time>
      </trkpt>
      <trkpt lat="45.5384" lon="6.0054">
        <ele>422.64</ele>
        <time>2012-12-15T14:14:00Z</time>
      </trkpt>
      <trkpt lat="45.5381" lon="6.00552">
        <ele>425.04</ele>
        <time>2012-12-15T14:14:18Z</time>
      </trkpt>
      <trkpt lat="45.53788" lon="6.00545">
        <ele>426.48</ele>
        <time>2012-12-15T14:14:32Z</time>
      </trkpt>
      <trkpt lat="45.53753" lon="6.00539">
        <ele>428.4</ele>
        <time>2012-12-15T14:14:51Z</time>
      </trkpt>
      <trkpt lat="45.53717" lon="6.00538">
        <ele>428.89</ele>
        <time>2012-12-15T14:15:08Z</time>
      </trkpt>
      <trkpt lat="45.5368" lon="6.00542">
        <ele>430.33</ele>
        <time>2012-12-15T14:15:25Z</time>
      </trkpt>
      <trkpt lat="45.53651" lon="6.0055">
        <ele>431.29</ele>
        <time>2012-12-15T14:15:41Z</time>
      </trkpt>
      <trkpt lat="45.53622" lon="6.00556">
        <ele>433.69</ele>
        <time>2012-12-15T14:15:58Z</time>
      </trkpt>
      <trkpt lat="45.53595" lon="6.0056">
        <ele>435.13</ele>
        <time>2012-12-15T14:16:14Z</time>
      </trkpt>
      <trkpt lat="45.53561" lon="6.00567">
        <ele>436.58</ele>
        <time>2012-12-15T14:16:33Z</time>
      </trkpt>
      <trkpt lat="45.53524" lon="6.00574">
        <ele>438.02</ele>
        <time>2012-12-15T14:16:52Z</time>
      </trkpt>
      <trkpt lat="45.53493" lon="6.00576">
        <ele>439.94</ele>
        <time>2012-12-15T14:17:09Z</time>
      </trkpt>
      <trkpt lat="45.53485" lon="6.00575">
        <ele>440.9</ele>
        <time>2012-12-15T14:17:14Z</time>
      </trkpt>
      <trkpt lat="45.5346" lon="6.00582">
        <ele>442.82</ele>
        <time>2012-12-15T14:17:31Z</time>
      </trkpt>
      <trkpt lat="45.53422" lon="6.00594">
        <ele>440.42</ele>
        <time>2012-12-15T14:17:44Z</time>
      </trkpt>
      <trkpt lat="45.53353" lon="6.00591">
        <ele>437.54</ele>
        <time>2012-12-15T14:17:59Z</time>
      </trkpt>
      <trkpt lat="45.53341" lon="6.00589">
        <ele>436.1</ele>
        <time>2012-12-15T14:18:01Z</time>
      </trkpt>
      <trkpt lat="45.53285" lon="6.00584">
        <ele>433.21</ele>
        <time>2012-12-15T14:18:10Z</time>
      </trkpt>
      <trkpt lat="45.5328" lon="6.00583">
        <ele>432.25</ele>
        <time>2012-12-15T14:18:11Z</time>
      </trkpt>
      <trkpt lat="45.53244" lon="6.00576">
        <ele>434.17</ele>
        <time>2012-12-15T14:18:22Z</time>
      </trkpt>
      <trkpt lat="45.53206" lon="6.00566">
        <ele>432.73</ele>
        <time>2012-12-15T14:18:35Z</time>
      </trkpt>
      <trkpt lat="45.53173" lon="6.00542">
        <ele>433.69</ele>
        <time>2012-12-15T14:18:48Z</time>
      </trkpt>
      <trkpt lat="45.53141" lon="6.0051">
        <ele>434.17</ele>
        <time>2012-12-15T14:19:04Z</time>
      </trkpt>
      <trkpt lat="45.5312" lon="6.0048">
        <ele>435.61</ele>
        <time>2012-12-15T14:19:17Z</time>
      </trkpt>
      <trkpt lat="45.53124" lon="6.00458">
        <ele>438.02</ele>
        <time>2012-12-15T14:19:29Z</time>
      </trkpt>
      <trkpt lat="45.53135" lon="6.00445">
        <ele>440.42</ele>
        <time>2012-12-15T14:19:40Z</time>
      </trkpt>
      <trkpt lat="45.53118" lon="6.00416">
        <ele>441.86</ele>
        <time>2012-12-15T14:19:55Z</time>
      </trkpt>
      <trkpt lat="45.53094" lon="6.00387">
        <ele>441.86</ele>
        <time>2012-12-15T14:20:10Z</time>
      </trkpt>
      <trkpt lat="45.53071" lon="6.00358">
        <ele>442.34</ele>
        <time>2012-12-15T14:20:24Z</time>
      </trkpt>
      <trkpt lat="45.5306" lon="6.00339">
        <ele>442.82</ele>
        <time>2012-12-15T14:20:34Z</time>
      </trkpt>
      <trkpt lat="45.53052" lon="6.00325">
        <ele>445.71</ele>
        <time>2012-12-15T14:20:44Z</time>
      </trkpt>
      <trkpt lat="45.53049" lon="6.00317">
        <ele>447.63</ele>
        <time>2012-12-15T14:20:49Z</time>
      </trkpt>
      <trkpt lat="45.53047" lon="6.00303">
        <ele>450.52</ele>
        <time>2012-12-15T14:20:58Z</time>
      </trkpt>
      <trkpt lat="45.53045" lon="6.00301">
        <ele>451</ele>
        <time>2012-12-15T14:21:00Z</time>
      </trkpt>
      <trkpt lat="45.53042" lon="6.00299">
        <ele>451</ele>
        <time>2012-12-15T14:21:03Z</time>
      </trkpt>
      <trkpt lat="45.5304" lon="6.00284">
        <ele>451.96</ele>
        <time>2012-12-15T14:21:13Z</time>
      </trkpt>
      <trkpt lat="45.53039" lon="6.00277">
        <ele>451.48</ele>
        <time>2012-12-15T14:21:26Z</time>
      </trkpt>
      <trkpt lat="45.5304" lon="6.00277">
        <ele>451.48</ele>
        <time>2012-12-15T14:22:14Z</time>
      </trkpt>
      <trkpt lat="45.53039" lon="6.00277">
        <ele>451.48</ele>
        <time>2012-12-15T14:22:54Z</time>
      </trkpt>
      <trkpt lat="45.53038" lon="6.00276">
        <ele>451.48</ele>
        <time>2012-12-15T14:22:56Z</time>
      </trkpt>
      <trkpt lat="45.53033" lon="6.00265">
        <ele>450.52</ele>
        <time>2012-12-15T14:23:00Z</time>
      </trkpt>
      <trkpt lat="45.53028" lon="6.00245">
        <ele>449.07</ele>
        <time>2012-12-15T14:23:04Z</time>
      </trkpt>
      <trkpt lat="45.53026" lon="6.00239">
        <ele>448.59</ele>
        <time>2012-12-15T14:23:05Z</time>
      </trkpt>
      <trkpt lat="45.53024" lon="6.00234">
        <ele>448.11</ele>
        <time>2012-12-15T14:23:06Z</time>
      </trkpt>
      <trkpt lat="45.53017" lon="6.00211">
        <ele>444.75</ele>
        <time>2012-12-15T14:23:10Z</time>
      </trkpt>
      <trkpt lat="45.53014" lon="6.00197">
        <ele>442.82</ele>
        <time>2012-12-15T14:23:12Z</time>
      </trkpt>
      <trkpt lat="45.53013" lon="6.0019">
        <ele>441.86</ele>
        <time>2012-12-15T14:23:13Z</time>
      </trkpt>
      <trkpt lat="45.5301" lon="6.00176">
        <ele>440.9</ele>
        <time>2012-12-15T14:23:15Z</time>
      </trkpt>
      <trkpt lat="45.53009" lon="6.00169">
        <ele>439.94</ele>
        <time>2012-12-15T14:23:16Z</time>
      </trkpt>
      <trkpt lat="45.53008" lon="6.00152">
        <ele>438.02</ele>
        <time>2012-12-15T14:23:19Z</time>
      </trkpt>
      <trkpt lat="45.53008" lon="6.00147">
        <ele>437.54</ele>
        <time>2012-12-15T14:23:20Z</time>
      </trkpt>
      <trkpt lat="45.53009" lon="6.00142">
        <ele>437.06</ele>
        <time>2012-12-15T14:23:21Z</time>
      </trkpt>
      <trkpt lat="45.53011" lon="6.00137">
        <ele>436.58</ele>
        <time>2012-12-15T14:23:22Z</time>
      </trkpt>
      <trkpt lat="45.53027" lon="6.00096">
        <ele>434.17</ele>
        <time>2012-12-15T14:23:29Z</time>
      </trkpt>
      <trkpt lat="45.5303" lon="6.00083">
        <ele>432.25</ele>
        <time>2012-12-15T14:23:32Z</time>
      </trkpt>
      <trkpt lat="45.53029" lon="6.0008">
        <ele>431.77</ele>
        <time>2012-12-15T14:23:33Z</time>
      </trkpt>
      <trkpt lat="45.53027" lon="6.00078">
        <ele>431.29</ele>
        <time>2012-12-15T14:23:34Z</time>
      </trkpt>
      <trkpt lat="45.53024" lon="6.00078">
        <ele>430.81</ele>
        <time>2012-12-15T14:23:35Z</time>
      </trkpt>
      <trkpt lat="45.53021" lon="6.00079">
        <ele>430.33</ele>
        <time>2012-12-15T14:23:36Z</time>
      </trkpt>
      <trkpt lat="45.53017" lon="6.00081">
        <ele>429.85</ele>
        <time>2012-12-15T14:23:37Z</time>
      </trkpt>
      <trkpt lat="45.53014" lon="6.00085">
        <ele>428.89</ele>
        <time>2012-12-15T14:23:38Z</time>
      </trkpt>
      <trkpt lat="45.5301" lon="6.00088">
        <ele>428.4</ele>
        <time>2012-12-15T14:23:39Z</time>
      </trkpt>
      <trkpt lat="45.52997" lon="6.00098">
        <ele>426</ele>
        <time>2012-12-15T14:23:46Z</time>
      </trkpt>
      <trkpt lat="45.52997" lon="6.00098">
        <ele>426</ele>
        <time>2012-12-15T14:24:00Z</time>
      </trkpt>
      <trkpt lat="45.52995" lon="6.00098">
        <ele>425.52</ele>
        <time>2012-12-15T14:24:01Z</time>
      </trkpt>
      <trkpt lat="45.52956" lon="6.00121">
        <ele>423.6</ele>
        <time>2012-12-15T14:24:12Z</time>
      </trkpt>
      <trkpt lat="45.5291" lon="6.00149">
        <ele>423.6</ele>
        <time>2012-12-15T14:24:26Z</time>
      </trkpt>
      <trkpt lat="45.52887" lon="6.0014">
        <ele>424.56</ele>
        <time>2012-12-15T14:24:34Z</time>
      </trkpt>
      <trkpt lat="45.52865" lon="6.0016">
        <ele>426.48</ele>
        <time>2012-12-15T14:24:43Z</time>
      </trkpt>
      <trkpt lat="45.52833" lon="6.00178">
        <ele>425.04</ele>
        <time>2012-12-15T14:24:51Z</time>
      </trkpt>
      <trkpt lat="45.52829" lon="6.00182">
        <ele>424.56</ele>
        <time>2012-12-15T14:24:52Z</time>
      </trkpt>
      <trkpt lat="45.5282" lon="6.00192">
        <ele>423.12</ele>
        <time>2012-12-15T14:24:54Z</time>
      </trkpt>
      <trkpt lat="45.52817" lon="6.00198">
        <ele>422.16</ele>
        <time>2012-12-15T14:24:55Z</time>
      </trkpt>
      <trkpt lat="45.52815" lon="6.00204">
        <ele>421.19</ele>
        <time>2012-12-15T14:24:56Z</time>
      </trkpt>
      <trkpt lat="45.52812" lon="6.00213">
        <ele>420.23</ele>
        <time>2012-12-15T14:24:58Z</time>
      </trkpt>
      <trkpt lat="45.52809" lon="6.00216">
        <ele>419.75</ele>
        <time>2012-12-15T14:24:59Z</time>
      </trkpt>
      <trkpt lat="45.52805" lon="6.00218">
        <ele>419.27</ele>
        <time>2012-12-15T14:25:00Z</time>
      </trkpt>
      <trkpt lat="45.52802" lon="6.00219">
        <ele>419.27</ele>
        <time>2012-12-15T14:25:01Z</time>
      </trkpt>
      <trkpt lat="45.52797" lon="6.00221">
        <ele>419.75</ele>
        <time>2012-12-15T14:25:02Z</time>
      </trkpt>
      <trkpt lat="45.52735" lon="6.00244">
        <ele>419.75</ele>
        <time>2012-12-15T14:25:16Z</time>
      </trkpt>
      <trkpt lat="45.52707" lon="6.00248">
        <ele>420.23</ele>
        <time>2012-12-15T14:25:23Z</time>
      </trkpt>
      <trkpt lat="45.52703" lon="6.00247">
        <ele>420.71</ele>
        <time>2012-12-15T14:25:24Z</time>
      </trkpt>
      <trkpt lat="45.52699" lon="6.00246">
        <ele>420.23</ele>
        <time>2012-12-15T14:25:25Z</time>
      </trkpt>
      <trkpt lat="45.52695" lon="6.00247">
        <ele>420.71</ele>
        <time>2012-12-15T14:25:26Z</time>
      </trkpt>
      <trkpt lat="45.52691" lon="6.00247">
        <ele>420.71</ele>
        <time>2012-12-15T14:25:27Z</time>
      </trkpt>
      <trkpt lat="45.5264" lon="6.00255">
        <ele>422.16</ele>
        <time>2012-12-15T14:25:41Z</time>
      </trkpt>
      <trkpt lat="45.52607" lon="6.00258">
        <ele>424.56</ele>
        <time>2012-12-15T14:25:53Z</time>
      </trkpt>
      <trkpt lat="45.52572" lon="6.00277">
        <ele>421.19</ele>
        <time>2012-12-15T14:26:03Z</time>
      </trkpt>
      <trkpt lat="45.52544" lon="6.00289">
        <ele>417.83</ele>
        <time>2012-12-15T14:26:08Z</time>
      </trkpt>
      <trkpt lat="45.52522" lon="6.003">
        <ele>414.47</ele>
        <time>2012-12-15T14:26:12Z</time>
      </trkpt>
      <trkpt lat="45.52509" lon="6.00306">
        <ele>411.1</ele>
        <time>2012-12-15T14:26:14Z</time>
      </trkpt>
      <trkpt lat="45.52493" lon="6.00311">
        <ele>409.18</ele>
        <time>2012-12-15T14:26:17Z</time>
      </trkpt>
      <trkpt lat="45.52489" lon="6.00309">
        <ele>408.22</ele>
        <time>2012-12-15T14:26:18Z</time>
      </trkpt>
      <trkpt lat="45.52485" lon="6.00306">
        <ele>407.74</ele>
        <time>2012-12-15T14:26:19Z</time>
      </trkpt>
      <trkpt lat="45.52482" lon="6.00299">
        <ele>407.26</ele>
        <time>2012-12-15T14:26:20Z</time>
      </trkpt>
      <trkpt lat="45.52479" lon="6.00292">
        <ele>407.26</ele>
        <time>2012-12-15T14:26:21Z</time>
      </trkpt>
      <trkpt lat="45.52476" lon="6.00286">
        <ele>407.26</ele>
        <time>2012-12-15T14:26:22Z</time>
      </trkpt>
      <trkpt lat="45.52474" lon="6.0028">
        <ele>407.26</ele>
        <time>2012-12-15T14:26:23Z</time>
      </trkpt>
      <trkpt lat="45.52466" lon="6.0018">
        <ele>405.81</ele>
        <time>2012-12-15T14:26:38Z</time>
      </trkpt>
      <trkpt lat="45.52464" lon="6.0015">
        <ele>405.33</ele>
        <time>2012-12-15T14:26:43Z</time>
      </trkpt>
      <trkpt lat="45.52458" lon="6.00122">
        <ele>404.37</ele>
        <time>2012-12-15T14:26:48Z</time>
      </trkpt>
      <trkpt lat="45.52452" lon="6.00097">
        <ele>401.97</ele>
        <time>2012-12-15T14:26:52Z</time>
      </trkpt>
      <trkpt lat="45.52451" lon="6.00089">
        <ele>401.97</ele>
        <time>2012-12-15T14:26:53Z</time>
      </trkpt>
      <trkpt lat="45.52446" lon="6.00055">
        <ele>398.6</ele>
        <time>2012-12-15T14:26:57Z</time>
      </trkpt>
      <trkpt lat="45.52445" lon="6.00047">
        <ele>398.12</ele>
        <time>2012-12-15T14:26:58Z</time>
      </trkpt>
      <trkpt lat="45.52442" lon="6.00029">
        <ele>396.68</ele>
        <time>2012-12-15T14:27:00Z</time>
      </trkpt>
      <trkpt lat="45.52441" lon="6.0002">
        <ele>395.24</ele>
        <time>2012-12-15T14:27:01Z</time>
      </trkpt>
      <trkpt lat="45.52442" lon="6.00002">
        <ele>392.84</ele>
        <time>2012-12-15T14:27:03Z</time>
      </trkpt>
      <trkpt lat="45.52446" lon="5.99984">
        <ele>390.91</ele>
        <time>2012-12-15T14:27:06Z</time>
      </trkpt>
      <trkpt lat="45.52434" lon="5.99982">
        <ele>388.51</ele>
        <time>2012-12-15T14:27:11Z</time>
      </trkpt>
      <trkpt lat="45.52431" lon="5.99987">
        <ele>388.03</ele>
        <time>2012-12-15T14:27:12Z</time>
      </trkpt>
      <trkpt lat="45.52427" lon="5.99992">
        <ele>387.55</ele>
        <time>2012-12-15T14:27:13Z</time>
      </trkpt>
      <trkpt lat="45.52424" lon="5.99996">
        <ele>387.07</ele>
        <time>2012-12-15T14:27:14Z</time>
      </trkpt>
      <trkpt lat="45.52414" lon="5.99989">
        <ele>384.18</ele>
        <time>2012-12-15T14:27:19Z</time>
      </trkpt>
      <trkpt lat="45.52416" lon="5.99984">
        <ele>383.7</ele>
        <time>2012-12-15T14:27:20Z</time>
      </trkpt>
      <trkpt lat="45.52419" lon="5.99978">
        <ele>383.22</ele>
        <time>2012-12-15T14:27:21Z</time>
      </trkpt>
      <trkpt lat="45.52426" lon="5.99967">
        <ele>382.26</ele>
        <time>2012-12-15T14:27:23Z</time>
      </trkpt>
      <trkpt lat="45.52429" lon="5.99963">
        <ele>381.78</ele>
        <time>2012-12-15T14:27:24Z</time>
      </trkpt>
      <trkpt lat="45.52432" lon="5.9996">
        <ele>380.82</ele>
        <time>2012-12-15T14:27:25Z</time>
      </trkpt>
      <trkpt lat="45.52432" lon="5.99957">
        <ele>380.34</ele>
        <time>2012-12-15T14:27:26Z</time>
      </trkpt>
      <trkpt lat="45.52429" lon="5.99952">
        <ele>379.38</ele>
        <time>2012-12-15T14:27:28Z</time>
      </trkpt>
      <trkpt lat="45.52421" lon="5.99952">
        <ele>378.42</ele>
        <time>2012-12-15T14:27:30Z</time>
      </trkpt>
      <trkpt lat="45.52417" lon="5.99952">
        <ele>377.45</ele>
        <time>2012-12-15T14:27:31Z</time>
      </trkpt>
      <trkpt lat="45.52411" lon="5.99951">
        <ele>377.45</ele>
        <time>2012-12-15T14:27:32Z</time>
      </trkpt>
      <trkpt lat="45.52401" lon="5.99951">
        <ele>376.01</ele>
        <time>2012-12-15T14:27:34Z</time>
      </trkpt>
      <trkpt lat="45.52396" lon="5.99953">
        <ele>375.05</ele>
        <time>2012-12-15T14:27:35Z</time>
      </trkpt>
      <trkpt lat="45.52392" lon="5.99956">
        <ele>374.57</ele>
        <time>2012-12-15T14:27:36Z</time>
      </trkpt>
      <trkpt lat="45.52389" lon="5.99957">
        <ele>374.09</ele>
        <time>2012-12-15T14:27:37Z</time>
      </trkpt>
      <trkpt lat="45.52389" lon="5.99944">
        <ele>371.69</ele>
        <time>2012-12-15T14:27:41Z</time>
      </trkpt>
      <trkpt lat="45.52391" lon="5.99939">
        <ele>371.69</ele>
        <time>2012-12-15T14:27:42Z</time>
      </trkpt>
      <trkpt lat="45.52403" lon="5.99922">
        <ele>369.28</ele>
        <time>2012-12-15T14:27:45Z</time>
      </trkpt>
      <trkpt lat="45.52408" lon="5.99918">
        <ele>368.32</ele>
        <time>2012-12-15T14:27:46Z</time>
      </trkpt>
      <trkpt lat="45.52412" lon="5.99915">
        <ele>367.84</ele>
        <time>2012-12-15T14:27:47Z</time>
      </trkpt>
      <trkpt lat="45.52415" lon="5.99912">
        <ele>367.36</ele>
        <time>2012-12-15T14:27:48Z</time>
      </trkpt>
      <trkpt lat="45.52417" lon="5.99909">
        <ele>366.4</ele>
        <time>2012-12-15T14:27:49Z</time>
      </trkpt>
      <trkpt lat="45.52416" lon="5.99906">
        <ele>365.92</ele>
        <time>2012-12-15T14:27:50Z</time>
      </trkpt>
      <trkpt lat="45.52414" lon="5.99903">
        <ele>365.44</ele>
        <time>2012-12-15T14:27:51Z</time>
      </trkpt>
      <trkpt lat="45.5241" lon="5.999">
        <ele>364.96</ele>
        <time>2012-12-15T14:27:52Z</time>
      </trkpt>
      <trkpt lat="45.52405" lon="5.99898">
        <ele>364.48</ele>
        <time>2012-12-15T14:27:53Z</time>
      </trkpt>
      <trkpt lat="45.524" lon="5.99897">
        <ele>363.04</ele>
        <time>2012-12-15T14:27:54Z</time>
      </trkpt>
      <trkpt lat="45.52395" lon="5.99897">
        <ele>362.55</ele>
        <time>2012-12-15T14:27:55Z</time>
      </trkpt>
      <trkpt lat="45.52388" lon="5.99899">
        <ele>361.59</ele>
        <time>2012-12-15T14:27:56Z</time>
      </trkpt>
      <trkpt lat="45.52383" lon="5.99902">
        <ele>361.11</ele>
        <time>2012-12-15T14:27:57Z</time>
      </trkpt>
      <trkpt lat="45.5238" lon="5.99906">
        <ele>360.15</ele>
        <time>2012-12-15T14:27:58Z</time>
      </trkpt>
      <trkpt lat="45.52377" lon="5.99909">
        <ele>359.67</ele>
        <time>2012-12-15T14:27:59Z</time>
      </trkpt>
      <trkpt lat="45.52375" lon="5.9991">
        <ele>358.71</ele>
        <time>2012-12-15T14:28:00Z</time>
      </trkpt>
      <trkpt lat="45.52373" lon="5.99909">
        <ele>358.23</ele>
        <time>2012-12-15T14:28:01Z</time>
      </trkpt>
      <trkpt lat="45.52374" lon="5.999">
        <ele>357.75</ele>
        <time>2012-12-15T14:28:03Z</time>
      </trkpt>
      <trkpt lat="45.52377" lon="5.99896">
        <ele>356.79</ele>
        <time>2012-12-15T14:28:04Z</time>
      </trkpt>
      <trkpt lat="45.52396" lon="5.99866">
        <ele>353.9</ele>
        <time>2012-12-15T14:28:09Z</time>
      </trkpt>
      <trkpt lat="45.52408" lon="5.99849">
        <ele>351.5</ele>
        <time>2012-12-15T14:28:12Z</time>
      </trkpt>
      <trkpt lat="45.52409" lon="5.99844">
        <ele>350.54</ele>
        <time>2012-12-15T14:28:13Z</time>
      </trkpt>
      <trkpt lat="45.52409" lon="5.9984">
        <ele>350.06</ele>
        <time>2012-12-15T14:28:14Z</time>
      </trkpt>
      <trkpt lat="45.52403" lon="5.99835">
        <ele>349.1</ele>
        <time>2012-12-15T14:28:16Z</time>
      </trkpt>
      <trkpt lat="45.52396" lon="5.99839">
        <ele>348.62</ele>
        <time>2012-12-15T14:28:18Z</time>
      </trkpt>
      <trkpt lat="45.52392" lon="5.99842">
        <ele>347.65</ele>
        <time>2012-12-15T14:28:19Z</time>
      </trkpt>
      <trkpt lat="45.52388" lon="5.99845">
        <ele>346.69</ele>
        <time>2012-12-15T14:28:20Z</time>
      </trkpt>
      <trkpt lat="45.52383" lon="5.99847">
        <ele>346.21</ele>
        <time>2012-12-15T14:28:21Z</time>
      </trkpt>
      <trkpt lat="45.52378" lon="5.99846">
        <ele>345.73</ele>
        <time>2012-12-15T14:28:22Z</time>
      </trkpt>
      <trkpt lat="45.52374" lon="5.99843">
        <ele>344.77</ele>
        <time>2012-12-15T14:28:23Z</time>
      </trkpt>
      <trkpt lat="45.52372" lon="5.99838">
        <ele>344.77</ele>
        <time>2012-12-15T14:28:24Z</time>
      </trkpt>
      <trkpt lat="45.52372" lon="5.99832">
        <ele>344.29</ele>
        <time>2012-12-15T14:28:25Z</time>
      </trkpt>
      <trkpt lat="45.52374" lon="5.99825">
        <ele>343.81</ele>
        <time>2012-12-15T14:28:26Z</time>
      </trkpt>
      <trkpt lat="45.52378" lon="5.9982">
        <ele>343.33</ele>
        <time>2012-12-15T14:28:27Z</time>
      </trkpt>
      <trkpt lat="45.52383" lon="5.99815">
        <ele>342.85</ele>
        <time>2012-12-15T14:28:28Z</time>
      </trkpt>
      <trkpt lat="45.52392" lon="5.99807">
        <ele>341.41</ele>
        <time>2012-12-15T14:28:30Z</time>
      </trkpt>
      <trkpt lat="45.52394" lon="5.99801">
        <ele>341.41</ele>
        <time>2012-12-15T14:28:31Z</time>
      </trkpt>
      <trkpt lat="45.52394" lon="5.99795">
        <ele>340.44</ele>
        <time>2012-12-15T14:28:32Z</time>
      </trkpt>
      <trkpt lat="45.52391" lon="5.9979">
        <ele>339.96</ele>
        <time>2012-12-15T14:28:33Z</time>
      </trkpt>
      <trkpt lat="45.52387" lon="5.99787">
        <ele>339</ele>
        <time>2012-12-15T14:28:34Z</time>
      </trkpt>
      <trkpt lat="45.52381" lon="5.99787">
        <ele>339</ele>
        <time>2012-12-15T14:28:35Z</time>
      </trkpt>
      <trkpt lat="45.52374" lon="5.99788">
        <ele>337.56</ele>
        <time>2012-12-15T14:28:36Z</time>
      </trkpt>
      <trkpt lat="45.52368" lon="5.99792">
        <ele>337.56</ele>
        <time>2012-12-15T14:28:37Z</time>
      </trkpt>
      <trkpt lat="45.52363" lon="5.99796">
        <ele>336.12</ele>
        <time>2012-12-15T14:28:38Z</time>
      </trkpt>
      <trkpt lat="45.52358" lon="5.99802">
        <ele>335.16</ele>
        <time>2012-12-15T14:28:39Z</time>
      </trkpt>
      <trkpt lat="45.52354" lon="5.99808">
        <ele>335.16</ele>
        <time>2012-12-15T14:28:40Z</time>
      </trkpt>
      <trkpt lat="45.52352" lon="5.99815">
        <ele>335.16</ele>
        <time>2012-12-15T14:28:41Z</time>
      </trkpt>
      <trkpt lat="45.5235" lon="5.9982">
        <ele>336.12</ele>
        <time>2012-12-15T14:28:42Z</time>
      </trkpt>
      <trkpt lat="45.52337" lon="5.99851">
        <ele>338.04</ele>
        <time>2012-12-15T14:28:51Z</time>
      </trkpt>
      <trkpt lat="45.52313" lon="5.99907">
        <ele>339.48</ele>
        <time>2012-12-15T14:29:05Z</time>
      </trkpt>
      <trkpt lat="45.52279" lon="5.99969">
        <ele>340.44</ele>
        <time>2012-12-15T14:29:21Z</time>
      </trkpt>
      <trkpt lat="45.52251" lon="6.00038">
        <ele>341.41</ele>
        <time>2012-12-15T14:29:37Z</time>
      </trkpt>
      <trkpt lat="45.52249" lon="6.00043">
        <ele>341.41</ele>
        <time>2012-12-15T14:29:38Z</time>
      </trkpt>
      <trkpt lat="45.52246" lon="6.00047">
        <ele>341.41</ele>
        <time>2012-12-15T14:29:39Z</time>
      </trkpt>
      <trkpt lat="45.52202" lon="6.0011">
        <ele>342.37</ele>
        <time>2012-12-15T14:29:55Z</time>
      </trkpt>
      <trkpt lat="45.52165" lon="6.00167">
        <ele>343.33</ele>
        <time>2012-12-15T14:30:10Z</time>
      </trkpt>
      <trkpt lat="45.52134" lon="6.00232">
        <ele>344.77</ele>
        <time>2012-12-15T14:30:26Z</time>
      </trkpt>
      <trkpt lat="45.52109" lon="6.00286">
        <ele>344.77</ele>
        <time>2012-12-15T14:30:37Z</time>
      </trkpt>
      <trkpt lat="45.52109" lon="6.00343">
        <ele>346.21</ele>
        <time>2012-12-15T14:30:49Z</time>
      </trkpt>
      <trkpt lat="45.52123" lon="6.00387">
        <ele>348.62</ele>
        <time>2012-12-15T14:31:01Z</time>
      </trkpt>
      <trkpt lat="45.52092" lon="6.00418">
        <ele>348.13</ele>
        <time>2012-12-15T14:31:16Z</time>
      </trkpt>
      <trkpt lat="45.52082" lon="6.00411">
        <ele>346.69</ele>
        <time>2012-12-15T14:31:18Z</time>
      </trkpt>
      <trkpt lat="45.52078" lon="6.00405">
        <ele>346.21</ele>
        <time>2012-12-15T14:31:19Z</time>
      </trkpt>
      <trkpt lat="45.52074" lon="6.00401">
        <ele>345.73</ele>
        <time>2012-12-15T14:31:20Z</time>
      </trkpt>
      <trkpt lat="45.52071" lon="6.00396">
        <ele>344.77</ele>
        <time>2012-12-15T14:31:21Z</time>
      </trkpt>
      <trkpt lat="45.52068" lon="6.00392">
        <ele>343.33</ele>
        <time>2012-12-15T14:31:22Z</time>
      </trkpt>
      <trkpt lat="45.52065" lon="6.00388">
        <ele>342.37</ele>
        <time>2012-12-15T14:31:23Z</time>
      </trkpt>
      <trkpt lat="45.52063" lon="6.00353">
        <ele>339</ele>
        <time>2012-12-15T14:31:29Z</time>
      </trkpt>
      <trkpt lat="45.52065" lon="6.00319">
        <ele>336.6</ele>
        <time>2012-12-15T14:31:33Z</time>
      </trkpt>
      <trkpt lat="45.52068" lon="6.00279">
        <ele>333.71</ele>
        <time>2012-12-15T14:31:39Z</time>
      </trkpt>
      <trkpt lat="45.52068" lon="6.00276">
        <ele>333.23</ele>
        <time>2012-12-15T14:31:40Z</time>
      </trkpt>
      <trkpt lat="45.52065" lon="6.00274">
        <ele>332.75</ele>
        <time>2012-12-15T14:31:41Z</time>
      </trkpt>
      <trkpt lat="45.52063" lon="6.00275">
        <ele>331.79</ele>
        <time>2012-12-15T14:31:42Z</time>
      </trkpt>
      <trkpt lat="45.52059" lon="6.00278">
        <ele>331.79</ele>
        <time>2012-12-15T14:31:43Z</time>
      </trkpt>
      <trkpt lat="45.52056" lon="6.00281">
        <ele>330.83</ele>
        <time>2012-12-15T14:31:44Z</time>
      </trkpt>
      <trkpt lat="45.52053" lon="6.00285">
        <ele>330.83</ele>
        <time>2012-12-15T14:31:45Z</time>
      </trkpt>
      <trkpt lat="45.5205" lon="6.0029">
        <ele>330.35</ele>
        <time>2012-12-15T14:31:46Z</time>
      </trkpt>
      <trkpt lat="45.52031" lon="6.00318">
        <ele>328.43</ele>
        <time>2012-12-15T14:31:52Z</time>
      </trkpt>
      <trkpt lat="45.52028" lon="6.00322">
        <ele>327.47</ele>
        <time>2012-12-15T14:31:53Z</time>
      </trkpt>
      <trkpt lat="45.5202" lon="6.00336">
        <ele>326.02</ele>
        <time>2012-12-15T14:31:56Z</time>
      </trkpt>
      <trkpt lat="45.52016" lon="6.0034">
        <ele>325.06</ele>
        <time>2012-12-15T14:31:57Z</time>
      </trkpt>
      <trkpt lat="45.52013" lon="6.00344">
        <ele>324.58</ele>
        <time>2012-12-15T14:31:58Z</time>
      </trkpt>
      <trkpt lat="45.52008" lon="6.00347">
        <ele>323.62</ele>
        <time>2012-12-15T14:31:59Z</time>
      </trkpt>
      <trkpt lat="45.52004" lon="6.0035">
        <ele>322.66</ele>
        <time>2012-12-15T14:32:00Z</time>
      </trkpt>
      <trkpt lat="45.51988" lon="6.00361">
        <ele>319.3</ele>
        <time>2012-12-15T14:32:03Z</time>
      </trkpt>
      <trkpt lat="45.51973" lon="6.00371">
        <ele>315.93</ele>
        <time>2012-12-15T14:32:06Z</time>
      </trkpt>
      <trkpt lat="45.51961" lon="6.00377">
        <ele>313.05</ele>
        <time>2012-12-15T14:32:09Z</time>
      </trkpt>
      <trkpt lat="45.51954" lon="6.00376">
        <ele>311.12</ele>
        <time>2012-12-15T14:32:11Z</time>
      </trkpt>
      <trkpt lat="45.51952" lon="6.00373">
        <ele>310.16</ele>
        <time>2012-12-15T14:32:12Z</time>
      </trkpt>
      <trkpt lat="45.51951" lon="6.00368">
        <ele>309.68</ele>
        <time>2012-12-15T14:32:13Z</time>
      </trkpt>
      <trkpt lat="45.51952" lon="6.00363">
        <ele>309.2</ele>
        <time>2012-12-15T14:32:14Z</time>
      </trkpt>
      <trkpt lat="45.51954" lon="6.00357">
        <ele>308.72</ele>
        <time>2012-12-15T14:32:15Z</time>
      </trkpt>
      <trkpt lat="45.51957" lon="6.00351">
        <ele>307.76</ele>
        <time>2012-12-15T14:32:16Z</time>
      </trkpt>
      <trkpt lat="45.51959" lon="6.00345">
        <ele>307.76</ele>
        <time>2012-12-15T14:32:17Z</time>
      </trkpt>
      <trkpt lat="45.51982" lon="6.00307">
        <ele>308.24</ele>
        <time>2012-12-15T14:32:28Z</time>
      </trkpt>
      <trkpt lat="45.51983" lon="6.00305">
        <ele>308.72</ele>
        <time>2012-12-15T14:32:29Z</time>
      </trkpt>
      <trkpt lat="45.51984" lon="6.00303">
        <ele>308.24</ele>
        <time>2012-12-15T14:32:30Z</time>
      </trkpt>
      <trkpt lat="45.51983" lon="6.00301">
        <ele>308.72</ele>
        <time>2012-12-15T14:32:31Z</time>
      </trkpt>
      <trkpt lat="45.51978" lon="6.00295">
        <ele>306.32</ele>
        <time>2012-12-15T14:32:34Z</time>
      </trkpt>
      <trkpt lat="45.51957" lon="6.00283">
        <ele>302.95</ele>
        <time>2012-12-15T14:32:38Z</time>
      </trkpt>
      <trkpt lat="45.51942" lon="6.00273">
        <ele>300.55</ele>
        <time>2012-12-15T14:32:41Z</time>
      </trkpt>
      <trkpt lat="45.51938" lon="6.00272">
        <ele>299.59</ele>
        <time>2012-12-15T14:32:42Z</time>
      </trkpt>
      <trkpt lat="45.51933" lon="6.00271">
        <ele>299.11</ele>
        <time>2012-12-15T14:32:43Z</time>
      </trkpt>
      <trkpt lat="45.5192" lon="6.00268">
        <ele>298.15</ele>
        <time>2012-12-15T14:32:46Z</time>
      </trkpt>
      <trkpt lat="45.51917" lon="6.00265">
        <ele>298.15</ele>
        <time>2012-12-15T14:32:47Z</time>
      </trkpt>
      <trkpt lat="45.51914" lon="6.00261">
        <ele>298.15</ele>
        <time>2012-12-15T14:32:48Z</time>
      </trkpt>
      <trkpt lat="45.51911" lon="6.00256">
        <ele>297.67</ele>
        <time>2012-12-15T14:32:49Z</time>
      </trkpt>
      <trkpt lat="45.5191" lon="6.0025">
        <ele>298.15</ele>
        <time>2012-12-15T14:32:50Z</time>
      </trkpt>
      <trkpt lat="45.51908" lon="6.00245">
        <ele>297.67</ele>
        <time>2012-12-15T14:32:51Z</time>
      </trkpt>
      <trkpt lat="45.51897" lon="6.00191">
        <ele>296.7</ele>
        <time>2012-12-15T14:33:01Z</time>
      </trkpt>
      <trkpt lat="45.5186" lon="6.00116">
        <ele>294.78</ele>
        <time>2012-12-15T14:33:15Z</time>
      </trkpt>
      <trkpt lat="45.51853" lon="6.00104">
        <ele>294.78</ele>
        <time>2012-12-15T14:33:20Z</time>
      </trkpt>
      <trkpt lat="45.51853" lon="6.00103">
        <ele>294.3</ele>
        <time>2012-12-15T14:33:32Z</time>
      </trkpt>
      <trkpt lat="45.51852" lon="6.00101">
        <ele>294.3</ele>
        <time>2012-12-15T14:33:52Z</time>
      </trkpt>
      <trkpt lat="45.5185" lon="6.00099">
        <ele>294.3</ele>
        <time>2012-12-15T14:33:53Z</time>
      </trkpt>
      <trkpt lat="45.51848" lon="6.00096">
        <ele>294.78</ele>
        <time>2012-12-15T14:33:54Z</time>
      </trkpt>
      <trkpt lat="45.51846" lon="6.00093">
        <ele>294.3</ele>
        <time>2012-12-15T14:33:55Z</time>
      </trkpt>
      <trkpt lat="45.51843" lon="6.0009">
        <ele>294.78</ele>
        <time>2012-12-15T14:33:56Z</time>
      </trkpt>
      <trkpt lat="45.5183" lon="6.00072">
        <ele>294.3</ele>
        <time>2012-12-15T14:34:01Z</time>
      </trkpt>
      <trkpt lat="45.51827" lon="6.00071">
        <ele>294.3</ele>
        <time>2012-12-15T14:34:02Z</time>
      </trkpt>
      <trkpt lat="45.51825" lon="6.00072">
        <ele>293.82</ele>
        <time>2012-12-15T14:34:03Z</time>
      </trkpt>
      <trkpt lat="45.51822" lon="6.00075">
        <ele>294.3</ele>
        <time>2012-12-15T14:34:04Z</time>
      </trkpt>
      <trkpt lat="45.51819" lon="6.00078">
        <ele>294.3</ele>
        <time>2012-12-15T14:34:05Z</time>
      </trkpt>
      <trkpt lat="45.5181" lon="6.00091">
        <ele>293.82</ele>
        <time>2012-12-15T14:34:08Z</time>
      </trkpt>
      <trkpt lat="45.51806" lon="6.00093">
        <ele>293.82</ele>
        <time>2012-12-15T14:34:09Z</time>
      </trkpt>
      <trkpt lat="45.51802" lon="6.00092">
        <ele>293.82</ele>
        <time>2012-12-15T14:34:10Z</time>
      </trkpt>
      <trkpt lat="45.51798" lon="6.00089">
        <ele>293.82</ele>
        <time>2012-12-15T14:34:11Z</time>
      </trkpt>
      <trkpt lat="45.51794" lon="6.00085">
        <ele>293.82</ele>
        <time>2012-12-15T14:34:12Z</time>
      </trkpt>
      <trkpt lat="45.51791" lon="6.00081">
        <ele>293.34</ele>
        <time>2012-12-15T14:34:13Z</time>
      </trkpt>
      <trkpt lat="45.51788" lon="6.00076">
        <ele>293.34</ele>
        <time>2012-12-15T14:34:14Z</time>
      </trkpt>
      <trkpt lat="45.51784" lon="6.00071">
        <ele>293.34</ele>
        <time>2012-12-15T14:34:15Z</time>
      </trkpt>
      <trkpt lat="45.51722" lon="5.99976">
        <ele>292.86</ele>
        <time>2012-12-15T14:34:34Z</time>
      </trkpt>
      <trkpt lat="45.5172" lon="5.99971">
        <ele>292.86</ele>
        <time>2012-12-15T14:34:35Z</time>
      </trkpt>
      <trkpt lat="45.51718" lon="5.99966">
        <ele>292.86</ele>
        <time>2012-12-15T14:34:36Z</time>
      </trkpt>
      <trkpt lat="45.5173" lon="5.99903">
        <ele>293.34</ele>
        <time>2012-12-15T14:34:48Z</time>
      </trkpt>
      <trkpt lat="45.51756" lon="5.99857">
        <ele>293.34</ele>
        <time>2012-12-15T14:34:59Z</time>
      </trkpt>
      <trkpt lat="45.51794" lon="5.99802">
        <ele>293.34</ele>
        <time>2012-12-15T14:35:13Z</time>
      </trkpt>
      <trkpt lat="45.51834" lon="5.99747">
        <ele>293.34</ele>
        <time>2012-12-15T14:35:27Z</time>
      </trkpt>
      <trkpt lat="45.51872" lon="5.99687">
        <ele>293.82</ele>
        <time>2012-12-15T14:35:42Z</time>
      </trkpt>
      <trkpt lat="45.51858" lon="5.99661">
        <ele>293.82</ele>
        <time>2012-12-15T14:35:53Z</time>
      </trkpt>
      <trkpt lat="45.51823" lon="5.99604">
        <ele>293.82</ele>
        <time>2012-12-15T14:36:09Z</time>
      </trkpt>
      <trkpt lat="45.51813" lon="5.99565">
        <ele>293.82</ele>
        <time>2012-12-15T14:36:21Z</time>
      </trkpt>
      <trkpt lat="45.51822" lon="5.99524">
        <ele>294.3</ele>
        <time>2012-12-15T14:36:32Z</time>
      </trkpt>
      <trkpt lat="45.51851" lon="5.99476">
        <ele>294.3</ele>
        <time>2012-12-15T14:36:46Z</time>
      </trkpt>
      <trkpt lat="45.51881" lon="5.99429">
        <ele>294.78</ele>
        <time>2012-12-15T14:36:58Z</time>
      </trkpt>
      <trkpt lat="45.51913" lon="5.99373">
        <ele>294.78</ele>
        <time>2012-12-15T14:37:12Z</time>
      </trkpt>
      <trkpt lat="45.51951" lon="5.99323">
        <ele>294.78</ele>
        <time>2012-12-15T14:37:27Z</time>
      </trkpt>
      <trkpt lat="45.51975" lon="5.9928">
        <ele>295.26</ele>
        <time>2012-12-15T14:37:39Z</time>
      </trkpt>
      <trkpt lat="45.51958" lon="5.99243">
        <ele>295.74</ele>
        <time>2012-12-15T14:37:49Z</time>
      </trkpt>
      <trkpt lat="45.51912" lon="5.99183">
        <ele>297.18</ele>
        <time>2012-12-15T14:38:06Z</time>
      </trkpt>
      <trkpt lat="45.51873" lon="5.99133">
        <ele>298.15</ele>
        <time>2012-12-15T14:38:21Z</time>
      </trkpt>
      <trkpt lat="45.51824" lon="5.99098">
        <ele>300.55</ele>
        <time>2012-12-15T14:38:38Z</time>
      </trkpt>
      <trkpt lat="45.51776" lon="5.99072">
        <ele>303.91</ele>
        <time>2012-12-15T14:38:56Z</time>
      </trkpt>
      <trkpt lat="45.51731" lon="5.99033">
        <ele>306.32</ele>
        <time>2012-12-15T14:39:15Z</time>
      </trkpt>
      <trkpt lat="45.5169" lon="5.98986">
        <ele>308.72</ele>
        <time>2012-12-15T14:39:33Z</time>
      </trkpt>
      <trkpt lat="45.51655" lon="5.98935">
        <ele>310.16</ele>
        <time>2012-12-15T14:39:50Z</time>
      </trkpt>
      <trkpt lat="45.51635" lon="5.98875">
        <ele>312.57</ele>
        <time>2012-12-15T14:40:07Z</time>
      </trkpt>
      <trkpt lat="45.51631" lon="5.98816">
        <ele>314.49</ele>
        <time>2012-12-15T14:40:23Z</time>
      </trkpt>
      <trkpt lat="45.51643" lon="5.9875">
        <ele>316.89</ele>
        <time>2012-12-15T14:40:42Z</time>
      </trkpt>
      <trkpt lat="45.51662" lon="5.98702">
        <ele>320.74</ele>
        <time>2012-12-15T14:40:58Z</time>
      </trkpt>
      <trkpt lat="45.5168" lon="5.98661">
        <ele>323.62</ele>
        <time>2012-12-15T14:41:14Z</time>
      </trkpt>
      <trkpt lat="45.51681" lon="5.98635">
        <ele>325.06</ele>
        <time>2012-12-15T14:41:23Z</time>
      </trkpt>
      <trkpt lat="45.51682" lon="5.98634">
        <ele>324.58</ele>
        <time>2012-12-15T14:41:24Z</time>
      </trkpt>
      <trkpt lat="45.51683" lon="5.98633">
        <ele>325.06</ele>
        <time>2012-12-15T14:41:25Z</time>
      </trkpt>
      <trkpt lat="45.51684" lon="5.98633">
        <ele>325.06</ele>
        <time>2012-12-15T14:41:26Z</time>
      </trkpt>
      <trkpt lat="45.51686" lon="5.98632">
        <ele>325.54</ele>
        <time>2012-12-15T14:41:27Z</time>
      </trkpt>
      <trkpt lat="45.51687" lon="5.98632">
        <ele>325.54</ele>
        <time>2012-12-15T14:41:28Z</time>
      </trkpt>
      <trkpt lat="45.51688" lon="5.98631">
        <ele>326.02</ele>
        <time>2012-12-15T14:41:29Z</time>
      </trkpt>
      <trkpt lat="45.51689" lon="5.9863">
        <ele>326.02</ele>
        <time>2012-12-15T14:41:30Z</time>
      </trkpt>
      <trkpt lat="45.5169" lon="5.98629">
        <ele>326.02</ele>
        <time>2012-12-15T14:41:31Z</time>
      </trkpt>
      <trkpt lat="45.51691" lon="5.98628">
        <ele>326.5</ele>
        <time>2012-12-15T14:41:32Z</time>
      </trkpt>
      <trkpt lat="45.51692" lon="5.98627">
        <ele>326.5</ele>
        <time>2012-12-15T14:41:33Z</time>
      </trkpt>
      <trkpt lat="45.51693" lon="5.98626">
        <ele>326.5</ele>
        <time>2012-12-15T14:41:34Z</time>
      </trkpt>
      <trkpt lat="45.51695" lon="5.98625">
        <ele>326.99</ele>
        <time>2012-12-15T14:41:35Z</time>
      </trkpt>
      <trkpt lat="45.51696" lon="5.98624">
        <ele>326.5</ele>
        <time>2012-12-15T14:41:36Z</time>
      </trkpt>
      <trkpt lat="45.51697" lon="5.98622">
        <ele>326.99</ele>
        <time>2012-12-15T14:41:37Z</time>
      </trkpt>
      <trkpt lat="45.51697" lon="5.9862">
        <ele>327.47</ele>
        <time>2012-12-15T14:41:38Z</time>
      </trkpt>
      <trkpt lat="45.51697" lon="5.98619">
        <ele>327.47</ele>
        <time>2012-12-15T14:41:39Z</time>
      </trkpt>
      <trkpt lat="45.51696" lon="5.98617">
        <ele>327.47</ele>
        <time>2012-12-15T14:41:40Z</time>
      </trkpt>
      <trkpt lat="45.51694" lon="5.98617">
        <ele>327.47</ele>
        <time>2012-12-15T14:41:42Z</time>
      </trkpt>
      <trkpt lat="45.51692" lon="5.98618">
        <ele>327.95</ele>
        <time>2012-12-15T14:41:43Z</time>
      </trkpt>
      <trkpt lat="45.51691" lon="5.98619">
        <ele>327.95</ele>
        <time>2012-12-15T14:41:44Z</time>
      </trkpt>
      <trkpt lat="45.5169" lon="5.98621">
        <ele>327.95</ele>
        <time>2012-12-15T14:41:45Z</time>
      </trkpt>
      <trkpt lat="45.51689" lon="5.98621">
        <ele>328.43</ele>
        <time>2012-12-15T14:41:46Z</time>
      </trkpt>
      <trkpt lat="45.51687" lon="5.98622">
        <ele>327.95</ele>
        <time>2012-12-15T14:41:47Z</time>
      </trkpt>
      <trkpt lat="45.51686" lon="5.98623">
        <ele>328.43</ele>
        <time>2012-12-15T14:41:48Z</time>
      </trkpt>
      <trkpt lat="45.51685" lon="5.98624">
        <ele>328.43</ele>
        <time>2012-12-15T14:41:49Z</time>
      </trkpt>
      <trkpt lat="45.51683" lon="5.98626">
        <ele>328.91</ele>
        <time>2012-12-15T14:41:50Z</time>
      </trkpt>
      <trkpt lat="45.51682" lon="5.98627">
        <ele>328.91</ele>
        <time>2012-12-15T14:41:51Z</time>
      </trkpt>
      <trkpt lat="45.5168" lon="5.98628">
        <ele>328.91</ele>
        <time>2012-12-15T14:41:52Z</time>
      </trkpt>
      <trkpt lat="45.51678" lon="5.98629">
        <ele>329.39</ele>
        <time>2012-12-15T14:41:53Z</time>
      </trkpt>
      <trkpt lat="45.51656" lon="5.98638">
        <ele>330.83</ele>
        <time>2012-12-15T14:42:07Z</time>
      </trkpt>
      <trkpt lat="45.51634" lon="5.98648">
        <ele>333.23</ele>
        <time>2012-12-15T14:42:23Z</time>
      </trkpt>
      <trkpt lat="45.51624" lon="5.98653">
        <ele>333.23</ele>
        <time>2012-12-15T14:42:30Z</time>
      </trkpt>
      <trkpt lat="45.51623" lon="5.98654">
        <ele>333.23</ele>
        <time>2012-12-15T14:42:31Z</time>
      </trkpt>
      <trkpt lat="45.51621" lon="5.98654">
        <ele>333.71</ele>
        <time>2012-12-15T14:42:32Z</time>
      </trkpt>
      <trkpt lat="45.5162" lon="5.98655">
        <ele>333.71</ele>
        <time>2012-12-15T14:42:33Z</time>
      </trkpt>
      <trkpt lat="45.51618" lon="5.98656">
        <ele>333.71</ele>
        <time>2012-12-15T14:42:34Z</time>
      </trkpt>
      <trkpt lat="45.51617" lon="5.98656">
        <ele>333.71</ele>
        <time>2012-12-15T14:42:35Z</time>
      </trkpt>
      <trkpt lat="45.51606" lon="5.98644">
        <ele>336.12</ele>
        <time>2012-12-15T14:42:49Z</time>
      </trkpt>
      <trkpt lat="45.51601" lon="5.98631">
        <ele>338.04</ele>
        <time>2012-12-15T14:43:01Z</time>
      </trkpt>
      <trkpt lat="45.51597" lon="5.98621">
        <ele>339.48</ele>
        <time>2012-12-15T14:43:09Z</time>
      </trkpt>
      <trkpt lat="45.5159" lon="5.98606">
        <ele>340.92</ele>
        <time>2012-12-15T14:43:20Z</time>
      </trkpt>
      <trkpt lat="45.5159" lon="5.98605">
        <ele>340.44</ele>
        <time>2012-12-15T14:43:21Z</time>
      </trkpt>
      <trkpt lat="45.51589" lon="5.98603">
        <ele>340.92</ele>
        <time>2012-12-15T14:43:22Z</time>
      </trkpt>
      <trkpt lat="45.51588" lon="5.98602">
        <ele>340.92</ele>
        <time>2012-12-15T14:43:23Z</time>
      </trkpt>
      <trkpt lat="45.51588" lon="5.986">
        <ele>341.41</ele>
        <time>2012-12-15T14:43:24Z</time>
      </trkpt>
      <trkpt lat="45.51574" lon="5.9858">
        <ele>342.37</ele>
        <time>2012-12-15T14:43:39Z</time>
      </trkpt>
      <trkpt lat="45.51557" lon="5.98596">
        <ele>343.81</ele>
        <time>2012-12-15T14:43:54Z</time>
      </trkpt>
      <trkpt lat="45.51555" lon="5.98597">
        <ele>344.29</ele>
        <time>2012-12-15T14:43:55Z</time>
      </trkpt>
      <trkpt lat="45.51546" lon="5.9859">
        <ele>345.25</ele>
        <time>2012-12-15T14:44:03Z</time>
      </trkpt>
      <trkpt lat="45.51543" lon="5.98587">
        <ele>345.73</ele>
        <time>2012-12-15T14:44:06Z</time>
      </trkpt>
      <trkpt lat="45.51539" lon="5.98581">
        <ele>346.21</ele>
        <time>2012-12-15T14:44:11Z</time>
      </trkpt>
      <trkpt lat="45.51519" lon="5.98561">
        <ele>347.65</ele>
        <time>2012-12-15T14:44:28Z</time>
      </trkpt>
      <trkpt lat="45.5149" lon="5.98525">
        <ele>348.62</ele>
        <time>2012-12-15T14:44:45Z</time>
      </trkpt>
      <trkpt lat="45.51469" lon="5.98507">
        <ele>347.65</ele>
        <time>2012-12-15T14:44:57Z</time>
      </trkpt>
      <trkpt lat="45.51462" lon="5.98513">
        <ele>348.13</ele>
        <time>2012-12-15T14:45:01Z</time>
      </trkpt>
      <trkpt lat="45.51428" lon="5.98577">
        <ele>348.13</ele>
        <time>2012-12-15T14:45:18Z</time>
      </trkpt>
      <trkpt lat="45.51416" lon="5.98581">
        <ele>347.65</ele>
        <time>2012-12-15T14:45:21Z</time>
      </trkpt>
      <trkpt lat="45.51397" lon="5.98579">
        <ele>347.17</ele>
        <time>2012-12-15T14:45:25Z</time>
      </trkpt>
      <trkpt lat="45.51404" lon="5.98554">
        <ele>346.69</ele>
        <time>2012-12-15T14:45:26Z</time>
      </trkpt>
      <trkpt lat="45.51403" lon="5.98545">
        <ele>346.69</ele>
        <time>2012-12-15T14:45:27Z</time>
      </trkpt>
      <trkpt lat="45.51403" lon="5.98531">
        <ele>346.69</ele>
        <time>2012-12-15T14:45:28Z</time>
      </trkpt>
      <trkpt lat="45.51402" lon="5.98524">
        <ele>346.69</ele>
        <time>2012-12-15T14:45:29Z</time>
      </trkpt>
      <trkpt lat="45.51399" lon="5.98517">
        <ele>346.69</ele>
        <time>2012-12-15T14:45:30Z</time>
      </trkpt>
      <trkpt lat="45.51375" lon="5.9845">
        <ele>344.77</ele>
        <time>2012-12-15T14:45:41Z</time>
      </trkpt>
      <trkpt lat="45.51343" lon="5.98373">
        <ele>344.77</ele>
        <time>2012-12-15T14:45:55Z</time>
      </trkpt>
      <trkpt lat="45.51342" lon="5.98367">
        <ele>344.29</ele>
        <time>2012-12-15T14:45:56Z</time>
      </trkpt>
      <trkpt lat="45.5134" lon="5.98361">
        <ele>344.29</ele>
        <time>2012-12-15T14:45:57Z</time>
      </trkpt>
      <trkpt lat="45.51338" lon="5.98356">
        <ele>344.77</ele>
        <time>2012-12-15T14:45:58Z</time>
      </trkpt>
      <trkpt lat="45.51336" lon="5.9835">
        <ele>344.29</ele>
        <time>2012-12-15T14:45:59Z</time>
      </trkpt>
      <trkpt lat="45.51296" lon="5.98255">
        <ele>343.33</ele>
        <time>2012-12-15T14:46:15Z</time>
      </trkpt>
      <trkpt lat="45.51279" lon="5.98214">
        <ele>339.48</ele>
        <time>2012-12-15T14:46:20Z</time>
      </trkpt>
      <trkpt lat="45.51276" lon="5.98204">
        <ele>339</ele>
        <time>2012-12-15T14:46:21Z</time>
      </trkpt>
      <trkpt lat="45.51255" lon="5.98153">
        <ele>336.6</ele>
        <time>2012-12-15T14:46:26Z</time>
      </trkpt>
      <trkpt lat="45.51231" lon="5.98095">
        <ele>337.08</ele>
        <time>2012-12-15T14:46:34Z</time>
      </trkpt>
      <trkpt lat="45.51214" lon="5.98047">
        <ele>338.04</ele>
        <time>2012-12-15T14:46:45Z</time>
      </trkpt>
      <trkpt lat="45.51201" lon="5.98005">
        <ele>336.6</ele>
        <time>2012-12-15T14:46:56Z</time>
      </trkpt>
      <trkpt lat="45.51199" lon="5.97981">
        <ele>333.71</ele>
        <time>2012-12-15T14:46:59Z</time>
      </trkpt>
      <trkpt lat="45.51199" lon="5.97973">
        <ele>333.71</ele>
        <time>2012-12-15T14:47:00Z</time>
      </trkpt>
      <trkpt lat="45.51197" lon="5.97954">
        <ele>334.2</ele>
        <time>2012-12-15T14:47:04Z</time>
      </trkpt>
      <trkpt lat="45.51195" lon="5.97953">
        <ele>334.2</ele>
        <time>2012-12-15T14:47:05Z</time>
      </trkpt>
      <trkpt lat="45.51165" lon="5.97945">
        <ele>332.75</ele>
        <time>2012-12-15T14:47:15Z</time>
      </trkpt>
      <trkpt lat="45.51161" lon="5.97936">
        <ele>331.79</ele>
        <time>2012-12-15T14:47:17Z</time>
      </trkpt>
      <trkpt lat="45.51161" lon="5.9793">
        <ele>331.31</ele>
        <time>2012-12-15T14:47:18Z</time>
      </trkpt>
      <trkpt lat="45.51161" lon="5.97923">
        <ele>330.83</ele>
        <time>2012-12-15T14:47:19Z</time>
      </trkpt>
      <trkpt lat="45.51161" lon="5.97891">
        <ele>329.39</ele>
        <time>2012-12-15T14:47:23Z</time>
      </trkpt>
      <trkpt lat="45.51161" lon="5.97863">
        <ele>327.95</ele>
        <time>2012-12-15T14:47:26Z</time>
      </trkpt>
      <trkpt lat="45.51162" lon="5.97787">
        <ele>326.02</ele>
        <time>2012-12-15T14:47:34Z</time>
      </trkpt>
      <trkpt lat="45.51164" lon="5.97779">
        <ele>326.02</ele>
        <time>2012-12-15T14:47:35Z</time>
      </trkpt>
      <trkpt lat="45.51168" lon="5.97773">
        <ele>325.54</ele>
        <time>2012-12-15T14:47:36Z</time>
      </trkpt>
      <trkpt lat="45.51173" lon="5.97768">
        <ele>325.06</ele>
        <time>2012-12-15T14:47:37Z</time>
      </trkpt>
      <trkpt lat="45.51179" lon="5.97766">
        <ele>325.06</ele>
        <time>2012-12-15T14:47:38Z</time>
      </trkpt>
      <trkpt lat="45.51185" lon="5.97767">
        <ele>325.06</ele>
        <time>2012-12-15T14:47:39Z</time>
      </trkpt>
      <trkpt lat="45.51191" lon="5.97769">
        <ele>324.58</ele>
        <time>2012-12-15T14:47:40Z</time>
      </trkpt>
      <trkpt lat="45.51197" lon="5.97774">
        <ele>325.06</ele>
        <time>2012-12-15T14:47:41Z</time>
      </trkpt>
      <trkpt lat="45.51201" lon="5.97779">
        <ele>325.06</ele>
        <time>2012-12-15T14:47:42Z</time>
      </trkpt>
      <trkpt lat="45.51205" lon="5.97784">
        <ele>325.06</ele>
        <time>2012-12-15T14:47:43Z</time>
      </trkpt>
      <trkpt lat="45.51212" lon="5.97793">
        <ele>325.06</ele>
        <time>2012-12-15T14:47:45Z</time>
      </trkpt>
      <trkpt lat="45.51216" lon="5.97795">
        <ele>325.54</ele>
        <time>2012-12-15T14:47:46Z</time>
      </trkpt>
      <trkpt lat="45.5122" lon="5.97796">
        <ele>325.54</ele>
        <time>2012-12-15T14:47:47Z</time>
      </trkpt>
      <trkpt lat="45.51225" lon="5.97796">
        <ele>325.54</ele>
        <time>2012-12-15T14:47:48Z</time>
      </trkpt>
      <trkpt lat="45.51229" lon="5.97794">
        <ele>326.02</ele>
        <time>2012-12-15T14:47:49Z</time>
      </trkpt>
      <trkpt lat="45.51233" lon="5.9779">
        <ele>326.02</ele>
        <time>2012-12-15T14:47:50Z</time>
      </trkpt>
      <trkpt lat="45.51237" lon="5.97786">
        <ele>325.54</ele>
        <time>2012-12-15T14:47:51Z</time>
      </trkpt>
      <trkpt lat="45.5126" lon="5.97763">
        <ele>325.54</ele>
        <time>2012-12-15T14:47:57Z</time>
      </trkpt>
      <trkpt lat="45.51264" lon="5.9776">
        <ele>325.06</ele>
        <time>2012-12-15T14:47:58Z</time>
      </trkpt>
      <trkpt lat="45.51268" lon="5.97758">
        <ele>325.06</ele>
        <time>2012-12-15T14:47:59Z</time>
      </trkpt>
      <trkpt lat="45.51277" lon="5.97756">
        <ele>324.58</ele>
        <time>2012-12-15T14:48:01Z</time>
      </trkpt>
      <trkpt lat="45.51282" lon="5.97757">
        <ele>324.1</ele>
        <time>2012-12-15T14:48:02Z</time>
      </trkpt>
      <trkpt lat="45.51287" lon="5.97759">
        <ele>324.58</ele>
        <time>2012-12-15T14:48:03Z</time>
      </trkpt>
      <trkpt lat="45.51292" lon="5.97763">
        <ele>324.1</ele>
        <time>2012-12-15T14:48:04Z</time>
      </trkpt>
      <trkpt lat="45.51296" lon="5.97768">
        <ele>324.1</ele>
        <time>2012-12-15T14:48:05Z</time>
      </trkpt>
      <trkpt lat="45.513" lon="5.97773">
        <ele>324.58</ele>
        <time>2012-12-15T14:48:06Z</time>
      </trkpt>
      <trkpt lat="45.5131" lon="5.97787">
        <ele>325.06</ele>
        <time>2012-12-15T14:48:09Z</time>
      </trkpt>
      <trkpt lat="45.51331" lon="5.97816">
        <ele>324.58</ele>
        <time>2012-12-15T14:48:15Z</time>
      </trkpt>
      <trkpt lat="45.51364" lon="5.97846">
        <ele>323.62</ele>
        <time>2012-12-15T14:48:22Z</time>
      </trkpt>
      <trkpt lat="45.51369" lon="5.9785">
        <ele>323.62</ele>
        <time>2012-12-15T14:48:23Z</time>
      </trkpt>
      <trkpt lat="45.51379" lon="5.97855">
        <ele>323.62</ele>
        <time>2012-12-15T14:48:25Z</time>
      </trkpt>
      <trkpt lat="45.51384" lon="5.97857">
        <ele>324.1</ele>
        <time>2012-12-15T14:48:26Z</time>
      </trkpt>
      <trkpt lat="45.51389" lon="5.97857">
        <ele>323.62</ele>
        <time>2012-12-15T14:48:27Z</time>
      </trkpt>
      <trkpt lat="45.51394" lon="5.97856">
        <ele>324.1</ele>
        <time>2012-12-15T14:48:28Z</time>
      </trkpt>
      <trkpt lat="45.51399" lon="5.97855">
        <ele>323.62</ele>
        <time>2012-12-15T14:48:29Z</time>
      </trkpt>
      <trkpt lat="45.51403" lon="5.97854">
        <ele>324.1</ele>
        <time>2012-12-15T14:48:30Z</time>
      </trkpt>
      <trkpt lat="45.51412" lon="5.9785">
        <ele>323.62</ele>
        <time>2012-12-15T14:48:32Z</time>
      </trkpt>
      <trkpt lat="45.51416" lon="5.97849">
        <ele>324.1</ele>
        <time>2012-12-15T14:48:33Z</time>
      </trkpt>
      <trkpt lat="45.51421" lon="5.97848">
        <ele>323.62</ele>
        <time>2012-12-15T14:48:34Z</time>
      </trkpt>
      <trkpt lat="45.51498" lon="5.97821">
        <ele>323.14</ele>
        <time>2012-12-15T14:48:50Z</time>
      </trkpt>
      <trkpt lat="45.51577" lon="5.97785">
        <ele>321.7</ele>
        <time>2012-12-15T14:49:05Z</time>
      </trkpt>
      <trkpt lat="45.51681" lon="5.97741">
        <ele>318.81</ele>
        <time>2012-12-15T14:49:23Z</time>
      </trkpt>
      <trkpt lat="45.51687" lon="5.97739">
        <ele>318.33</ele>
        <time>2012-12-15T14:49:24Z</time>
      </trkpt>
      <trkpt lat="45.51693" lon="5.97735">
        <ele>318.33</ele>
        <time>2012-12-15T14:49:25Z</time>
      </trkpt>
      <trkpt lat="45.51699" lon="5.97732">
        <ele>317.85</ele>
        <time>2012-12-15T14:49:26Z</time>
      </trkpt>
      <trkpt lat="45.51704" lon="5.97729">
        <ele>317.37</ele>
        <time>2012-12-15T14:49:27Z</time>
      </trkpt>
      <trkpt lat="45.51711" lon="5.97726">
        <ele>317.37</ele>
        <time>2012-12-15T14:49:28Z</time>
      </trkpt>
      <trkpt lat="45.51716" lon="5.97725">
        <ele>317.37</ele>
        <time>2012-12-15T14:49:29Z</time>
      </trkpt>
      <trkpt lat="45.51722" lon="5.97724">
        <ele>317.37</ele>
        <time>2012-12-15T14:49:30Z</time>
      </trkpt>
      <trkpt lat="45.51727" lon="5.97721">
        <ele>316.89</ele>
        <time>2012-12-15T14:49:31Z</time>
      </trkpt>
      <trkpt lat="45.5173" lon="5.97717">
        <ele>316.89</ele>
        <time>2012-12-15T14:49:32Z</time>
      </trkpt>
      <trkpt lat="45.51734" lon="5.97711">
        <ele>316.41</ele>
        <time>2012-12-15T14:49:33Z</time>
      </trkpt>
      <trkpt lat="45.51777" lon="5.97636">
        <ele>314.49</ele>
        <time>2012-12-15T14:49:44Z</time>
      </trkpt>
      <trkpt lat="45.5179" lon="5.97619">
        <ele>314.01</ele>
        <time>2012-12-15T14:49:47Z</time>
      </trkpt>
      <trkpt lat="45.51834" lon="5.97554">
        <ele>312.57</ele>
        <time>2012-12-15T14:49:58Z</time>
      </trkpt>
      <trkpt lat="45.51839" lon="5.97551">
        <ele>313.05</ele>
        <time>2012-12-15T14:49:59Z</time>
      </trkpt>
      <trkpt lat="45.51844" lon="5.97549">
        <ele>313.53</ele>
        <time>2012-12-15T14:50:00Z</time>
      </trkpt>
      <trkpt lat="45.51849" lon="5.97549">
        <ele>312.57</ele>
        <time>2012-12-15T14:50:01Z</time>
      </trkpt>
      <trkpt lat="45.51854" lon="5.97549">
        <ele>312.57</ele>
        <time>2012-12-15T14:50:02Z</time>
      </trkpt>
      <trkpt lat="45.51859" lon="5.97549">
        <ele>312.57</ele>
        <time>2012-12-15T14:50:03Z</time>
      </trkpt>
      <trkpt lat="45.51863" lon="5.97549">
        <ele>312.57</ele>
        <time>2012-12-15T14:50:04Z</time>
      </trkpt>
      <trkpt lat="45.51867" lon="5.97547">
        <ele>312.57</ele>
        <time>2012-12-15T14:50:05Z</time>
      </trkpt>
      <trkpt lat="45.5187" lon="5.97544">
        <ele>313.05</ele>
        <time>2012-12-15T14:50:06Z</time>
      </trkpt>
      <trkpt lat="45.51873" lon="5.97539">
        <ele>313.05</ele>
        <time>2012-12-15T14:50:07Z</time>
      </trkpt>
      <trkpt lat="45.51874" lon="5.97534">
        <ele>312.57</ele>
        <time>2012-12-15T14:50:08Z</time>
      </trkpt>
      <trkpt lat="45.51874" lon="5.97529">
        <ele>313.05</ele>
        <time>2012-12-15T14:50:09Z</time>
      </trkpt>
      <trkpt lat="45.51874" lon="5.97523">
        <ele>313.53</ele>
        <time>2012-12-15T14:50:10Z</time>
      </trkpt>
      <trkpt lat="45.51874" lon="5.97449">
        <ele>314.97</ele>
        <time>2012-12-15T14:50:25Z</time>
      </trkpt>
      <trkpt lat="45.51908" lon="5.97417">
        <ele>314.97</ele>
        <time>2012-12-15T14:50:37Z</time>
      </trkpt>
      <trkpt lat="45.51943" lon="5.97388">
        <ele>314.97</ele>
        <time>2012-12-15T14:50:50Z</time>
      </trkpt>
      <trkpt lat="45.51981" lon="5.97352">
        <ele>316.41</ele>
        <time>2012-12-15T14:51:05Z</time>
      </trkpt>
      <trkpt lat="45.5197" lon="5.97335">
        <ele>317.37</ele>
        <time>2012-12-15T14:51:12Z</time>
      </trkpt>
      <trkpt lat="45.51967" lon="5.97334">
        <ele>317.85</ele>
        <time>2012-12-15T14:51:13Z</time>
      </trkpt>
      <trkpt lat="45.51964" lon="5.97333">
        <ele>317.85</ele>
        <time>2012-12-15T14:51:14Z</time>
      </trkpt>
      <trkpt lat="45.51917" lon="5.97303">
        <ele>319.3</ele>
        <time>2012-12-15T14:51:31Z</time>
      </trkpt>
      <trkpt lat="45.51888" lon="5.97272">
        <ele>322.18</ele>
        <time>2012-12-15T14:51:44Z</time>
      </trkpt>
      <trkpt lat="45.51859" lon="5.97223">
        <ele>324.58</ele>
        <time>2012-12-15T14:52:01Z</time>
      </trkpt>
      <trkpt lat="45.51843" lon="5.97176">
        <ele>326.02</ele>
        <time>2012-12-15T14:52:13Z</time>
      </trkpt>
      <trkpt lat="45.51826" lon="5.97133">
        <ele>325.54</ele>
        <time>2012-12-15T14:52:22Z</time>
      </trkpt>
      <trkpt lat="45.51824" lon="5.97128">
        <ele>325.54</ele>
        <time>2012-12-15T14:52:23Z</time>
      </trkpt>
      <trkpt lat="45.51822" lon="5.97122">
        <ele>325.54</ele>
        <time>2012-12-15T14:52:24Z</time>
      </trkpt>
      <trkpt lat="45.51822" lon="5.97117">
        <ele>325.54</ele>
        <time>2012-12-15T14:52:25Z</time>
      </trkpt>
      <trkpt lat="45.51821" lon="5.97111">
        <ele>325.54</ele>
        <time>2012-12-15T14:52:26Z</time>
      </trkpt>
      <trkpt lat="45.51821" lon="5.97104">
        <ele>325.54</ele>
        <time>2012-12-15T14:52:27Z</time>
      </trkpt>
      <trkpt lat="45.51821" lon="5.97099">
        <ele>325.54</ele>
        <time>2012-12-15T14:52:28Z</time>
      </trkpt>
      <trkpt lat="45.5182" lon="5.97081">
        <ele>325.06</ele>
        <time>2012-12-15T14:52:31Z</time>
      </trkpt>
      <trkpt lat="45.51801" lon="5.97003">
        <ele>322.18</ele>
        <time>2012-12-15T14:52:44Z</time>
      </trkpt>
      <trkpt lat="45.51799" lon="5.96997">
        <ele>321.7</ele>
        <time>2012-12-15T14:52:45Z</time>
      </trkpt>
      <trkpt lat="45.51799" lon="5.9699">
        <ele>320.74</ele>
        <time>2012-12-15T14:52:46Z</time>
      </trkpt>
      <trkpt lat="45.51799" lon="5.96982">
        <ele>320.26</ele>
        <time>2012-12-15T14:52:47Z</time>
      </trkpt>
      <trkpt lat="45.51798" lon="5.96975">
        <ele>320.26</ele>
        <time>2012-12-15T14:52:48Z</time>
      </trkpt>
      <trkpt lat="45.51795" lon="5.96968">
        <ele>320.26</ele>
        <time>2012-12-15T14:52:49Z</time>
      </trkpt>
      <trkpt lat="45.51793" lon="5.96961">
        <ele>320.26</ele>
        <time>2012-12-15T14:52:50Z</time>
      </trkpt>
      <trkpt lat="45.51791" lon="5.96955">
        <ele>320.26</ele>
        <time>2012-12-15T14:52:51Z</time>
      </trkpt>
      <trkpt lat="45.51776" lon="5.96908">
        <ele>318.81</ele>
        <time>2012-12-15T14:52:59Z</time>
      </trkpt>
      <trkpt lat="45.51765" lon="5.96862">
        <ele>318.33</ele>
        <time>2012-12-15T14:53:08Z</time>
      </trkpt>
      <trkpt lat="45.51759" lon="5.96849">
        <ele>318.33</ele>
        <time>2012-12-15T14:53:11Z</time>
      </trkpt>
      <trkpt lat="45.51755" lon="5.96847">
        <ele>318.33</ele>
        <time>2012-12-15T14:53:12Z</time>
      </trkpt>
      <trkpt lat="45.51752" lon="5.96847">
        <ele>318.33</ele>
        <time>2012-12-15T14:53:13Z</time>
      </trkpt>
      <trkpt lat="45.51748" lon="5.96848">
        <ele>318.33</ele>
        <time>2012-12-15T14:53:14Z</time>
      </trkpt>
      <trkpt lat="45.51745" lon="5.96849">
        <ele>318.33</ele>
        <time>2012-12-15T14:53:15Z</time>
      </trkpt>
      <trkpt lat="45.51712" lon="5.96862">
        <ele>318.33</ele>
        <time>2012-12-15T14:53:24Z</time>
      </trkpt>
      <trkpt lat="45.51708" lon="5.96863">
        <ele>318.33</ele>
        <time>2012-12-15T14:53:25Z</time>
      </trkpt>
      <trkpt lat="45.517" lon="5.96865">
        <ele>317.85</ele>
        <time>2012-12-15T14:53:27Z</time>
      </trkpt>
      <trkpt lat="45.51696" lon="5.96866">
        <ele>317.85</ele>
        <time>2012-12-15T14:53:28Z</time>
      </trkpt>
      <trkpt lat="45.51662" lon="5.96875">
        <ele>317.37</ele>
        <time>2012-12-15T14:53:37Z</time>
      </trkpt>
      <trkpt lat="45.51659" lon="5.96874">
        <ele>317.37</ele>
        <time>2012-12-15T14:53:38Z</time>
      </trkpt>
      <trkpt lat="45.51656" lon="5.96871">
        <ele>317.37</ele>
        <time>2012-12-15T14:53:39Z</time>
      </trkpt>
      <trkpt lat="45.51654" lon="5.96868">
        <ele>317.85</ele>
        <time>2012-12-15T14:53:40Z</time>
      </trkpt>
      <trkpt lat="45.51651" lon="5.96864">
        <ele>317.37</ele>
        <time>2012-12-15T14:53:41Z</time>
      </trkpt>
      <trkpt lat="45.51646" lon="5.96856">
        <ele>316.89</ele>
        <time>2012-12-15T14:53:43Z</time>
      </trkpt>
      <trkpt lat="45.51642" lon="5.96853">
        <ele>316.89</ele>
        <time>2012-12-15T14:53:44Z</time>
      </trkpt>
      <trkpt lat="45.51638" lon="5.96852">
        <ele>316.89</ele>
        <time>2012-12-15T14:53:45Z</time>
      </trkpt>
      <trkpt lat="45.51635" lon="5.96852">
        <ele>316.89</ele>
        <time>2012-12-15T14:53:46Z</time>
      </trkpt>
      <trkpt lat="45.5163" lon="5.96851">
        <ele>316.41</ele>
        <time>2012-12-15T14:53:47Z</time>
      </trkpt>
      <trkpt lat="45.51616" lon="5.96834">
        <ele>316.89</ele>
        <time>2012-12-15T14:53:52Z</time>
      </trkpt>
      <trkpt lat="45.51614" lon="5.96829">
        <ele>316.89</ele>
        <time>2012-12-15T14:53:53Z</time>
      </trkpt>
      <trkpt lat="45.51613" lon="5.96824">
        <ele>316.41</ele>
        <time>2012-12-15T14:53:54Z</time>
      </trkpt>
      <trkpt lat="45.5161" lon="5.96819">
        <ele>316.41</ele>
        <time>2012-12-15T14:53:55Z</time>
      </trkpt>
      <trkpt lat="45.51608" lon="5.96814">
        <ele>316.41</ele>
        <time>2012-12-15T14:53:56Z</time>
      </trkpt>
      <trkpt lat="45.51606" lon="5.96809">
        <ele>316.41</ele>
        <time>2012-12-15T14:53:57Z</time>
      </trkpt>
      <trkpt lat="45.51606" lon="5.96803">
        <ele>316.41</ele>
        <time>2012-12-15T14:53:58Z</time>
      </trkpt>
      <trkpt lat="45.51606" lon="5.96797">
        <ele>316.41</ele>
        <time>2012-12-15T14:53:59Z</time>
      </trkpt>
      <trkpt lat="45.51606" lon="5.96791">
        <ele>316.41</ele>
        <time>2012-12-15T14:54:00Z</time>
      </trkpt>
      <trkpt lat="45.516" lon="5.96731">
        <ele>315.93</ele>
        <time>2012-12-15T14:54:11Z</time>
      </trkpt>
      <trkpt lat="45.51583" lon="5.96677">
        <ele>315.93</ele>
        <time>2012-12-15T14:54:23Z</time>
      </trkpt>
      <trkpt lat="45.51582" lon="5.96671">
        <ele>315.45</ele>
        <time>2012-12-15T14:54:24Z</time>
      </trkpt>
      <trkpt lat="45.51582" lon="5.96665">
        <ele>315.45</ele>
        <time>2012-12-15T14:54:25Z</time>
      </trkpt>
      <trkpt lat="45.51583" lon="5.9666">
        <ele>315.45</ele>
        <time>2012-12-15T14:54:26Z</time>
      </trkpt>
      <trkpt lat="45.51584" lon="5.96655">
        <ele>315.93</ele>
        <time>2012-12-15T14:54:27Z</time>
      </trkpt>
      <trkpt lat="45.51626" lon="5.96636">
        <ele>314.97</ele>
        <time>2012-12-15T14:54:38Z</time>
      </trkpt>
      <trkpt lat="45.51691" lon="5.96618">
        <ele>314.49</ele>
        <time>2012-12-15T14:54:54Z</time>
      </trkpt>
      <trkpt lat="45.51711" lon="5.96614">
        <ele>314.49</ele>
        <time>2012-12-15T14:54:59Z</time>
      </trkpt>
      <trkpt lat="45.51714" lon="5.96612">
        <ele>314.97</ele>
        <time>2012-12-15T14:55:00Z</time>
      </trkpt>
      <trkpt lat="45.51776" lon="5.96591">
        <ele>314.01</ele>
        <time>2012-12-15T14:55:16Z</time>
      </trkpt>
      <trkpt lat="45.51782" lon="5.96539">
        <ele>313.53</ele>
        <time>2012-12-15T14:55:26Z</time>
      </trkpt>
      <trkpt lat="45.51795" lon="5.96493">
        <ele>313.05</ele>
        <time>2012-12-15T14:55:37Z</time>
      </trkpt>
      <trkpt lat="45.51834" lon="5.96471">
        <ele>313.05</ele>
        <time>2012-12-15T14:55:49Z</time>
      </trkpt>
      <trkpt lat="45.51835" lon="5.96413">
        <ele>312.57</ele>
        <time>2012-12-15T14:55:59Z</time>
      </trkpt>
      <trkpt lat="45.51833" lon="5.96406">
        <ele>312.57</ele>
        <time>2012-12-15T14:56:03Z</time>
      </trkpt>
      <trkpt lat="45.51834" lon="5.96409">
        <ele>312.09</ele>
        <time>2012-12-15T14:56:05Z</time>
      </trkpt>
      <trkpt lat="45.51834" lon="5.96409">
        <ele>312.09</ele>
        <time>2012-12-15T14:56:37Z</time>
      </trkpt>
      <trkpt lat="45.51833" lon="5.96407">
        <ele>312.57</ele>
        <time>2012-12-15T14:56:48Z</time>
      </trkpt>
      <trkpt lat="45.51833" lon="5.96405">
        <ele>312.57</ele>
        <time>2012-12-15T14:56:49Z</time>
      </trkpt>
      <trkpt lat="45.51833" lon="5.96401">
        <ele>312.57</ele>
        <time>2012-12-15T14:56:50Z</time>
      </trkpt>
      <trkpt lat="45.51838" lon="5.9634">
        <ele>312.09</ele>
        <time>2012-12-15T14:57:01Z</time>
      </trkpt>
      <trkpt lat="45.51843" lon="5.96249">
        <ele>313.05</ele>
        <time>2012-12-15T14:57:16Z</time>
      </trkpt>
      <trkpt lat="45.51846" lon="5.96214">
        <ele>312.57</ele>
        <time>2012-12-15T14:57:22Z</time>
      </trkpt>
      <trkpt lat="45.51851" lon="5.96197">
        <ele>312.57</ele>
        <time>2012-12-15T14:57:25Z</time>
      </trkpt>
      <trkpt lat="45.51854" lon="5.96186">
        <ele>312.57</ele>
        <time>2012-12-15T14:57:27Z</time>
      </trkpt>
      <trkpt lat="45.51856" lon="5.9618">
        <ele>312.09</ele>
        <time>2012-12-15T14:57:28Z</time>
      </trkpt>
      <trkpt lat="45.51857" lon="5.96174">
        <ele>312.09</ele>
        <time>2012-12-15T14:57:29Z</time>
      </trkpt>
      <trkpt lat="45.51857" lon="5.96167">
        <ele>312.57</ele>
        <time>2012-12-15T14:57:30Z</time>
      </trkpt>
      <trkpt lat="45.51856" lon="5.96161">
        <ele>312.57</ele>
        <time>2012-12-15T14:57:31Z</time>
      </trkpt>
      <trkpt lat="45.51855" lon="5.96154">
        <ele>312.09</ele>
        <time>2012-12-15T14:57:32Z</time>
      </trkpt>
      <trkpt lat="45.51854" lon="5.96148">
        <ele>312.09</ele>
        <time>2012-12-15T14:57:33Z</time>
      </trkpt>
      <trkpt lat="45.51852" lon="5.96142">
        <ele>312.57</ele>
        <time>2012-12-15T14:57:34Z</time>
      </trkpt>
      <trkpt lat="45.5185" lon="5.96136">
        <ele>312.57</ele>
        <time>2012-12-15T14:57:35Z</time>
      </trkpt>
      <trkpt lat="45.51845" lon="5.96118">
        <ele>312.57</ele>
        <time>2012-12-15T14:57:38Z</time>
      </trkpt>
      <trkpt lat="45.51844" lon="5.96112">
        <ele>312.57</ele>
        <time>2012-12-15T14:57:39Z</time>
      </trkpt>
      <trkpt lat="45.51843" lon="5.96106">
        <ele>313.05</ele>
        <time>2012-12-15T14:57:40Z</time>
      </trkpt>
      <trkpt lat="45.51834" lon="5.96067">
        <ele>313.05</ele>
        <time>2012-12-15T14:57:47Z</time>
      </trkpt>
      <trkpt lat="45.51812" lon="5.95962">
        <ele>314.01</ele>
        <time>2012-12-15T14:58:05Z</time>
      </trkpt>
      <trkpt lat="45.51802" lon="5.95906">
        <ele>315.45</ele>
        <time>2012-12-15T14:58:15Z</time>
      </trkpt>
      <trkpt lat="45.51803" lon="5.95894">
        <ele>315.45</ele>
        <time>2012-12-15T14:58:17Z</time>
      </trkpt>
      <trkpt lat="45.51821" lon="5.95775">
        <ele>315.45</ele>
        <time>2012-12-15T14:58:37Z</time>
      </trkpt>
      <trkpt lat="45.51845" lon="5.95751">
        <ele>315.45</ele>
        <time>2012-12-15T14:58:45Z</time>
      </trkpt>
      <trkpt lat="45.5185" lon="5.95749">
        <ele>315.93</ele>
        <time>2012-12-15T14:58:46Z</time>
      </trkpt>
      <trkpt lat="45.51856" lon="5.95747">
        <ele>315.45</ele>
        <time>2012-12-15T14:58:47Z</time>
      </trkpt>
      <trkpt lat="45.51885" lon="5.95721">
        <ele>315.93</ele>
        <time>2012-12-15T14:58:54Z</time>
      </trkpt>
      <trkpt lat="45.51909" lon="5.95695">
        <ele>314.97</ele>
        <time>2012-12-15T14:59:00Z</time>
      </trkpt>
      <trkpt lat="45.51918" lon="5.95681">
        <ele>314.97</ele>
        <time>2012-12-15T14:59:03Z</time>
      </trkpt>
      <trkpt lat="45.51921" lon="5.95676">
        <ele>314.97</ele>
        <time>2012-12-15T14:59:04Z</time>
      </trkpt>
      <trkpt lat="45.51922" lon="5.9567">
        <ele>315.45</ele>
        <time>2012-12-15T14:59:05Z</time>
      </trkpt>
      <trkpt lat="45.51922" lon="5.95664">
        <ele>314.97</ele>
        <time>2012-12-15T14:59:06Z</time>
      </trkpt>
      <trkpt lat="45.51922" lon="5.95658">
        <ele>314.49</ele>
        <time>2012-12-15T14:59:07Z</time>
      </trkpt>
      <trkpt lat="45.51922" lon="5.95652">
        <ele>314.97</ele>
        <time>2012-12-15T14:59:08Z</time>
      </trkpt>
      <trkpt lat="45.51916" lon="5.95611">
        <ele>317.37</ele>
        <time>2012-12-15T14:59:19Z</time>
      </trkpt>
      <trkpt lat="45.5191" lon="5.95603">
        <ele>318.33</ele>
        <time>2012-12-15T14:59:24Z</time>
      </trkpt>
      <trkpt lat="45.5191" lon="5.956">
        <ele>318.81</ele>
        <time>2012-12-15T14:59:25Z</time>
      </trkpt>
      <trkpt lat="45.51909" lon="5.95599">
        <ele>318.33</ele>
        <time>2012-12-15T14:59:26Z</time>
      </trkpt>
      <trkpt lat="45.51908" lon="5.95597">
        <ele>318.81</ele>
        <time>2012-12-15T14:59:27Z</time>
      </trkpt>
      <trkpt lat="45.51908" lon="5.95595">
        <ele>318.81</ele>
        <time>2012-12-15T14:59:28Z</time>
      </trkpt>
      <trkpt lat="45.51895" lon="5.95559">
        <ele>321.22</ele>
        <time>2012-12-15T14:59:44Z</time>
      </trkpt>
      <trkpt lat="45.51892" lon="5.9555">
        <ele>321.7</ele>
        <time>2012-12-15T14:59:49Z</time>
      </trkpt>
      <trkpt lat="45.51891" lon="5.95548">
        <ele>321.7</ele>
        <time>2012-12-15T14:59:50Z</time>
      </trkpt>
      <trkpt lat="45.51891" lon="5.95546">
        <ele>322.18</ele>
        <time>2012-12-15T14:59:51Z</time>
      </trkpt>
      <trkpt lat="45.5189" lon="5.95544">
        <ele>322.18</ele>
        <time>2012-12-15T14:59:52Z</time>
      </trkpt>
      <trkpt lat="45.5189" lon="5.95542">
        <ele>322.66</ele>
        <time>2012-12-15T14:59:53Z</time>
      </trkpt>
      <trkpt lat="45.51889" lon="5.9554">
        <ele>322.66</ele>
        <time>2012-12-15T14:59:54Z</time>
      </trkpt>
      <trkpt lat="45.51889" lon="5.95538">
        <ele>323.14</ele>
        <time>2012-12-15T14:59:55Z</time>
      </trkpt>
      <trkpt lat="45.51888" lon="5.95537">
        <ele>323.14</ele>
        <time>2012-12-15T14:59:56Z</time>
      </trkpt>
      <trkpt lat="45.51888" lon="5.95535">
        <ele>323.14</ele>
        <time>2012-12-15T14:59:57Z</time>
      </trkpt>
      <trkpt lat="45.51888" lon="5.95533">
        <ele>323.14</ele>
        <time>2012-12-15T14:59:58Z</time>
      </trkpt>
      <trkpt lat="45.51888" lon="5.95531">
        <ele>323.62</ele>
        <time>2012-12-15T14:59:59Z</time>
      </trkpt>
      <trkpt lat="45.51888" lon="5.95529">
        <ele>323.62</ele>
        <time>2012-12-15T15:00:00Z</time>
      </trkpt>
      <trkpt lat="45.51887" lon="5.95528">
        <ele>324.1</ele>
        <time>2012-12-15T15:00:01Z</time>
      </trkpt>
      <trkpt lat="45.51887" lon="5.95526">
        <ele>324.1</ele>
        <time>2012-12-15T15:00:02Z</time>
      </trkpt>
      <trkpt lat="45.51887" lon="5.95524">
        <ele>324.58</ele>
        <time>2012-12-15T15:00:03Z</time>
      </trkpt>
      <trkpt lat="45.51887" lon="5.95523">
        <ele>324.58</ele>
        <time>2012-12-15T15:00:04Z</time>
      </trkpt>
      <trkpt lat="45.51886" lon="5.95521">
        <ele>325.06</ele>
        <time>2012-12-15T15:00:05Z</time>
      </trkpt>
      <trkpt lat="45.51886" lon="5.95519">
        <ele>324.58</ele>
        <time>2012-12-15T15:00:06Z</time>
      </trkpt>
      <trkpt lat="45.51886" lon="5.95517">
        <ele>325.06</ele>
        <time>2012-12-15T15:00:07Z</time>
      </trkpt>
      <trkpt lat="45.51883" lon="5.95496">
        <ele>327.47</ele>
        <time>2012-12-15T15:00:19Z</time>
      </trkpt>
      <trkpt lat="45.51883" lon="5.95494">
        <ele>327.47</ele>
        <time>2012-12-15T15:00:20Z</time>
      </trkpt>
      <trkpt lat="45.51883" lon="5.95492">
        <ele>327.47</ele>
        <time>2012-12-15T15:00:21Z</time>
      </trkpt>
      <trkpt lat="45.51883" lon="5.95491">
        <ele>327.47</ele>
        <time>2012-12-15T15:00:22Z</time>
      </trkpt>
      <trkpt lat="45.51882" lon="5.95489">
        <ele>327.95</ele>
        <time>2012-12-15T15:00:23Z</time>
      </trkpt>
      <trkpt lat="45.51889" lon="5.95462">
        <ele>329.87</ele>
        <time>2012-12-15T15:00:40Z</time>
      </trkpt>
      <trkpt lat="45.51889" lon="5.9546">
        <ele>330.35</ele>
        <time>2012-12-15T15:00:41Z</time>
      </trkpt>
      <trkpt lat="45.51889" lon="5.95458">
        <ele>330.35</ele>
        <time>2012-12-15T15:00:42Z</time>
      </trkpt>
      <trkpt lat="45.51889" lon="5.95456">
        <ele>330.35</ele>
        <time>2012-12-15T15:00:43Z</time>
      </trkpt>
      <trkpt lat="45.51889" lon="5.95455">
        <ele>330.83</ele>
        <time>2012-12-15T15:00:44Z</time>
      </trkpt>
      <trkpt lat="45.51889" lon="5.95453">
        <ele>330.83</ele>
        <time>2012-12-15T15:00:45Z</time>
      </trkpt>
      <trkpt lat="45.51889" lon="5.95451">
        <ele>330.83</ele>
        <time>2012-12-15T15:00:46Z</time>
      </trkpt>
      <trkpt lat="45.51888" lon="5.9545">
        <ele>331.31</ele>
        <time>2012-12-15T15:00:47Z</time>
      </trkpt>
      <trkpt lat="45.51886" lon="5.95426">
        <ele>334.2</ele>
        <time>2012-12-15T15:01:02Z</time>
      </trkpt>
      <trkpt lat="45.51886" lon="5.95418">
        <ele>335.64</ele>
        <time>2012-12-15T15:01:08Z</time>
      </trkpt>
      <trkpt lat="45.51886" lon="5.95416">
        <ele>335.64</ele>
        <time>2012-12-15T15:01:09Z</time>
      </trkpt>
      <trkpt lat="45.51886" lon="5.95414">
        <ele>336.12</ele>
        <time>2012-12-15T15:01:10Z</time>
      </trkpt>
      <trkpt lat="45.51886" lon="5.95413">
        <ele>336.12</ele>
        <time>2012-12-15T15:01:11Z</time>
      </trkpt>
      <trkpt lat="45.51885" lon="5.95411">
        <ele>336.6</ele>
        <time>2012-12-15T15:01:12Z</time>
      </trkpt>
      <trkpt lat="45.51885" lon="5.95406">
        <ele>337.56</ele>
        <time>2012-12-15T15:01:15Z</time>
      </trkpt>
      <trkpt lat="45.51885" lon="5.95404">
        <ele>338.04</ele>
        <time>2012-12-15T15:01:17Z</time>
      </trkpt>
      <trkpt lat="45.51885" lon="5.95402">
        <ele>338.52</ele>
        <time>2012-12-15T15:01:18Z</time>
      </trkpt>
      <trkpt lat="45.51886" lon="5.95401">
        <ele>338.52</ele>
        <time>2012-12-15T15:01:19Z</time>
      </trkpt>
      <trkpt lat="45.51887" lon="5.95399">
        <ele>338.52</ele>
        <time>2012-12-15T15:01:20Z</time>
      </trkpt>
      <trkpt lat="45.51887" lon="5.95395">
        <ele>339.48</ele>
        <time>2012-12-15T15:01:23Z</time>
      </trkpt>
      <trkpt lat="45.51886" lon="5.95394">
        <ele>339.48</ele>
        <time>2012-12-15T15:01:24Z</time>
      </trkpt>
      <trkpt lat="45.51884" lon="5.9539">
        <ele>340.44</ele>
        <time>2012-12-15T15:01:27Z</time>
      </trkpt>
      <trkpt lat="45.51883" lon="5.95389">
        <ele>339.96</ele>
        <time>2012-12-15T15:01:28Z</time>
      </trkpt>
      <trkpt lat="45.51883" lon="5.95387">
        <ele>340.44</ele>
        <time>2012-12-15T15:01:29Z</time>
      </trkpt>
      <trkpt lat="45.51883" lon="5.95385">
        <ele>340.44</ele>
        <time>2012-12-15T15:01:30Z</time>
      </trkpt>
      <trkpt lat="45.5188" lon="5.95372">
        <ele>341.41</ele>
        <time>2012-12-15T15:01:39Z</time>
      </trkpt>
      <trkpt lat="45.5188" lon="5.95371">
        <ele>341.41</ele>
        <time>2012-12-15T15:01:40Z</time>
      </trkpt>
      <trkpt lat="45.51879" lon="5.95364">
        <ele>341.89</ele>
        <time>2012-12-15T15:01:45Z</time>
      </trkpt>
      <trkpt lat="45.51875" lon="5.95343">
        <ele>344.29</ele>
        <time>2012-12-15T15:02:00Z</time>
      </trkpt>
      <trkpt lat="45.51876" lon="5.95331">
        <ele>345.73</ele>
        <time>2012-12-15T15:02:07Z</time>
      </trkpt>
      <trkpt lat="45.51876" lon="5.9533">
        <ele>345.73</ele>
        <time>2012-12-15T15:02:08Z</time>
      </trkpt>
      <trkpt lat="45.51876" lon="5.95328">
        <ele>345.73</ele>
        <time>2012-12-15T15:02:09Z</time>
      </trkpt>
      <trkpt lat="45.51876" lon="5.95326">
        <ele>345.73</ele>
        <time>2012-12-15T15:02:10Z</time>
      </trkpt>
      <trkpt lat="45.51876" lon="5.95325">
        <ele>345.73</ele>
        <time>2012-12-15T15:02:11Z</time>
      </trkpt>
      <trkpt lat="45.51875" lon="5.95323">
        <ele>346.21</ele>
        <time>2012-12-15T15:02:12Z</time>
      </trkpt>
      <trkpt lat="45.51875" lon="5.95322">
        <ele>346.21</ele>
        <time>2012-12-15T15:02:13Z</time>
      </trkpt>
      <trkpt lat="45.51872" lon="5.95311">
        <ele>347.17</ele>
        <time>2012-12-15T15:02:19Z</time>
      </trkpt>
      <trkpt lat="45.51872" lon="5.95309">
        <ele>347.65</ele>
        <time>2012-12-15T15:02:20Z</time>
      </trkpt>
      <trkpt lat="45.51872" lon="5.95307">
        <ele>347.65</ele>
        <time>2012-12-15T15:02:21Z</time>
      </trkpt>
      <trkpt lat="45.51872" lon="5.95305">
        <ele>347.17</ele>
        <time>2012-12-15T15:02:22Z</time>
      </trkpt>
      <trkpt lat="45.51872" lon="5.95304">
        <ele>347.65</ele>
        <time>2012-12-15T15:02:23Z</time>
      </trkpt>
      <trkpt lat="45.5187" lon="5.95296">
        <ele>348.13</ele>
        <time>2012-12-15T15:02:27Z</time>
      </trkpt>
      <trkpt lat="45.51869" lon="5.95294">
        <ele>348.62</ele>
        <time>2012-12-15T15:02:28Z</time>
      </trkpt>
      <trkpt lat="45.51864" lon="5.95267">
        <ele>350.54</ele>
        <time>2012-12-15T15:02:44Z</time>
      </trkpt>
      <trkpt lat="45.51851" lon="5.95262">
        <ele>353.9</ele>
        <time>2012-12-15T15:02:54Z</time>
      </trkpt>
      <trkpt lat="45.51842" lon="5.9526">
        <ele>354.86</ele>
        <time>2012-12-15T15:03:02Z</time>
      </trkpt>
      <trkpt lat="45.51848" lon="5.95255">
        <ele>355.34</ele>
        <time>2012-12-15T15:03:07Z</time>
      </trkpt>
      <trkpt lat="45.51879" lon="5.95234">
        <ele>356.31</ele>
        <time>2012-12-15T15:03:24Z</time>
      </trkpt>
      <trkpt lat="45.51908" lon="5.952">
        <ele>357.27</ele>
        <time>2012-12-15T15:03:40Z</time>
      </trkpt>
      <trkpt lat="45.51923" lon="5.95178">
        <ele>358.23</ele>
        <time>2012-12-15T15:03:55Z</time>
      </trkpt>
      <trkpt lat="45.51924" lon="5.95178">
        <ele>357.75</ele>
        <time>2012-12-15T15:04:37Z</time>
      </trkpt>
      <trkpt lat="45.51923" lon="5.95178">
        <ele>357.75</ele>
        <time>2012-12-15T15:05:18Z</time>
      </trkpt>
      <trkpt lat="45.51924" lon="5.95178">
        <ele>357.75</ele>
        <time>2012-12-15T15:05:57Z</time>
      </trkpt>
      <trkpt lat="45.51924" lon="5.95178">
        <ele>357.75</ele>
        <time>2012-12-15T15:06:10Z</time>
      </trkpt>
      <trkpt lat="45.5196" lon="5.95148">
        <ele>358.71</ele>
        <time>2012-12-15T15:06:27Z</time>
      </trkpt>
      <trkpt lat="45.52004" lon="5.95132">
        <ele>359.19</ele>
        <time>2012-12-15T15:06:41Z</time>
      </trkpt>
      <trkpt lat="45.52038" lon="5.95111">
        <ele>357.75</ele>
        <time>2012-12-15T15:06:52Z</time>
      </trkpt>
      <trkpt lat="45.52052" lon="5.95101">
        <ele>357.75</ele>
        <time>2012-12-15T15:06:56Z</time>
      </trkpt>
      <trkpt lat="45.52064" lon="5.95096">
        <ele>357.75</ele>
        <time>2012-12-15T15:06:59Z</time>
      </trkpt>
      <trkpt lat="45.52121" lon="5.95069">
        <ele>354.38</ele>
        <time>2012-12-15T15:07:13Z</time>
      </trkpt>
      <trkpt lat="45.52138" lon="5.95056">
        <ele>352.94</ele>
        <time>2012-12-15T15:07:18Z</time>
      </trkpt>
      <trkpt lat="45.52139" lon="5.95051">
        <ele>351.98</ele>
        <time>2012-12-15T15:07:19Z</time>
      </trkpt>
      <trkpt lat="45.52139" lon="5.95047">
        <ele>351.5</ele>
        <time>2012-12-15T15:07:20Z</time>
      </trkpt>
      <trkpt lat="45.52139" lon="5.95043">
        <ele>351.02</ele>
        <time>2012-12-15T15:07:21Z</time>
      </trkpt>
      <trkpt lat="45.52138" lon="5.95038">
        <ele>351.02</ele>
        <time>2012-12-15T15:07:22Z</time>
      </trkpt>
      <trkpt lat="45.52137" lon="5.95034">
        <ele>351.02</ele>
        <time>2012-12-15T15:07:23Z</time>
      </trkpt>
      <trkpt lat="45.52137" lon="5.95028">
        <ele>350.54</ele>
        <time>2012-12-15T15:07:25Z</time>
      </trkpt>
      <trkpt lat="45.52138" lon="5.95027">
        <ele>350.54</ele>
        <time>2012-12-15T15:07:26Z</time>
      </trkpt>
      <trkpt lat="45.5214" lon="5.95026">
        <ele>351.02</ele>
        <time>2012-12-15T15:07:27Z</time>
      </trkpt>
      <trkpt lat="45.52144" lon="5.95026">
        <ele>351.02</ele>
        <time>2012-12-15T15:07:28Z</time>
      </trkpt>
      <trkpt lat="45.52147" lon="5.95026">
        <ele>350.54</ele>
        <time>2012-12-15T15:07:29Z</time>
      </trkpt>
      <trkpt lat="45.52181" lon="5.95037">
        <ele>351.98</ele>
        <time>2012-12-15T15:07:41Z</time>
      </trkpt>
      <trkpt lat="45.52215" lon="5.95037">
        <ele>351.98</ele>
        <time>2012-12-15T15:07:54Z</time>
      </trkpt>
      <trkpt lat="45.52227" lon="5.95035">
        <ele>351.02</ele>
        <time>2012-12-15T15:07:57Z</time>
      </trkpt>
      <trkpt lat="45.52232" lon="5.95034">
        <ele>350.54</ele>
        <time>2012-12-15T15:07:58Z</time>
      </trkpt>
      <trkpt lat="45.52255" lon="5.95015">
        <ele>349.58</ele>
        <time>2012-12-15T15:08:06Z</time>
      </trkpt>
      <trkpt lat="45.52261" lon="5.94995">
        <ele>349.58</ele>
        <time>2012-12-15T15:08:12Z</time>
      </trkpt>
      <trkpt lat="45.52263" lon="5.94993">
        <ele>349.1</ele>
        <time>2012-12-15T15:08:13Z</time>
      </trkpt>
      <trkpt lat="45.52264" lon="5.94991">
        <ele>350.06</ele>
        <time>2012-12-15T15:08:14Z</time>
      </trkpt>
      <trkpt lat="45.52266" lon="5.94989">
        <ele>350.06</ele>
        <time>2012-12-15T15:08:15Z</time>
      </trkpt>
      <trkpt lat="45.52267" lon="5.94988">
        <ele>350.06</ele>
        <time>2012-12-15T15:08:16Z</time>
      </trkpt>
      <trkpt lat="45.52269" lon="5.94988">
        <ele>350.06</ele>
        <time>2012-12-15T15:08:17Z</time>
      </trkpt>
      <trkpt lat="45.5227" lon="5.94988">
        <ele>350.54</ele>
        <time>2012-12-15T15:08:18Z</time>
      </trkpt>
      <trkpt lat="45.52272" lon="5.94987">
        <ele>350.54</ele>
        <time>2012-12-15T15:08:19Z</time>
      </trkpt>
      <trkpt lat="45.52274" lon="5.94986">
        <ele>350.54</ele>
        <time>2012-12-15T15:08:20Z</time>
      </trkpt>
      <trkpt lat="45.52276" lon="5.94986">
        <ele>351.02</ele>
        <time>2012-12-15T15:08:21Z</time>
      </trkpt>
      <trkpt lat="45.52278" lon="5.94985">
        <ele>351.02</ele>
        <time>2012-12-15T15:08:22Z</time>
      </trkpt>
      <trkpt lat="45.5228" lon="5.94985">
        <ele>351.02</ele>
        <time>2012-12-15T15:08:23Z</time>
      </trkpt>
      <trkpt lat="45.52282" lon="5.94985">
        <ele>351.5</ele>
        <time>2012-12-15T15:08:24Z</time>
      </trkpt>
      <trkpt lat="45.5232" lon="5.94982">
        <ele>353.42</ele>
        <time>2012-12-15T15:08:38Z</time>
      </trkpt>
      <trkpt lat="45.52358" lon="5.9497">
        <ele>352.46</ele>
        <time>2012-12-15T15:08:51Z</time>
      </trkpt>
      <trkpt lat="45.52375" lon="5.94965">
        <ele>351.5</ele>
        <time>2012-12-15T15:08:56Z</time>
      </trkpt>
      <trkpt lat="45.52394" lon="5.94964">
        <ele>351.02</ele>
        <time>2012-12-15T15:09:00Z</time>
      </trkpt>
      <trkpt lat="45.52399" lon="5.94964">
        <ele>351.02</ele>
        <time>2012-12-15T15:09:01Z</time>
      </trkpt>
      <trkpt lat="45.52433" lon="5.94969">
        <ele>349.1</ele>
        <time>2012-12-15T15:09:08Z</time>
      </trkpt>
      <trkpt lat="45.5244" lon="5.94968">
        <ele>348.62</ele>
        <time>2012-12-15T15:09:09Z</time>
      </trkpt>
      <trkpt lat="45.52459" lon="5.94962">
        <ele>347.65</ele>
        <time>2012-12-15T15:09:12Z</time>
      </trkpt>
      <trkpt lat="45.52465" lon="5.94959">
        <ele>347.17</ele>
        <time>2012-12-15T15:09:13Z</time>
      </trkpt>
      <trkpt lat="45.52483" lon="5.94944">
        <ele>346.69</ele>
        <time>2012-12-15T15:09:16Z</time>
      </trkpt>
      <trkpt lat="45.52487" lon="5.94938">
        <ele>346.69</ele>
        <time>2012-12-15T15:09:17Z</time>
      </trkpt>
      <trkpt lat="45.525" lon="5.94921">
        <ele>346.69</ele>
        <time>2012-12-15T15:09:20Z</time>
      </trkpt>
      <trkpt lat="45.52504" lon="5.94918">
        <ele>346.69</ele>
        <time>2012-12-15T15:09:21Z</time>
      </trkpt>
      <trkpt lat="45.52509" lon="5.94915">
        <ele>346.69</ele>
        <time>2012-12-15T15:09:22Z</time>
      </trkpt>
      <trkpt lat="45.52537" lon="5.94911">
        <ele>348.62</ele>
        <time>2012-12-15T15:09:32Z</time>
      </trkpt>
      <trkpt lat="45.52565" lon="5.94907">
        <ele>351.02</ele>
        <time>2012-12-15T15:09:44Z</time>
      </trkpt>
      <trkpt lat="45.52593" lon="5.94903">
        <ele>352.46</ele>
        <time>2012-12-15T15:09:54Z</time>
      </trkpt>
      <trkpt lat="45.5263" lon="5.94886">
        <ele>352.94</ele>
        <time>2012-12-15T15:10:08Z</time>
      </trkpt>
      <trkpt lat="45.52668" lon="5.94873">
        <ele>354.38</ele>
        <time>2012-12-15T15:10:20Z</time>
      </trkpt>
      <trkpt lat="45.52723" lon="5.94864">
        <ele>355.83</ele>
        <time>2012-12-15T15:10:37Z</time>
      </trkpt>
      <trkpt lat="45.52766" lon="5.94854">
        <ele>357.75</ele>
        <time>2012-12-15T15:10:53Z</time>
      </trkpt>
      <trkpt lat="45.52796" lon="5.94845">
        <ele>360.63</ele>
        <time>2012-12-15T15:11:07Z</time>
      </trkpt>
      <trkpt lat="45.52824" lon="5.94838">
        <ele>364</ele>
        <time>2012-12-15T15:11:22Z</time>
      </trkpt>
      <trkpt lat="45.5285" lon="5.94836">
        <ele>365.92</ele>
        <time>2012-12-15T15:11:35Z</time>
      </trkpt>
      <trkpt lat="45.52874" lon="5.94845">
        <ele>369.28</ele>
        <time>2012-12-15T15:11:47Z</time>
      </trkpt>
      <trkpt lat="45.52918" lon="5.94862">
        <ele>369.28</ele>
        <time>2012-12-15T15:12:03Z</time>
      </trkpt>
      <trkpt lat="45.52969" lon="5.94862">
        <ele>368.8</ele>
        <time>2012-12-15T15:12:17Z</time>
      </trkpt>
      <trkpt lat="45.53048" lon="5.94843">
        <ele>368.8</ele>
        <time>2012-12-15T15:12:36Z</time>
      </trkpt>
      <trkpt lat="45.5311" lon="5.94838">
        <ele>370.73</ele>
        <time>2012-12-15T15:12:53Z</time>
      </trkpt>
      <trkpt lat="45.53147" lon="5.94847">
        <ele>373.13</ele>
        <time>2012-12-15T15:13:07Z</time>
      </trkpt>
      <trkpt lat="45.53197" lon="5.94839">
        <ele>373.13</ele>
        <time>2012-12-15T15:13:24Z</time>
      </trkpt>
      <trkpt lat="45.53237" lon="5.94845">
        <ele>370.24</ele>
        <time>2012-12-15T15:13:31Z</time>
      </trkpt>
      <trkpt lat="45.53311" lon="5.94844">
        <ele>369.76</ele>
        <time>2012-12-15T15:13:44Z</time>
      </trkpt>
      <trkpt lat="45.53358" lon="5.94824">
        <ele>372.17</ele>
        <time>2012-12-15T15:13:57Z</time>
      </trkpt>
      <trkpt lat="45.53394" lon="5.9481">
        <ele>375.05</ele>
        <time>2012-12-15T15:14:11Z</time>
      </trkpt>
      <trkpt lat="45.53426" lon="5.94797">
        <ele>376.97</ele>
        <time>2012-12-15T15:14:25Z</time>
      </trkpt>
      <trkpt lat="45.53466" lon="5.94775">
        <ele>378.42</ele>
        <time>2012-12-15T15:14:42Z</time>
      </trkpt>
      <trkpt lat="45.5351" lon="5.94754">
        <ele>380.82</ele>
        <time>2012-12-15T15:14:59Z</time>
      </trkpt>
      <trkpt lat="45.53552" lon="5.94746">
        <ele>379.86</ele>
        <time>2012-12-15T15:15:12Z</time>
      </trkpt>
      <trkpt lat="45.53623" lon="5.94738">
        <ele>377.45</ele>
        <time>2012-12-15T15:15:28Z</time>
      </trkpt>
      <trkpt lat="45.53658" lon="5.94742">
        <ele>377.45</ele>
        <time>2012-12-15T15:15:36Z</time>
      </trkpt>
      <trkpt lat="45.53663" lon="5.94743">
        <ele>377.45</ele>
        <time>2012-12-15T15:15:37Z</time>
      </trkpt>
      <trkpt lat="45.53667" lon="5.94745">
        <ele>377.45</ele>
        <time>2012-12-15T15:15:38Z</time>
      </trkpt>
      <trkpt lat="45.53714" lon="5.9476">
        <ele>380.34</ele>
        <time>2012-12-15T15:15:53Z</time>
      </trkpt>
      <trkpt lat="45.53754" lon="5.94792">
        <ele>383.22</ele>
        <time>2012-12-15T15:16:11Z</time>
      </trkpt>
      <trkpt lat="45.538" lon="5.94802">
        <ele>384.66</ele>
        <time>2012-12-15T15:16:28Z</time>
      </trkpt>
      <trkpt lat="45.53867" lon="5.94802">
        <ele>383.22</ele>
        <time>2012-12-15T15:16:44Z</time>
      </trkpt>
      <trkpt lat="45.53919" lon="5.948">
        <ele>385.15</ele>
        <time>2012-12-15T15:16:59Z</time>
      </trkpt>
      <trkpt lat="45.53993" lon="5.94787">
        <ele>383.22</ele>
        <time>2012-12-15T15:17:16Z</time>
      </trkpt>
      <trkpt lat="45.54087" lon="5.9477">
        <ele>383.22</ele>
        <time>2012-12-15T15:17:35Z</time>
      </trkpt>
      <trkpt lat="45.54106" lon="5.94767">
        <ele>383.22</ele>
        <time>2012-12-15T15:17:39Z</time>
      </trkpt>
      <trkpt lat="45.54163" lon="5.94769">
        <ele>385.63</ele>
        <time>2012-12-15T15:17:53Z</time>
      </trkpt>
      <trkpt lat="45.54213" lon="5.94767">
        <ele>383.7</ele>
        <time>2012-12-15T15:18:04Z</time>
      </trkpt>
      <trkpt lat="45.54274" lon="5.94755">
        <ele>380.82</ele>
        <time>2012-12-15T15:18:13Z</time>
      </trkpt>
      <trkpt lat="45.54371" lon="5.9474">
        <ele>378.42</ele>
        <time>2012-12-15T15:18:28Z</time>
      </trkpt>
      <trkpt lat="45.54403" lon="5.94737">
        <ele>376.49</ele>
        <time>2012-12-15T15:18:32Z</time>
      </trkpt>
      <trkpt lat="45.545" lon="5.9473">
        <ele>375.53</ele>
        <time>2012-12-15T15:18:45Z</time>
      </trkpt>
      <trkpt lat="45.54604" lon="5.94739">
        <ele>376.49</ele>
        <time>2012-12-15T15:19:02Z</time>
      </trkpt>
      <trkpt lat="45.54619" lon="5.94738">
        <ele>376.49</ele>
        <time>2012-12-15T15:19:05Z</time>
      </trkpt>
      <trkpt lat="45.54687" lon="5.94723">
        <ele>378.9</ele>
        <time>2012-12-15T15:19:22Z</time>
      </trkpt>
      <trkpt lat="45.54749" lon="5.94715">
        <ele>380.82</ele>
        <time>2012-12-15T15:19:39Z</time>
      </trkpt>
      <trkpt lat="45.54796" lon="5.94702">
        <ele>379.86</ele>
        <time>2012-12-15T15:19:50Z</time>
      </trkpt>
      <trkpt lat="45.54802" lon="5.947">
        <ele>379.38</ele>
        <time>2012-12-15T15:19:51Z</time>
      </trkpt>
      <trkpt lat="45.54812" lon="5.94694">
        <ele>378.42</ele>
        <time>2012-12-15T15:19:53Z</time>
      </trkpt>
      <trkpt lat="45.54871" lon="5.94665">
        <ele>376.01</ele>
        <time>2012-12-15T15:20:02Z</time>
      </trkpt>
      <trkpt lat="45.54915" lon="5.94644">
        <ele>373.61</ele>
        <time>2012-12-15T15:20:08Z</time>
      </trkpt>
      <trkpt lat="45.54922" lon="5.94643">
        <ele>373.61</ele>
        <time>2012-12-15T15:20:09Z</time>
      </trkpt>
      <trkpt lat="45.5493" lon="5.94644">
        <ele>371.69</ele>
        <time>2012-12-15T15:20:10Z</time>
      </trkpt>
      <trkpt lat="45.54938" lon="5.94647">
        <ele>371.21</ele>
        <time>2012-12-15T15:20:11Z</time>
      </trkpt>
      <trkpt lat="45.54945" lon="5.94652">
        <ele>370.73</ele>
        <time>2012-12-15T15:20:12Z</time>
      </trkpt>
      <trkpt lat="45.54953" lon="5.94656">
        <ele>370.73</ele>
        <time>2012-12-15T15:20:13Z</time>
      </trkpt>
      <trkpt lat="45.54961" lon="5.9466">
        <ele>369.28</ele>
        <time>2012-12-15T15:20:14Z</time>
      </trkpt>
      <trkpt lat="45.5497" lon="5.94662">
        <ele>369.76</ele>
        <time>2012-12-15T15:20:15Z</time>
      </trkpt>
      <trkpt lat="45.54979" lon="5.94663">
        <ele>368.8</ele>
        <time>2012-12-15T15:20:16Z</time>
      </trkpt>
      <trkpt lat="45.54989" lon="5.94662">
        <ele>367.84</ele>
        <time>2012-12-15T15:20:17Z</time>
      </trkpt>
      <trkpt lat="45.54997" lon="5.9466">
        <ele>368.32</ele>
        <time>2012-12-15T15:20:18Z</time>
      </trkpt>
      <trkpt lat="45.55034" lon="5.9465">
        <ele>365.44</ele>
        <time>2012-12-15T15:20:22Z</time>
      </trkpt>
      <trkpt lat="45.55074" lon="5.94641">
        <ele>362.07</ele>
        <time>2012-12-15T15:20:26Z</time>
      </trkpt>
      <trkpt lat="45.55101" lon="5.94635">
        <ele>359.19</ele>
        <time>2012-12-15T15:20:29Z</time>
      </trkpt>
      <trkpt lat="45.55109" lon="5.94632">
        <ele>358.71</ele>
        <time>2012-12-15T15:20:30Z</time>
      </trkpt>
      <trkpt lat="45.55117" lon="5.94626">
        <ele>358.23</ele>
        <time>2012-12-15T15:20:31Z</time>
      </trkpt>
      <trkpt lat="45.55123" lon="5.94618">
        <ele>357.75</ele>
        <time>2012-12-15T15:20:32Z</time>
      </trkpt>
      <trkpt lat="45.55129" lon="5.94609">
        <ele>357.27</ele>
        <time>2012-12-15T15:20:33Z</time>
      </trkpt>
      <trkpt lat="45.55134" lon="5.94599">
        <ele>356.31</ele>
        <time>2012-12-15T15:20:34Z</time>
      </trkpt>
      <trkpt lat="45.5514" lon="5.94588">
        <ele>355.83</ele>
        <time>2012-12-15T15:20:35Z</time>
      </trkpt>
      <trkpt lat="45.55148" lon="5.94565">
        <ele>354.86</ele>
        <time>2012-12-15T15:20:37Z</time>
      </trkpt>
      <trkpt lat="45.55151" lon="5.94553">
        <ele>354.38</ele>
        <time>2012-12-15T15:20:38Z</time>
      </trkpt>
      <trkpt lat="45.55154" lon="5.94539">
        <ele>353.42</ele>
        <time>2012-12-15T15:20:39Z</time>
      </trkpt>
      <trkpt lat="45.55156" lon="5.94526">
        <ele>352.94</ele>
        <time>2012-12-15T15:20:40Z</time>
      </trkpt>
      <trkpt lat="45.55158" lon="5.94512">
        <ele>352.46</ele>
        <time>2012-12-15T15:20:41Z</time>
      </trkpt>
      <trkpt lat="45.55159" lon="5.94498">
        <ele>351.5</ele>
        <time>2012-12-15T15:20:42Z</time>
      </trkpt>
      <trkpt lat="45.5516" lon="5.94469">
        <ele>350.54</ele>
        <time>2012-12-15T15:20:44Z</time>
      </trkpt>
      <trkpt lat="45.55157" lon="5.94401">
        <ele>346.69</ele>
        <time>2012-12-15T15:20:49Z</time>
      </trkpt>
      <trkpt lat="45.55155" lon="5.94377">
        <ele>345.25</ele>
        <time>2012-12-15T15:20:51Z</time>
      </trkpt>
      <trkpt lat="45.55153" lon="5.94365">
        <ele>344.29</ele>
        <time>2012-12-15T15:20:52Z</time>
      </trkpt>
      <trkpt lat="45.5515" lon="5.94353">
        <ele>344.29</ele>
        <time>2012-12-15T15:20:53Z</time>
      </trkpt>
      <trkpt lat="45.55131" lon="5.94269">
        <ele>340.44</ele>
        <time>2012-12-15T15:21:00Z</time>
      </trkpt>
      <trkpt lat="45.55125" lon="5.94245">
        <ele>339</ele>
        <time>2012-12-15T15:21:02Z</time>
      </trkpt>
      <trkpt lat="45.55113" lon="5.94185">
        <ele>336.12</ele>
        <time>2012-12-15T15:21:07Z</time>
      </trkpt>
      <trkpt lat="45.55114" lon="5.94174">
        <ele>336.12</ele>
        <time>2012-12-15T15:21:08Z</time>
      </trkpt>
      <trkpt lat="45.55116" lon="5.94164">
        <ele>335.64</ele>
        <time>2012-12-15T15:21:09Z</time>
      </trkpt>
      <trkpt lat="45.55119" lon="5.94154">
        <ele>335.16</ele>
        <time>2012-12-15T15:21:10Z</time>
      </trkpt>
      <trkpt lat="45.55124" lon="5.94145">
        <ele>335.16</ele>
        <time>2012-12-15T15:21:11Z</time>
      </trkpt>
      <trkpt lat="45.5513" lon="5.94139">
        <ele>334.68</ele>
        <time>2012-12-15T15:21:12Z</time>
      </trkpt>
      <trkpt lat="45.55137" lon="5.94135">
        <ele>334.2</ele>
        <time>2012-12-15T15:21:13Z</time>
      </trkpt>
      <trkpt lat="45.55145" lon="5.94133">
        <ele>334.2</ele>
        <time>2012-12-15T15:21:14Z</time>
      </trkpt>
      <trkpt lat="45.55153" lon="5.94131">
        <ele>333.71</ele>
        <time>2012-12-15T15:21:15Z</time>
      </trkpt>
      <trkpt lat="45.5516" lon="5.94131">
        <ele>333.23</ele>
        <time>2012-12-15T15:21:16Z</time>
      </trkpt>
      <trkpt lat="45.5523" lon="5.94134">
        <ele>329.87</ele>
        <time>2012-12-15T15:21:25Z</time>
      </trkpt>
      <trkpt lat="45.55238" lon="5.94133">
        <ele>329.39</ele>
        <time>2012-12-15T15:21:26Z</time>
      </trkpt>
      <trkpt lat="45.55246" lon="5.94132">
        <ele>329.87</ele>
        <time>2012-12-15T15:21:27Z</time>
      </trkpt>
      <trkpt lat="45.55254" lon="5.94129">
        <ele>328.91</ele>
        <time>2012-12-15T15:21:28Z</time>
      </trkpt>
      <trkpt lat="45.55262" lon="5.94126">
        <ele>328.91</ele>
        <time>2012-12-15T15:21:29Z</time>
      </trkpt>
      <trkpt lat="45.55269" lon="5.94122">
        <ele>328.43</ele>
        <time>2012-12-15T15:21:30Z</time>
      </trkpt>
      <trkpt lat="45.55336" lon="5.94094">
        <ele>325.06</ele>
        <time>2012-12-15T15:21:39Z</time>
      </trkpt>
      <trkpt lat="45.55352" lon="5.9409">
        <ele>324.1</ele>
        <time>2012-12-15T15:21:41Z</time>
      </trkpt>
      <trkpt lat="45.5536" lon="5.9409">
        <ele>323.62</ele>
        <time>2012-12-15T15:21:42Z</time>
      </trkpt>
      <trkpt lat="45.55368" lon="5.94091">
        <ele>323.62</ele>
        <time>2012-12-15T15:21:43Z</time>
      </trkpt>
      <trkpt lat="45.55417" lon="5.94102">
        <ele>320.26</ele>
        <time>2012-12-15T15:21:49Z</time>
      </trkpt>
      <trkpt lat="45.55426" lon="5.94102">
        <ele>320.26</ele>
        <time>2012-12-15T15:21:50Z</time>
      </trkpt>
      <trkpt lat="45.55434" lon="5.94102">
        <ele>320.26</ele>
        <time>2012-12-15T15:21:51Z</time>
      </trkpt>
      <trkpt lat="45.55507" lon="5.94086">
        <ele>320.74</ele>
        <time>2012-12-15T15:22:02Z</time>
      </trkpt>
      <trkpt lat="45.55576" lon="5.94071">
        <ele>320.26</ele>
        <time>2012-12-15T15:22:16Z</time>
      </trkpt>
      <trkpt lat="45.55634" lon="5.94059">
        <ele>320.26</ele>
        <time>2012-12-15T15:22:29Z</time>
      </trkpt>
      <trkpt lat="45.55638" lon="5.94057">
        <ele>320.26</ele>
        <time>2012-12-15T15:22:30Z</time>
      </trkpt>
      <trkpt lat="45.55642" lon="5.94056">
        <ele>319.3</ele>
        <time>2012-12-15T15:22:31Z</time>
      </trkpt>
      <trkpt lat="45.55646" lon="5.94054">
        <ele>319.3</ele>
        <time>2012-12-15T15:22:32Z</time>
      </trkpt>
      <trkpt lat="45.5565" lon="5.94052">
        <ele>319.3</ele>
        <time>2012-12-15T15:22:33Z</time>
      </trkpt>
      <trkpt lat="45.55669" lon="5.94046">
        <ele>318.81</ele>
        <time>2012-12-15T15:22:37Z</time>
      </trkpt>
      <trkpt lat="45.55672" lon="5.94041">
        <ele>318.33</ele>
        <time>2012-12-15T15:22:38Z</time>
      </trkpt>
      <trkpt lat="45.55674" lon="5.94035">
        <ele>318.33</ele>
        <time>2012-12-15T15:22:39Z</time>
      </trkpt>
      <trkpt lat="45.55674" lon="5.9403">
        <ele>318.81</ele>
        <time>2012-12-15T15:22:40Z</time>
      </trkpt>
      <trkpt lat="45.55673" lon="5.94025">
        <ele>318.81</ele>
        <time>2012-12-15T15:22:41Z</time>
      </trkpt>
      <trkpt lat="45.55674" lon="5.94021">
        <ele>319.3</ele>
        <time>2012-12-15T15:22:42Z</time>
      </trkpt>
      <trkpt lat="45.55675" lon="5.94017">
        <ele>319.3</ele>
        <time>2012-12-15T15:22:43Z</time>
      </trkpt>
      <trkpt lat="45.55677" lon="5.94014">
        <ele>318.81</ele>
        <time>2012-12-15T15:22:44Z</time>
      </trkpt>
      <trkpt lat="45.55705" lon="5.93969">
        <ele>320.26</ele>
        <time>2012-12-15T15:22:58Z</time>
      </trkpt>
      <trkpt lat="45.55688" lon="5.93943">
        <ele>321.22</ele>
        <time>2012-12-15T15:23:09Z</time>
      </trkpt>
      <trkpt lat="45.55679" lon="5.93942">
        <ele>322.18</ele>
        <time>2012-12-15T15:23:13Z</time>
      </trkpt>
      <trkpt lat="45.55677" lon="5.93941">
        <ele>322.18</ele>
        <time>2012-12-15T15:23:14Z</time>
      </trkpt>
      <trkpt lat="45.55675" lon="5.9394">
        <ele>322.66</ele>
        <time>2012-12-15T15:23:15Z</time>
      </trkpt>
      <trkpt lat="45.55673" lon="5.9394">
        <ele>322.18</ele>
        <time>2012-12-15T15:23:16Z</time>
      </trkpt>
      <trkpt lat="45.5567" lon="5.93941">
        <ele>322.66</ele>
        <time>2012-12-15T15:23:17Z</time>
      </trkpt>
      <trkpt lat="45.55668" lon="5.93942">
        <ele>323.14</ele>
        <time>2012-12-15T15:23:18Z</time>
      </trkpt>
      <trkpt lat="45.55639" lon="5.93946">
        <ele>325.54</ele>
        <time>2012-12-15T15:23:33Z</time>
      </trkpt>
      <trkpt lat="45.55605" lon="5.93949">
        <ele>328.91</ele>
        <time>2012-12-15T15:23:50Z</time>
      </trkpt>
      <trkpt lat="45.55579" lon="5.93948">
        <ele>331.31</ele>
        <time>2012-12-15T15:24:05Z</time>
      </trkpt>
      <trkpt lat="45.55557" lon="5.93936">
        <ele>334.2</ele>
        <time>2012-12-15T15:24:20Z</time>
      </trkpt>
      <trkpt lat="45.55553" lon="5.93895">
        <ele>337.56</ele>
        <time>2012-12-15T15:24:37Z</time>
      </trkpt>
      <trkpt lat="45.55539" lon="5.93872">
        <ele>340.92</ele>
        <time>2012-12-15T15:24:50Z</time>
      </trkpt>
      <trkpt lat="45.55509" lon="5.93866">
        <ele>342.37</ele>
        <time>2012-12-15T15:25:06Z</time>
      </trkpt>
      <trkpt lat="45.55473" lon="5.93867">
        <ele>344.29</ele>
        <time>2012-12-15T15:25:23Z</time>
      </trkpt>
      <trkpt lat="45.55446" lon="5.93867">
        <ele>347.17</ele>
        <time>2012-12-15T15:25:38Z</time>
      </trkpt>
      <trkpt lat="45.55421" lon="5.93867">
        <ele>350.06</ele>
        <time>2012-12-15T15:25:52Z</time>
      </trkpt>
      <trkpt lat="45.55384" lon="5.93874">
        <ele>351.5</ele>
        <time>2012-12-15T15:26:09Z</time>
      </trkpt>
      <trkpt lat="45.55343" lon="5.93884">
        <ele>352.46</ele>
        <time>2012-12-15T15:26:24Z</time>
      </trkpt>
      <trkpt lat="45.55295" lon="5.93894">
        <ele>354.38</ele>
        <time>2012-12-15T15:26:41Z</time>
      </trkpt>
      <trkpt lat="45.55243" lon="5.93906">
        <ele>355.83</ele>
        <time>2012-12-15T15:26:59Z</time>
      </trkpt>
      <trkpt lat="45.55206" lon="5.93909">
        <ele>358.23</ele>
        <time>2012-12-15T15:27:15Z</time>
      </trkpt>
      <trkpt lat="45.55173" lon="5.93913">
        <ele>360.63</ele>
        <time>2012-12-15T15:27:31Z</time>
      </trkpt>
      <trkpt lat="45.55139" lon="5.93927">
        <ele>362.07</ele>
        <time>2012-12-15T15:27:46Z</time>
      </trkpt>
      <trkpt lat="45.55103" lon="5.93937">
        <ele>364</ele>
        <time>2012-12-15T15:28:02Z</time>
      </trkpt>
      <trkpt lat="45.55092" lon="5.93933">
        <ele>364.96</ele>
        <time>2012-12-15T15:28:08Z</time>
      </trkpt>
      <trkpt lat="45.5509" lon="5.93931">
        <ele>365.44</ele>
        <time>2012-12-15T15:28:09Z</time>
      </trkpt>
      <trkpt lat="45.55089" lon="5.93929">
        <ele>365.44</ele>
        <time>2012-12-15T15:28:10Z</time>
      </trkpt>
      <trkpt lat="45.55087" lon="5.93927">
        <ele>365.92</ele>
        <time>2012-12-15T15:28:11Z</time>
      </trkpt>
      <trkpt lat="45.55086" lon="5.93926">
        <ele>365.92</ele>
        <time>2012-12-15T15:28:12Z</time>
      </trkpt>
      <trkpt lat="45.55084" lon="5.93926">
        <ele>365.92</ele>
        <time>2012-12-15T15:28:13Z</time>
      </trkpt>
      <trkpt lat="45.55082" lon="5.93925">
        <ele>366.4</ele>
        <time>2012-12-15T15:28:14Z</time>
      </trkpt>
      <trkpt lat="45.5508" lon="5.93925">
        <ele>366.4</ele>
        <time>2012-12-15T15:28:15Z</time>
      </trkpt>
      <trkpt lat="45.55079" lon="5.93924">
        <ele>366.4</ele>
        <time>2012-12-15T15:28:16Z</time>
      </trkpt>
      <trkpt lat="45.55078" lon="5.93923">
        <ele>366.88</ele>
        <time>2012-12-15T15:28:17Z</time>
      </trkpt>
      <trkpt lat="45.55053" lon="5.93909">
        <ele>368.32</ele>
        <time>2012-12-15T15:28:32Z</time>
      </trkpt>
      <trkpt lat="45.55027" lon="5.93909">
        <ele>371.69</ele>
        <time>2012-12-15T15:28:47Z</time>
      </trkpt>
      <trkpt lat="45.55002" lon="5.93914">
        <ele>374.57</ele>
        <time>2012-12-15T15:29:03Z</time>
      </trkpt>
      <trkpt lat="45.54987" lon="5.93913">
        <ele>376.49</ele>
        <time>2012-12-15T15:29:13Z</time>
      </trkpt>
      <trkpt lat="45.54985" lon="5.93912">
        <ele>376.49</ele>
        <time>2012-12-15T15:29:14Z</time>
      </trkpt>
      <trkpt lat="45.54984" lon="5.93911">
        <ele>376.97</ele>
        <time>2012-12-15T15:29:15Z</time>
      </trkpt>
      <trkpt lat="45.54982" lon="5.9391">
        <ele>376.97</ele>
        <time>2012-12-15T15:29:16Z</time>
      </trkpt>
      <trkpt lat="45.54981" lon="5.9391">
        <ele>377.45</ele>
        <time>2012-12-15T15:29:17Z</time>
      </trkpt>
      <trkpt lat="45.54979" lon="5.93911">
        <ele>377.94</ele>
        <time>2012-12-15T15:29:18Z</time>
      </trkpt>
      <trkpt lat="45.54977" lon="5.93911">
        <ele>377.45</ele>
        <time>2012-12-15T15:29:19Z</time>
      </trkpt>
      <trkpt lat="45.54976" lon="5.9391">
        <ele>377.45</ele>
        <time>2012-12-15T15:29:20Z</time>
      </trkpt>
      <trkpt lat="45.54975" lon="5.93909">
        <ele>377.45</ele>
        <time>2012-12-15T15:29:21Z</time>
      </trkpt>
      <trkpt lat="45.54974" lon="5.93908">
        <ele>377.94</ele>
        <time>2012-12-15T15:29:22Z</time>
      </trkpt>
      <trkpt lat="45.54972" lon="5.93906">
        <ele>377.94</ele>
        <time>2012-12-15T15:29:23Z</time>
      </trkpt>
      <trkpt lat="45.54969" lon="5.93905">
        <ele>378.42</ele>
        <time>2012-12-15T15:29:25Z</time>
      </trkpt>
      <trkpt lat="45.54968" lon="5.93906">
        <ele>378.9</ele>
        <time>2012-12-15T15:29:26Z</time>
      </trkpt>
      <trkpt lat="45.54966" lon="5.93906">
        <ele>378.9</ele>
        <time>2012-12-15T15:29:27Z</time>
      </trkpt>
      <trkpt lat="45.54965" lon="5.93907">
        <ele>379.38</ele>
        <time>2012-12-15T15:29:28Z</time>
      </trkpt>
      <trkpt lat="45.54963" lon="5.93907">
        <ele>379.38</ele>
        <time>2012-12-15T15:29:29Z</time>
      </trkpt>
      <trkpt lat="45.5494" lon="5.93908">
        <ele>382.74</ele>
        <time>2012-12-15T15:29:45Z</time>
      </trkpt>
      <trkpt lat="45.54917" lon="5.93909">
        <ele>385.15</ele>
        <time>2012-12-15T15:30:01Z</time>
      </trkpt>
      <trkpt lat="45.54892" lon="5.93901">
        <ele>387.55</ele>
        <time>2012-12-15T15:30:18Z</time>
      </trkpt>
      <trkpt lat="45.54866" lon="5.93885">
        <ele>390.43</ele>
        <time>2012-12-15T15:30:37Z</time>
      </trkpt>
      <trkpt lat="45.5485" lon="5.93869">
        <ele>393.32</ele>
        <time>2012-12-15T15:30:51Z</time>
      </trkpt>
      <trkpt lat="45.54836" lon="5.93849">
        <ele>395.24</ele>
        <time>2012-12-15T15:31:06Z</time>
      </trkpt>
      <trkpt lat="45.54822" lon="5.93825">
        <ele>398.6</ele>
        <time>2012-12-15T15:31:22Z</time>
      </trkpt>
      <trkpt lat="45.54804" lon="5.93814">
        <ele>401.01</ele>
        <time>2012-12-15T15:31:36Z</time>
      </trkpt>
      <trkpt lat="45.54777" lon="5.93808">
        <ele>402.93</ele>
        <time>2012-12-15T15:31:52Z</time>
      </trkpt>
      <trkpt lat="45.54776" lon="5.9379">
        <ele>404.37</ele>
        <time>2012-12-15T15:32:00Z</time>
      </trkpt>
      <trkpt lat="45.54777" lon="5.93788">
        <ele>404.37</ele>
        <time>2012-12-15T15:32:01Z</time>
      </trkpt>
      <trkpt lat="45.54779" lon="5.93787">
        <ele>404.37</ele>
        <time>2012-12-15T15:32:02Z</time>
      </trkpt>
      <trkpt lat="45.5478" lon="5.93785">
        <ele>404.85</ele>
        <time>2012-12-15T15:32:03Z</time>
      </trkpt>
      <trkpt lat="45.54782" lon="5.93785">
        <ele>405.33</ele>
        <time>2012-12-15T15:32:04Z</time>
      </trkpt>
      <trkpt lat="45.54808" lon="5.93768">
        <ele>407.26</ele>
        <time>2012-12-15T15:32:20Z</time>
      </trkpt>
      <trkpt lat="45.54811" lon="5.93759">
        <ele>408.22</ele>
        <time>2012-12-15T15:32:24Z</time>
      </trkpt>
      <trkpt lat="45.54811" lon="5.93756">
        <ele>407.74</ele>
        <time>2012-12-15T15:32:25Z</time>
      </trkpt>
      <trkpt lat="45.5481" lon="5.93754">
        <ele>408.22</ele>
        <time>2012-12-15T15:32:26Z</time>
      </trkpt>
      <trkpt lat="45.54809" lon="5.93752">
        <ele>408.22</ele>
        <time>2012-12-15T15:32:27Z</time>
      </trkpt>
      <trkpt lat="45.54808" lon="5.93749">
        <ele>408.7</ele>
        <time>2012-12-15T15:32:28Z</time>
      </trkpt>
      <trkpt lat="45.54806" lon="5.93748">
        <ele>408.22</ele>
        <time>2012-12-15T15:32:29Z</time>
      </trkpt>
      <trkpt lat="45.54805" lon="5.93746">
        <ele>408.22</ele>
        <time>2012-12-15T15:32:30Z</time>
      </trkpt>
      <trkpt lat="45.54803" lon="5.93745">
        <ele>409.18</ele>
        <time>2012-12-15T15:32:31Z</time>
      </trkpt>
      <trkpt lat="45.54779" lon="5.93744">
        <ele>411.1</ele>
        <time>2012-12-15T15:32:45Z</time>
      </trkpt>
      <trkpt lat="45.54756" lon="5.93739">
        <ele>414.47</ele>
        <time>2012-12-15T15:32:59Z</time>
      </trkpt>
      <trkpt lat="45.54755" lon="5.93737">
        <ele>414.47</ele>
        <time>2012-12-15T15:33:00Z</time>
      </trkpt>
      <trkpt lat="45.54755" lon="5.93735">
        <ele>414.47</ele>
        <time>2012-12-15T15:33:01Z</time>
      </trkpt>
      <trkpt lat="45.5476" lon="5.93721">
        <ele>415.43</ele>
        <time>2012-12-15T15:33:08Z</time>
      </trkpt>
      <trkpt lat="45.54762" lon="5.9372">
        <ele>415.43</ele>
        <time>2012-12-15T15:33:09Z</time>
      </trkpt>
      <trkpt lat="45.54763" lon="5.9372">
        <ele>415.91</ele>
        <time>2012-12-15T15:33:10Z</time>
      </trkpt>
      <trkpt lat="45.5478" lon="5.93693">
        <ele>418.79</ele>
        <time>2012-12-15T15:33:26Z</time>
      </trkpt>
      <trkpt lat="45.54764" lon="5.93671">
        <ele>420.71</ele>
        <time>2012-12-15T15:33:39Z</time>
      </trkpt>
      <trkpt lat="45.54739" lon="5.93654">
        <ele>422.64</ele>
        <time>2012-12-15T15:33:54Z</time>
      </trkpt>
      <trkpt lat="45.54716" lon="5.93649">
        <ele>423.12</ele>
        <time>2012-12-15T15:34:06Z</time>
      </trkpt>
      <trkpt lat="45.54713" lon="5.93648">
        <ele>423.12</ele>
        <time>2012-12-15T15:34:07Z</time>
      </trkpt>
      <trkpt lat="45.54712" lon="5.93648">
        <ele>423.12</ele>
        <time>2012-12-15T15:34:08Z</time>
      </trkpt>
      <trkpt lat="45.54709" lon="5.93648">
        <ele>423.6</ele>
        <time>2012-12-15T15:34:09Z</time>
      </trkpt>
      <trkpt lat="45.54707" lon="5.93648">
        <ele>423.6</ele>
        <time>2012-12-15T15:34:10Z</time>
      </trkpt>
      <trkpt lat="45.54705" lon="5.93648">
        <ele>423.6</ele>
        <time>2012-12-15T15:34:11Z</time>
      </trkpt>
      <trkpt lat="45.54703" lon="5.93649">
        <ele>423.6</ele>
        <time>2012-12-15T15:34:12Z</time>
      </trkpt>
      <trkpt lat="45.54663" lon="5.93645">
        <ele>424.56</ele>
        <time>2012-12-15T15:34:29Z</time>
      </trkpt>
      <trkpt lat="45.54628" lon="5.93637">
        <ele>426</ele>
        <time>2012-12-15T15:34:45Z</time>
      </trkpt>
      <trkpt lat="45.54594" lon="5.93629">
        <ele>428.4</ele>
        <time>2012-12-15T15:35:02Z</time>
      </trkpt>
      <trkpt lat="45.54566" lon="5.93625">
        <ele>430.33</ele>
        <time>2012-12-15T15:35:17Z</time>
      </trkpt>
      <trkpt lat="45.5455" lon="5.93618">
        <ele>431.77</ele>
        <time>2012-12-15T15:35:27Z</time>
      </trkpt>
      <trkpt lat="45.54519" lon="5.93616">
        <ele>434.65</ele>
        <time>2012-12-15T15:35:45Z</time>
      </trkpt>
      <trkpt lat="45.54488" lon="5.93613">
        <ele>437.06</ele>
        <time>2012-12-15T15:36:03Z</time>
      </trkpt>
      <trkpt lat="45.54466" lon="5.93601">
        <ele>439.46</ele>
        <time>2012-12-15T15:36:18Z</time>
      </trkpt>
      <trkpt lat="45.54443" lon="5.93589">
        <ele>441.38</ele>
        <time>2012-12-15T15:36:33Z</time>
      </trkpt>
      <trkpt lat="45.54437" lon="5.93583">
        <ele>442.34</ele>
        <time>2012-12-15T15:36:38Z</time>
      </trkpt>
      <trkpt lat="45.54436" lon="5.93583">
        <ele>442.82</ele>
        <time>2012-12-15T15:36:39Z</time>
      </trkpt>
      <trkpt lat="45.54419" lon="5.93573">
        <ele>444.27</ele>
        <time>2012-12-15T15:36:51Z</time>
      </trkpt>
      <trkpt lat="45.54417" lon="5.93572">
        <ele>444.75</ele>
        <time>2012-12-15T15:36:52Z</time>
      </trkpt>
      <trkpt lat="45.54416" lon="5.93572">
        <ele>444.75</ele>
        <time>2012-12-15T15:36:53Z</time>
      </trkpt>
      <trkpt lat="45.54414" lon="5.9357">
        <ele>444.75</ele>
        <time>2012-12-15T15:36:54Z</time>
      </trkpt>
      <trkpt lat="45.54413" lon="5.93569">
        <ele>444.75</ele>
        <time>2012-12-15T15:36:55Z</time>
      </trkpt>
      <trkpt lat="45.54412" lon="5.93567">
        <ele>444.75</ele>
        <time>2012-12-15T15:36:56Z</time>
      </trkpt>
      <trkpt lat="45.54411" lon="5.93566">
        <ele>445.23</ele>
        <time>2012-12-15T15:36:57Z</time>
      </trkpt>
      <trkpt lat="45.54409" lon="5.93565">
        <ele>445.23</ele>
        <time>2012-12-15T15:36:58Z</time>
      </trkpt>
      <trkpt lat="45.54408" lon="5.93564">
        <ele>445.23</ele>
        <time>2012-12-15T15:36:59Z</time>
      </trkpt>
      <trkpt lat="45.54406" lon="5.93564">
        <ele>445.23</ele>
        <time>2012-12-15T15:37:00Z</time>
      </trkpt>
      <trkpt lat="45.54405" lon="5.93564">
        <ele>445.71</ele>
        <time>2012-12-15T15:37:01Z</time>
      </trkpt>
      <trkpt lat="45.54392" lon="5.9356">
        <ele>447.15</ele>
        <time>2012-12-15T15:37:10Z</time>
      </trkpt>
      <trkpt lat="45.54391" lon="5.9356">
        <ele>446.67</ele>
        <time>2012-12-15T15:37:11Z</time>
      </trkpt>
      <trkpt lat="45.54372" lon="5.93559">
        <ele>448.11</ele>
        <time>2012-12-15T15:37:26Z</time>
      </trkpt>
      <trkpt lat="45.54372" lon="5.93558">
        <ele>448.11</ele>
        <time>2012-12-15T15:37:43Z</time>
      </trkpt>
      <trkpt lat="45.54372" lon="5.93558">
        <ele>448.59</ele>
        <time>2012-12-15T15:38:17Z</time>
      </trkpt>
      <trkpt lat="45.54372" lon="5.93559">
        <ele>448.11</ele>
        <time>2012-12-15T15:38:40Z</time>
      </trkpt>
      <trkpt lat="45.54371" lon="5.93559">
        <ele>449.07</ele>
        <time>2012-12-15T15:39:09Z</time>
      </trkpt>
      <trkpt lat="45.54371" lon="5.93559">
        <ele>448.59</ele>
        <time>2012-12-15T15:39:40Z</time>
      </trkpt>
      <trkpt lat="45.54371" lon="5.93559">
        <ele>448.11</ele>
        <time>2012-12-15T15:40:14Z</time>
      </trkpt>
      <trkpt lat="45.54371" lon="5.9356">
        <ele>448.59</ele>
        <time>2012-12-15T15:40:40Z</time>
      </trkpt>
      <trkpt lat="45.5437" lon="5.93559">
        <ele>448.59</ele>
        <time>2012-12-15T15:41:08Z</time>
      </trkpt>
      <trkpt lat="45.54369" lon="5.93558">
        <ele>448.59</ele>
        <time>2012-12-15T15:41:09Z</time>
      </trkpt>
      <trkpt lat="45.54368" lon="5.93557">
        <ele>448.59</ele>
        <time>2012-12-15T15:41:10Z</time>
      </trkpt>
      <trkpt lat="45.54367" lon="5.93557">
        <ele>448.59</ele>
        <time>2012-12-15T15:41:11Z</time>
      </trkpt>
      <trkpt lat="45.54365" lon="5.93557">
        <ele>449.07</ele>
        <time>2012-12-15T15:41:12Z</time>
      </trkpt>
      <trkpt lat="45.54363" lon="5.93557">
        <ele>449.07</ele>
        <time>2012-12-15T15:41:13Z</time>
      </trkpt>
      <trkpt lat="45.54361" lon="5.93556">
        <ele>449.07</ele>
        <time>2012-12-15T15:41:14Z</time>
      </trkpt>
      <trkpt lat="45.54333" lon="5.9355">
        <ele>451</ele>
        <time>2012-12-15T15:41:30Z</time>
      </trkpt>
      <trkpt lat="45.54322" lon="5.93546">
        <ele>452.44</ele>
        <time>2012-12-15T15:41:37Z</time>
      </trkpt>
      <trkpt lat="45.54321" lon="5.93546">
        <ele>452.92</ele>
        <time>2012-12-15T15:41:38Z</time>
      </trkpt>
      <trkpt lat="45.54319" lon="5.93546">
        <ele>453.4</ele>
        <time>2012-12-15T15:41:39Z</time>
      </trkpt>
      <trkpt lat="45.54318" lon="5.93546">
        <ele>453.4</ele>
        <time>2012-12-15T15:41:40Z</time>
      </trkpt>
      <trkpt lat="45.54316" lon="5.93545">
        <ele>453.88</ele>
        <time>2012-12-15T15:41:41Z</time>
      </trkpt>
      <trkpt lat="45.54314" lon="5.93545">
        <ele>453.88</ele>
        <time>2012-12-15T15:41:42Z</time>
      </trkpt>
      <trkpt lat="45.54287" lon="5.9354">
        <ele>456.28</ele>
        <time>2012-12-15T15:41:59Z</time>
      </trkpt>
      <trkpt lat="45.54268" lon="5.93536">
        <ele>458.21</ele>
        <time>2012-12-15T15:42:11Z</time>
      </trkpt>
      <trkpt lat="45.54266" lon="5.93535">
        <ele>458.21</ele>
        <time>2012-12-15T15:42:12Z</time>
      </trkpt>
      <trkpt lat="45.54265" lon="5.93534">
        <ele>458.69</ele>
        <time>2012-12-15T15:42:13Z</time>
      </trkpt>
      <trkpt lat="45.54263" lon="5.93532">
        <ele>458.69</ele>
        <time>2012-12-15T15:42:14Z</time>
      </trkpt>
      <trkpt lat="45.54262" lon="5.9353">
        <ele>459.17</ele>
        <time>2012-12-15T15:42:15Z</time>
      </trkpt>
      <trkpt lat="45.54242" lon="5.93517">
        <ele>461.09</ele>
        <time>2012-12-15T15:42:28Z</time>
      </trkpt>
      <trkpt lat="45.54221" lon="5.93495">
        <ele>463.01</ele>
        <time>2012-12-15T15:42:43Z</time>
      </trkpt>
      <trkpt lat="45.54204" lon="5.93475">
        <ele>464.45</ele>
        <time>2012-12-15T15:42:57Z</time>
      </trkpt>
      <trkpt lat="45.54192" lon="5.93455">
        <ele>466.86</ele>
        <time>2012-12-15T15:43:10Z</time>
      </trkpt>
      <trkpt lat="45.54175" lon="5.9343">
        <ele>469.26</ele>
        <time>2012-12-15T15:43:27Z</time>
      </trkpt>
      <trkpt lat="45.54174" lon="5.93429">
        <ele>469.74</ele>
        <time>2012-12-15T15:43:28Z</time>
      </trkpt>
      <trkpt lat="45.54168" lon="5.93423">
        <ele>469.74</ele>
        <time>2012-12-15T15:43:33Z</time>
      </trkpt>
      <trkpt lat="45.54168" lon="5.93421">
        <ele>470.22</ele>
        <time>2012-12-15T15:43:34Z</time>
      </trkpt>
      <trkpt lat="45.54168" lon="5.93419">
        <ele>470.22</ele>
        <time>2012-12-15T15:43:35Z</time>
      </trkpt>
      <trkpt lat="45.54167" lon="5.93417">
        <ele>470.22</ele>
        <time>2012-12-15T15:43:36Z</time>
      </trkpt>
      <trkpt lat="45.54165" lon="5.93416">
        <ele>470.22</ele>
        <time>2012-12-15T15:43:37Z</time>
      </trkpt>
      <trkpt lat="45.54164" lon="5.93415">
        <ele>470.7</ele>
        <time>2012-12-15T15:43:38Z</time>
      </trkpt>
      <trkpt lat="45.54145" lon="5.93388">
        <ele>473.59</ele>
        <time>2012-12-15T15:43:56Z</time>
      </trkpt>
      <trkpt lat="45.54126" lon="5.93369">
        <ele>475.99</ele>
        <time>2012-12-15T15:44:12Z</time>
      </trkpt>
      <trkpt lat="45.54107" lon="5.93359">
        <ele>478.87</ele>
        <time>2012-12-15T15:44:27Z</time>
      </trkpt>
      <trkpt lat="45.54086" lon="5.9335">
        <ele>480.8</ele>
        <time>2012-12-15T15:44:43Z</time>
      </trkpt>
      <trkpt lat="45.54074" lon="5.93345">
        <ele>481.76</ele>
        <time>2012-12-15T15:44:51Z</time>
      </trkpt>
      <trkpt lat="45.54073" lon="5.93344">
        <ele>482.72</ele>
        <time>2012-12-15T15:44:52Z</time>
      </trkpt>
      <trkpt lat="45.54071" lon="5.93344">
        <ele>482.24</ele>
        <time>2012-12-15T15:44:53Z</time>
      </trkpt>
      <trkpt lat="45.5407" lon="5.93343">
        <ele>482.72</ele>
        <time>2012-12-15T15:44:54Z</time>
      </trkpt>
      <trkpt lat="45.54069" lon="5.93342">
        <ele>482.72</ele>
        <time>2012-12-15T15:44:55Z</time>
      </trkpt>
      <trkpt lat="45.54067" lon="5.93342">
        <ele>482.72</ele>
        <time>2012-12-15T15:44:56Z</time>
      </trkpt>
      <trkpt lat="45.54066" lon="5.93342">
        <ele>483.2</ele>
        <time>2012-12-15T15:44:57Z</time>
      </trkpt>
      <trkpt lat="45.54065" lon="5.93342">
        <ele>483.2</ele>
        <time>2012-12-15T15:44:58Z</time>
      </trkpt>
      <trkpt lat="45.54063" lon="5.93342">
        <ele>483.2</ele>
        <time>2012-12-15T15:44:59Z</time>
      </trkpt>
      <trkpt lat="45.54041" lon="5.93332">
        <ele>485.6</ele>
        <time>2012-12-15T15:45:14Z</time>
      </trkpt>
      <trkpt lat="45.5402" lon="5.93325">
        <ele>487.53</ele>
        <time>2012-12-15T15:45:29Z</time>
      </trkpt>
      <trkpt lat="45.53997" lon="5.93321">
        <ele>490.41</ele>
        <time>2012-12-15T15:45:45Z</time>
      </trkpt>
      <trkpt lat="45.53982" lon="5.93344">
        <ele>492.81</ele>
        <time>2012-12-15T15:46:00Z</time>
      </trkpt>
      <trkpt lat="45.53975" lon="5.93359">
        <ele>493.77</ele>
        <time>2012-12-15T15:46:09Z</time>
      </trkpt>
      <trkpt lat="45.53973" lon="5.9336">
        <ele>493.77</ele>
        <time>2012-12-15T15:46:10Z</time>
      </trkpt>
      <trkpt lat="45.53959" lon="5.93351">
        <ele>495.7</ele>
        <time>2012-12-15T15:46:24Z</time>
      </trkpt>
      <trkpt lat="45.53965" lon="5.9331">
        <ele>498.1</ele>
        <time>2012-12-15T15:46:39Z</time>
      </trkpt>
      <trkpt lat="45.53985" lon="5.93272">
        <ele>499.54</ele>
        <time>2012-12-15T15:46:57Z</time>
      </trkpt>
      <trkpt lat="45.54012" lon="5.93252">
        <ele>501.95</ele>
        <time>2012-12-15T15:47:15Z</time>
      </trkpt>
      <trkpt lat="45.54035" lon="5.93243">
        <ele>503.87</ele>
        <time>2012-12-15T15:47:31Z</time>
      </trkpt>
      <trkpt lat="45.54064" lon="5.9325">
        <ele>505.31</ele>
        <time>2012-12-15T15:47:48Z</time>
      </trkpt>
      <trkpt lat="45.54065" lon="5.93226">
        <ele>506.75</ele>
        <time>2012-12-15T15:48:01Z</time>
      </trkpt>
      <trkpt lat="45.54036" lon="5.93215">
        <ele>509.16</ele>
        <time>2012-12-15T15:48:20Z</time>
      </trkpt>
      <trkpt lat="45.54013" lon="5.93207">
        <ele>511.08</ele>
        <time>2012-12-15T15:48:36Z</time>
      </trkpt>
      <trkpt lat="45.54004" lon="5.93205">
        <ele>512.04</ele>
        <time>2012-12-15T15:48:43Z</time>
      </trkpt>
      <trkpt lat="45.53981" lon="5.93195">
        <ele>513.96</ele>
        <time>2012-12-15T15:49:00Z</time>
      </trkpt>
      <trkpt lat="45.5398" lon="5.93194">
        <ele>514.44</ele>
        <time>2012-12-15T15:49:01Z</time>
      </trkpt>
      <trkpt lat="45.53975" lon="5.93193">
        <ele>514.92</ele>
        <time>2012-12-15T15:49:05Z</time>
      </trkpt>
      <trkpt lat="45.53974" lon="5.93191">
        <ele>514.92</ele>
        <time>2012-12-15T15:49:06Z</time>
      </trkpt>
      <trkpt lat="45.53973" lon="5.9319">
        <ele>515.4</ele>
        <time>2012-12-15T15:49:07Z</time>
      </trkpt>
      <trkpt lat="45.53972" lon="5.93188">
        <ele>515.4</ele>
        <time>2012-12-15T15:49:08Z</time>
      </trkpt>
      <trkpt lat="45.5397" lon="5.93188">
        <ele>515.4</ele>
        <time>2012-12-15T15:49:09Z</time>
      </trkpt>
      <trkpt lat="45.53969" lon="5.93187">
        <ele>515.4</ele>
        <time>2012-12-15T15:49:10Z</time>
      </trkpt>
      <trkpt lat="45.53968" lon="5.93187">
        <ele>515.4</ele>
        <time>2012-12-15T15:49:11Z</time>
      </trkpt>
      <trkpt lat="45.53967" lon="5.93186">
        <ele>515.88</ele>
        <time>2012-12-15T15:49:12Z</time>
      </trkpt>
      <trkpt lat="45.53965" lon="5.93185">
        <ele>516.37</ele>
        <time>2012-12-15T15:49:13Z</time>
      </trkpt>
      <trkpt lat="45.53964" lon="5.93184">
        <ele>516.37</ele>
        <time>2012-12-15T15:49:14Z</time>
      </trkpt>
      <trkpt lat="45.53962" lon="5.93184">
        <ele>516.37</ele>
        <time>2012-12-15T15:49:15Z</time>
      </trkpt>
      <trkpt lat="45.53946" lon="5.93167">
        <ele>518.29</ele>
        <time>2012-12-15T15:49:29Z</time>
      </trkpt>
      <trkpt lat="45.53928" lon="5.93152">
        <ele>519.73</ele>
        <time>2012-12-15T15:49:43Z</time>
      </trkpt>
      <trkpt lat="45.53927" lon="5.93151">
        <ele>519.73</ele>
        <time>2012-12-15T15:49:44Z</time>
      </trkpt>
      <trkpt lat="45.53926" lon="5.9315">
        <ele>520.21</ele>
        <time>2012-12-15T15:49:45Z</time>
      </trkpt>
      <trkpt lat="45.53909" lon="5.93134">
        <ele>522.61</ele>
        <time>2012-12-15T15:50:00Z</time>
      </trkpt>
      <trkpt lat="45.53895" lon="5.93119">
        <ele>524.06</ele>
        <time>2012-12-15T15:50:13Z</time>
      </trkpt>
      <trkpt lat="45.53875" lon="5.93101">
        <ele>525.98</ele>
        <time>2012-12-15T15:50:30Z</time>
      </trkpt>
      <trkpt lat="45.53863" lon="5.93086">
        <ele>528.38</ele>
        <time>2012-12-15T15:50:43Z</time>
      </trkpt>
      <trkpt lat="45.53859" lon="5.93083">
        <ele>528.38</ele>
        <time>2012-12-15T15:50:46Z</time>
      </trkpt>
      <trkpt lat="45.53858" lon="5.93081">
        <ele>528.38</ele>
        <time>2012-12-15T15:50:47Z</time>
      </trkpt>
      <trkpt lat="45.53857" lon="5.93079">
        <ele>529.34</ele>
        <time>2012-12-15T15:50:48Z</time>
      </trkpt>
      <trkpt lat="45.53854" lon="5.93078">
        <ele>529.34</ele>
        <time>2012-12-15T15:50:50Z</time>
      </trkpt>
      <trkpt lat="45.53853" lon="5.93078">
        <ele>529.34</ele>
        <time>2012-12-15T15:50:51Z</time>
      </trkpt>
      <trkpt lat="45.53852" lon="5.93077">
        <ele>529.82</ele>
        <time>2012-12-15T15:50:52Z</time>
      </trkpt>
      <trkpt lat="45.53832" lon="5.93068">
        <ele>531.75</ele>
        <time>2012-12-15T15:51:09Z</time>
      </trkpt>
      <trkpt lat="45.53829" lon="5.93069">
        <ele>531.75</ele>
        <time>2012-12-15T15:51:11Z</time>
      </trkpt>
      <trkpt lat="45.53828" lon="5.9307">
        <ele>532.23</ele>
        <time>2012-12-15T15:51:12Z</time>
      </trkpt>
      <trkpt lat="45.53827" lon="5.93072">
        <ele>532.23</ele>
        <time>2012-12-15T15:51:13Z</time>
      </trkpt>
      <trkpt lat="45.53826" lon="5.93073">
        <ele>531.75</ele>
        <time>2012-12-15T15:51:14Z</time>
      </trkpt>
      <trkpt lat="45.53825" lon="5.93075">
        <ele>532.23</ele>
        <time>2012-12-15T15:51:15Z</time>
      </trkpt>
      <trkpt lat="45.53824" lon="5.93076">
        <ele>532.23</ele>
        <time>2012-12-15T15:51:16Z</time>
      </trkpt>
      <trkpt lat="45.53823" lon="5.93077">
        <ele>532.23</ele>
        <time>2012-12-15T15:51:17Z</time>
      </trkpt>
      <trkpt lat="45.53822" lon="5.93078">
        <ele>532.71</ele>
        <time>2012-12-15T15:51:18Z</time>
      </trkpt>
      <trkpt lat="45.5382" lon="5.93078">
        <ele>532.23</ele>
        <time>2012-12-15T15:51:19Z</time>
      </trkpt>
      <trkpt lat="45.53819" lon="5.93079">
        <ele>532.23</ele>
        <time>2012-12-15T15:51:20Z</time>
      </trkpt>
      <trkpt lat="45.53818" lon="5.93079">
        <ele>533.19</ele>
        <time>2012-12-15T15:51:21Z</time>
      </trkpt>
      <trkpt lat="45.53816" lon="5.9308">
        <ele>532.71</ele>
        <time>2012-12-15T15:51:22Z</time>
      </trkpt>
      <trkpt lat="45.53816" lon="5.93082">
        <ele>532.71</ele>
        <time>2012-12-15T15:51:23Z</time>
      </trkpt>
      <trkpt lat="45.53814" lon="5.93083">
        <ele>532.71</ele>
        <time>2012-12-15T15:51:24Z</time>
      </trkpt>
      <trkpt lat="45.53814" lon="5.93085">
        <ele>533.67</ele>
        <time>2012-12-15T15:51:25Z</time>
      </trkpt>
      <trkpt lat="45.53813" lon="5.93087">
        <ele>533.67</ele>
        <time>2012-12-15T15:51:26Z</time>
      </trkpt>
      <trkpt lat="45.53812" lon="5.93088">
        <ele>533.19</ele>
        <time>2012-12-15T15:51:27Z</time>
      </trkpt>
      <trkpt lat="45.53811" lon="5.9309">
        <ele>533.67</ele>
        <time>2012-12-15T15:51:28Z</time>
      </trkpt>
      <trkpt lat="45.5381" lon="5.93091">
        <ele>533.19</ele>
        <time>2012-12-15T15:51:29Z</time>
      </trkpt>
      <trkpt lat="45.53808" lon="5.93092">
        <ele>533.67</ele>
        <time>2012-12-15T15:51:30Z</time>
      </trkpt>
      <trkpt lat="45.53807" lon="5.93093">
        <ele>533.67</ele>
        <time>2012-12-15T15:51:31Z</time>
      </trkpt>
      <trkpt lat="45.53806" lon="5.93094">
        <ele>533.67</ele>
        <time>2012-12-15T15:51:32Z</time>
      </trkpt>
      <trkpt lat="45.53788" lon="5.93103">
        <ele>535.11</ele>
        <time>2012-12-15T15:51:46Z</time>
      </trkpt>
      <trkpt lat="45.53786" lon="5.93101">
        <ele>536.07</ele>
        <time>2012-12-15T15:51:48Z</time>
      </trkpt>
      <trkpt lat="45.53785" lon="5.93099">
        <ele>536.07</ele>
        <time>2012-12-15T15:51:49Z</time>
      </trkpt>
      <trkpt lat="45.53783" lon="5.93091">
        <ele>536.55</ele>
        <time>2012-12-15T15:51:53Z</time>
      </trkpt>
      <trkpt lat="45.53784" lon="5.93089">
        <ele>536.55</ele>
        <time>2012-12-15T15:51:54Z</time>
      </trkpt>
      <trkpt lat="45.53784" lon="5.93087">
        <ele>537.03</ele>
        <time>2012-12-15T15:51:55Z</time>
      </trkpt>
      <trkpt lat="45.53785" lon="5.93085">
        <ele>537.03</ele>
        <time>2012-12-15T15:51:56Z</time>
      </trkpt>
      <trkpt lat="45.53787" lon="5.93083">
        <ele>537.03</ele>
        <time>2012-12-15T15:51:57Z</time>
      </trkpt>
      <trkpt lat="45.53787" lon="5.93081">
        <ele>537.03</ele>
        <time>2012-12-15T15:51:58Z</time>
      </trkpt>
      <trkpt lat="45.53788" lon="5.93079">
        <ele>537.51</ele>
        <time>2012-12-15T15:51:59Z</time>
      </trkpt>
      <trkpt lat="45.53806" lon="5.93049">
        <ele>538.48</ele>
        <time>2012-12-15T15:52:15Z</time>
      </trkpt>
      <trkpt lat="45.53815" lon="5.93016">
        <ele>540.88</ele>
        <time>2012-12-15T15:52:30Z</time>
      </trkpt>
      <trkpt lat="45.53832" lon="5.92997">
        <ele>542.32</ele>
        <time>2012-12-15T15:52:46Z</time>
      </trkpt>
      <trkpt lat="45.53833" lon="5.92998">
        <ele>542.32</ele>
        <time>2012-12-15T15:53:05Z</time>
      </trkpt>
      <trkpt lat="45.53835" lon="5.92998">
        <ele>542.32</ele>
        <time>2012-12-15T15:53:06Z</time>
      </trkpt>
      <trkpt lat="45.53836" lon="5.92997">
        <ele>542.8</ele>
        <time>2012-12-15T15:53:07Z</time>
      </trkpt>
      <trkpt lat="45.53837" lon="5.92996">
        <ele>542.8</ele>
        <time>2012-12-15T15:53:08Z</time>
      </trkpt>
      <trkpt lat="45.53838" lon="5.92995">
        <ele>542.8</ele>
        <time>2012-12-15T15:53:09Z</time>
      </trkpt>
      <trkpt lat="45.5384" lon="5.92993">
        <ele>542.8</ele>
        <time>2012-12-15T15:53:10Z</time>
      </trkpt>
      <trkpt lat="45.53841" lon="5.92992">
        <ele>542.8</ele>
        <time>2012-12-15T15:53:11Z</time>
      </trkpt>
      <trkpt lat="45.53843" lon="5.92992">
        <ele>542.8</ele>
        <time>2012-12-15T15:53:12Z</time>
      </trkpt>
      <trkpt lat="45.53844" lon="5.92991">
        <ele>543.28</ele>
        <time>2012-12-15T15:53:13Z</time>
      </trkpt>
      <trkpt lat="45.53845" lon="5.9299">
        <ele>543.76</ele>
        <time>2012-12-15T15:53:14Z</time>
      </trkpt>
      <trkpt lat="45.53846" lon="5.9299">
        <ele>543.76</ele>
        <time>2012-12-15T15:53:15Z</time>
      </trkpt>
      <trkpt lat="45.5387" lon="5.92975">
        <ele>545.69</ele>
        <time>2012-12-15T15:53:33Z</time>
      </trkpt>
      <trkpt lat="45.53883" lon="5.92974">
        <ele>546.17</ele>
        <time>2012-12-15T15:53:42Z</time>
      </trkpt>
      <trkpt lat="45.53884" lon="5.92973">
        <ele>546.65</ele>
        <time>2012-12-15T15:53:43Z</time>
      </trkpt>
      <trkpt lat="45.53885" lon="5.92972">
        <ele>546.65</ele>
        <time>2012-12-15T15:53:44Z</time>
      </trkpt>
      <trkpt lat="45.53887" lon="5.92972">
        <ele>547.13</ele>
        <time>2012-12-15T15:53:45Z</time>
      </trkpt>
      <trkpt lat="45.53888" lon="5.92973">
        <ele>546.65</ele>
        <time>2012-12-15T15:53:46Z</time>
      </trkpt>
      <trkpt lat="45.5389" lon="5.92974">
        <ele>547.13</ele>
        <time>2012-12-15T15:53:47Z</time>
      </trkpt>
      <trkpt lat="45.53891" lon="5.92974">
        <ele>547.61</ele>
        <time>2012-12-15T15:53:48Z</time>
      </trkpt>
      <trkpt lat="45.53893" lon="5.92975">
        <ele>547.13</ele>
        <time>2012-12-15T15:53:49Z</time>
      </trkpt>
      <trkpt lat="45.53915" lon="5.92974">
        <ele>548.57</ele>
        <time>2012-12-15T15:54:05Z</time>
      </trkpt>
      <trkpt lat="45.53942" lon="5.9297">
        <ele>550.97</ele>
        <time>2012-12-15T15:54:24Z</time>
      </trkpt>
      <trkpt lat="45.53967" lon="5.92962">
        <ele>552.41</ele>
        <time>2012-12-15T15:54:42Z</time>
      </trkpt>
      <trkpt lat="45.53987" lon="5.92962">
        <ele>553.86</ele>
        <time>2012-12-15T15:54:56Z</time>
      </trkpt>
      <trkpt lat="45.53989" lon="5.92962">
        <ele>553.86</ele>
        <time>2012-12-15T15:54:57Z</time>
      </trkpt>
      <trkpt lat="45.5399" lon="5.92963">
        <ele>553.86</ele>
        <time>2012-12-15T15:54:58Z</time>
      </trkpt>
      <trkpt lat="45.53996" lon="5.92964">
        <ele>554.34</ele>
        <time>2012-12-15T15:55:02Z</time>
      </trkpt>
      <trkpt lat="45.53997" lon="5.92965">
        <ele>554.34</ele>
        <time>2012-12-15T15:55:03Z</time>
      </trkpt>
      <trkpt lat="45.53999" lon="5.92965">
        <ele>554.82</ele>
        <time>2012-12-15T15:55:04Z</time>
      </trkpt>
      <trkpt lat="45.54001" lon="5.92964">
        <ele>554.34</ele>
        <time>2012-12-15T15:55:05Z</time>
      </trkpt>
      <trkpt lat="45.54002" lon="5.92964">
        <ele>554.82</ele>
        <time>2012-12-15T15:55:06Z</time>
      </trkpt>
      <trkpt lat="45.54025" lon="5.92955">
        <ele>556.26</ele>
        <time>2012-12-15T15:55:22Z</time>
      </trkpt>
      <trkpt lat="45.5403" lon="5.92933">
        <ele>557.7</ele>
        <time>2012-12-15T15:55:33Z</time>
      </trkpt>
      <trkpt lat="45.54028" lon="5.92931">
        <ele>557.7</ele>
        <time>2012-12-15T15:55:34Z</time>
      </trkpt>
      <trkpt lat="45.54027" lon="5.92929">
        <ele>557.22</ele>
        <time>2012-12-15T15:55:35Z</time>
      </trkpt>
      <trkpt lat="45.54025" lon="5.92928">
        <ele>557.7</ele>
        <time>2012-12-15T15:55:36Z</time>
      </trkpt>
      <trkpt lat="45.54024" lon="5.92926">
        <ele>558.18</ele>
        <time>2012-12-15T15:55:37Z</time>
      </trkpt>
      <trkpt lat="45.54001" lon="5.92912">
        <ele>560.11</ele>
        <time>2012-12-15T15:55:52Z</time>
      </trkpt>
      <trkpt lat="45.53976" lon="5.9291">
        <ele>562.03</ele>
        <time>2012-12-15T15:56:07Z</time>
      </trkpt>
      <trkpt lat="45.53951" lon="5.92902">
        <ele>564.43</ele>
        <time>2012-12-15T15:56:24Z</time>
      </trkpt>
      <trkpt lat="45.53927" lon="5.9289">
        <ele>567.8</ele>
        <time>2012-12-15T15:56:42Z</time>
      </trkpt>
      <trkpt lat="45.53923" lon="5.92888">
        <ele>567.8</ele>
        <time>2012-12-15T15:56:45Z</time>
      </trkpt>
      <trkpt lat="45.53896" lon="5.92874">
        <ele>569.72</ele>
        <time>2012-12-15T15:57:05Z</time>
      </trkpt>
      <trkpt lat="45.53891" lon="5.92871">
        <ele>570.2</ele>
        <time>2012-12-15T15:57:09Z</time>
      </trkpt>
      <trkpt lat="45.5389" lon="5.92869">
        <ele>570.68</ele>
        <time>2012-12-15T15:57:10Z</time>
      </trkpt>
      <trkpt lat="45.5389" lon="5.92868">
        <ele>570.68</ele>
        <time>2012-12-15T15:57:11Z</time>
      </trkpt>
      <trkpt lat="45.53888" lon="5.92866">
        <ele>570.68</ele>
        <time>2012-12-15T15:57:12Z</time>
      </trkpt>
      <trkpt lat="45.53887" lon="5.92865">
        <ele>570.68</ele>
        <time>2012-12-15T15:57:13Z</time>
      </trkpt>
      <trkpt lat="45.53886" lon="5.92864">
        <ele>571.16</ele>
        <time>2012-12-15T15:57:14Z</time>
      </trkpt>
      <trkpt lat="45.53885" lon="5.92864">
        <ele>571.64</ele>
        <time>2012-12-15T15:57:15Z</time>
      </trkpt>
      <trkpt lat="45.53883" lon="5.92864">
        <ele>571.16</ele>
        <time>2012-12-15T15:57:16Z</time>
      </trkpt>
      <trkpt lat="45.53882" lon="5.92864">
        <ele>571.64</ele>
        <time>2012-12-15T15:57:17Z</time>
      </trkpt>
      <trkpt lat="45.53881" lon="5.92863">
        <ele>571.64</ele>
        <time>2012-12-15T15:57:18Z</time>
      </trkpt>
      <trkpt lat="45.5388" lon="5.92862">
        <ele>572.12</ele>
        <time>2012-12-15T15:57:19Z</time>
      </trkpt>
      <trkpt lat="45.5388" lon="5.9286">
        <ele>572.12</ele>
        <time>2012-12-15T15:57:20Z</time>
      </trkpt>
      <trkpt lat="45.53878" lon="5.92859">
        <ele>572.6</ele>
        <time>2012-12-15T15:57:21Z</time>
      </trkpt>
      <trkpt lat="45.53877" lon="5.92859">
        <ele>572.6</ele>
        <time>2012-12-15T15:57:22Z</time>
      </trkpt>
      <trkpt lat="45.53851" lon="5.92849">
        <ele>575.01</ele>
        <time>2012-12-15T15:57:40Z</time>
      </trkpt>
      <trkpt lat="45.53826" lon="5.92842">
        <ele>576.93</ele>
        <time>2012-12-15T15:57:59Z</time>
      </trkpt>
      <trkpt lat="45.53798" lon="5.92832">
        <ele>579.81</ele>
        <time>2012-12-15T15:58:20Z</time>
      </trkpt>
      <trkpt lat="45.53773" lon="5.92825">
        <ele>581.73</ele>
        <time>2012-12-15T15:58:38Z</time>
      </trkpt>
      <trkpt lat="45.53772" lon="5.92824">
        <ele>582.22</ele>
        <time>2012-12-15T15:58:39Z</time>
      </trkpt>
      <trkpt lat="45.5377" lon="5.92824">
        <ele>581.73</ele>
        <time>2012-12-15T15:58:40Z</time>
      </trkpt>
      <trkpt lat="45.53769" lon="5.92824">
        <ele>581.73</ele>
        <time>2012-12-15T15:58:41Z</time>
      </trkpt>
      <trkpt lat="45.53758" lon="5.92821">
        <ele>583.18</ele>
        <time>2012-12-15T15:58:50Z</time>
      </trkpt>
      <trkpt lat="45.53738" lon="5.92811">
        <ele>585.58</ele>
        <time>2012-12-15T15:59:06Z</time>
      </trkpt>
      <trkpt lat="45.53737" lon="5.92811">
        <ele>586.06</ele>
        <time>2012-12-15T15:59:07Z</time>
      </trkpt>
      <trkpt lat="45.53736" lon="5.92811">
        <ele>586.06</ele>
        <time>2012-12-15T15:59:08Z</time>
      </trkpt>
      <trkpt lat="45.53735" lon="5.92811">
        <ele>586.06</ele>
        <time>2012-12-15T15:59:09Z</time>
      </trkpt>
      <trkpt lat="45.53733" lon="5.92811">
        <ele>586.06</ele>
        <time>2012-12-15T15:59:10Z</time>
      </trkpt>
      <trkpt lat="45.53732" lon="5.92811">
        <ele>586.54</ele>
        <time>2012-12-15T15:59:11Z</time>
      </trkpt>
      <trkpt lat="45.5373" lon="5.92811">
        <ele>586.06</ele>
        <time>2012-12-15T15:59:12Z</time>
      </trkpt>
      <trkpt lat="45.53724" lon="5.92807">
        <ele>587.02</ele>
        <time>2012-12-15T15:59:17Z</time>
      </trkpt>
      <trkpt lat="45.53723" lon="5.92806">
        <ele>587.5</ele>
        <time>2012-12-15T15:59:18Z</time>
      </trkpt>
      <trkpt lat="45.53722" lon="5.92805">
        <ele>587.5</ele>
        <time>2012-12-15T15:59:19Z</time>
      </trkpt>
      <trkpt lat="45.53721" lon="5.92804">
        <ele>587.5</ele>
        <time>2012-12-15T15:59:20Z</time>
      </trkpt>
      <trkpt lat="45.53719" lon="5.92804">
        <ele>587.5</ele>
        <time>2012-12-15T15:59:21Z</time>
      </trkpt>
      <trkpt lat="45.53718" lon="5.92803">
        <ele>587.5</ele>
        <time>2012-12-15T15:59:22Z</time>
      </trkpt>
      <trkpt lat="45.53717" lon="5.92803">
        <ele>587.98</ele>
        <time>2012-12-15T15:59:23Z</time>
      </trkpt>
      <trkpt lat="45.53715" lon="5.92804">
        <ele>587.98</ele>
        <time>2012-12-15T15:59:24Z</time>
      </trkpt>
      <trkpt lat="45.53693" lon="5.92797">
        <ele>589.91</ele>
        <time>2012-12-15T15:59:40Z</time>
      </trkpt>
      <trkpt lat="45.53664" lon="5.92794">
        <ele>591.83</ele>
        <time>2012-12-15T15:59:56Z</time>
      </trkpt>
      <trkpt lat="45.53641" lon="5.92793">
        <ele>594.71</ele>
        <time>2012-12-15T16:00:11Z</time>
      </trkpt>
      <trkpt lat="45.53635" lon="5.92792">
        <ele>595.19</ele>
        <time>2012-12-15T16:00:15Z</time>
      </trkpt>
      <trkpt lat="45.53633" lon="5.92792">
        <ele>595.67</ele>
        <time>2012-12-15T16:00:16Z</time>
      </trkpt>
      <trkpt lat="45.53632" lon="5.92793">
        <ele>595.67</ele>
        <time>2012-12-15T16:00:17Z</time>
      </trkpt>
      <trkpt lat="45.5363" lon="5.92794">
        <ele>596.15</ele>
        <time>2012-12-15T16:00:18Z</time>
      </trkpt>
      <trkpt lat="45.53629" lon="5.92794">
        <ele>595.67</ele>
        <time>2012-12-15T16:00:19Z</time>
      </trkpt>
      <trkpt lat="45.53627" lon="5.92794">
        <ele>596.15</ele>
        <time>2012-12-15T16:00:20Z</time>
      </trkpt>
      <trkpt lat="45.53626" lon="5.92795">
        <ele>596.15</ele>
        <time>2012-12-15T16:00:21Z</time>
      </trkpt>
      <trkpt lat="45.53624" lon="5.92795">
        <ele>596.15</ele>
        <time>2012-12-15T16:00:22Z</time>
      </trkpt>
      <trkpt lat="45.53623" lon="5.92795">
        <ele>596.64</ele>
        <time>2012-12-15T16:00:23Z</time>
      </trkpt>
      <trkpt lat="45.53621" lon="5.92796">
        <ele>597.12</ele>
        <time>2012-12-15T16:00:24Z</time>
      </trkpt>
      <trkpt lat="45.53619" lon="5.92796">
        <ele>597.12</ele>
        <time>2012-12-15T16:00:25Z</time>
      </trkpt>
      <trkpt lat="45.53618" lon="5.92795">
        <ele>597.12</ele>
        <time>2012-12-15T16:00:26Z</time>
      </trkpt>
      <trkpt lat="45.53592" lon="5.92793">
        <ele>598.56</ele>
        <time>2012-12-15T16:00:43Z</time>
      </trkpt>
      <trkpt lat="45.53561" lon="5.92795">
        <ele>599.52</ele>
        <time>2012-12-15T16:00:59Z</time>
      </trkpt>
      <trkpt lat="45.53539" lon="5.92798">
        <ele>600</ele>
        <time>2012-12-15T16:01:10Z</time>
      </trkpt>
      <trkpt lat="45.53509" lon="5.92821">
        <ele>600.48</ele>
        <time>2012-12-15T16:01:26Z</time>
      </trkpt>
      <trkpt lat="45.53471" lon="5.92823">
        <ele>601.44</ele>
        <time>2012-12-15T16:01:42Z</time>
      </trkpt>
      <trkpt lat="45.53442" lon="5.92828">
        <ele>601.44</ele>
        <time>2012-12-15T16:01:56Z</time>
      </trkpt>
      <trkpt lat="45.53405" lon="5.92842">
        <ele>601.92</ele>
        <time>2012-12-15T16:02:12Z</time>
      </trkpt>
      <trkpt lat="45.53382" lon="5.92846">
        <ele>599.04</ele>
        <time>2012-12-15T16:02:19Z</time>
      </trkpt>
      <trkpt lat="45.53331" lon="5.92852">
        <ele>598.56</ele>
        <time>2012-12-15T16:02:30Z</time>
      </trkpt>
      <trkpt lat="45.53328" lon="5.92853">
        <ele>598.56</ele>
        <time>2012-12-15T16:02:31Z</time>
      </trkpt>
      <trkpt lat="45.53295" lon="5.92861">
        <ele>601.44</ele>
        <time>2012-12-15T16:02:44Z</time>
      </trkpt>
      <trkpt lat="45.53259" lon="5.92862">
        <ele>601.92</ele>
        <time>2012-12-15T16:02:58Z</time>
      </trkpt>
      <trkpt lat="45.53215" lon="5.92856">
        <ele>601.44</ele>
        <time>2012-12-15T16:03:12Z</time>
      </trkpt>
      <trkpt lat="45.53156" lon="5.9284">
        <ele>599.52</ele>
        <time>2012-12-15T16:03:29Z</time>
      </trkpt>
      <trkpt lat="45.53107" lon="5.92806">
        <ele>599.04</ele>
        <time>2012-12-15T16:03:44Z</time>
      </trkpt>
      <trkpt lat="45.53053" lon="5.92773">
        <ele>600</ele>
        <time>2012-12-15T16:04:01Z</time>
      </trkpt>
      <trkpt lat="45.53007" lon="5.92745">
        <ele>600.96</ele>
        <time>2012-12-15T16:04:16Z</time>
      </trkpt>
      <trkpt lat="45.52973" lon="5.92725">
        <ele>602.88</ele>
        <time>2012-12-15T16:04:31Z</time>
      </trkpt>
      <trkpt lat="45.52939" lon="5.92709">
        <ele>603.85</ele>
        <time>2012-12-15T16:04:46Z</time>
      </trkpt>
      <trkpt lat="45.52905" lon="5.92701">
        <ele>605.77</ele>
        <time>2012-12-15T16:05:02Z</time>
      </trkpt>
      <trkpt lat="45.52871" lon="5.92692">
        <ele>608.17</ele>
        <time>2012-12-15T16:05:21Z</time>
      </trkpt>
      <trkpt lat="45.52844" lon="5.92682">
        <ele>609.13</ele>
        <time>2012-12-15T16:05:35Z</time>
      </trkpt>
      <trkpt lat="45.52819" lon="5.9266">
        <ele>610.57</ele>
        <time>2012-12-15T16:05:50Z</time>
      </trkpt>
      <trkpt lat="45.52795" lon="5.92643">
        <ele>613.94</ele>
        <time>2012-12-15T16:06:05Z</time>
      </trkpt>
      <trkpt lat="45.52764" lon="5.92632">
        <ele>614.42</ele>
        <time>2012-12-15T16:06:20Z</time>
      </trkpt>
      <trkpt lat="45.52731" lon="5.92616">
        <ele>615.38</ele>
        <time>2012-12-15T16:06:37Z</time>
      </trkpt>
      <trkpt lat="45.52705" lon="5.926">
        <ele>618.26</ele>
        <time>2012-12-15T16:06:52Z</time>
      </trkpt>
      <trkpt lat="45.52684" lon="5.92589">
        <ele>620.19</ele>
        <time>2012-12-15T16:07:05Z</time>
      </trkpt>
      <trkpt lat="45.52662" lon="5.9258">
        <ele>622.11</ele>
        <time>2012-12-15T16:07:19Z</time>
      </trkpt>
      <trkpt lat="45.52639" lon="5.92571">
        <ele>624.51</ele>
        <time>2012-12-15T16:07:33Z</time>
      </trkpt>
      <trkpt lat="45.52619" lon="5.92563">
        <ele>627.4</ele>
        <time>2012-12-15T16:07:48Z</time>
      </trkpt>
      <trkpt lat="45.52598" lon="5.92557">
        <ele>628.84</ele>
        <time>2012-12-15T16:08:02Z</time>
      </trkpt>
      <trkpt lat="45.52568" lon="5.92553">
        <ele>631.24</ele>
        <time>2012-12-15T16:08:20Z</time>
      </trkpt>
      <trkpt lat="45.52539" lon="5.92551">
        <ele>633.65</ele>
        <time>2012-12-15T16:08:38Z</time>
      </trkpt>
      <trkpt lat="45.52516" lon="5.92545">
        <ele>636.05</ele>
        <time>2012-12-15T16:08:54Z</time>
      </trkpt>
      <trkpt lat="45.52491" lon="5.92539">
        <ele>638.45</ele>
        <time>2012-12-15T16:09:11Z</time>
      </trkpt>
      <trkpt lat="45.52469" lon="5.92531">
        <ele>640.86</ele>
        <time>2012-12-15T16:09:27Z</time>
      </trkpt>
      <trkpt lat="45.52448" lon="5.92524">
        <ele>643.26</ele>
        <time>2012-12-15T16:09:42Z</time>
      </trkpt>
      <trkpt lat="45.52423" lon="5.92524">
        <ele>645.66</ele>
        <time>2012-12-15T16:09:59Z</time>
      </trkpt>
      <trkpt lat="45.52422" lon="5.92525">
        <ele>645.66</ele>
        <time>2012-12-15T16:10:00Z</time>
      </trkpt>
      <trkpt lat="45.5242" lon="5.92525">
        <ele>645.66</ele>
        <time>2012-12-15T16:10:01Z</time>
      </trkpt>
      <trkpt lat="45.52395" lon="5.9253">
        <ele>646.14</ele>
        <time>2012-12-15T16:10:17Z</time>
      </trkpt>
      <trkpt lat="45.52359" lon="5.92526">
        <ele>646.62</ele>
        <time>2012-12-15T16:10:36Z</time>
      </trkpt>
      <trkpt lat="45.52329" lon="5.92525">
        <ele>646.62</ele>
        <time>2012-12-15T16:10:52Z</time>
      </trkpt>
      <trkpt lat="45.52307" lon="5.92524">
        <ele>649.51</ele>
        <time>2012-12-15T16:11:04Z</time>
      </trkpt>
      <trkpt lat="45.5228" lon="5.92525">
        <ele>650.95</ele>
        <time>2012-12-15T16:11:19Z</time>
      </trkpt>
      <trkpt lat="45.52255" lon="5.92523">
        <ele>651.43</ele>
        <time>2012-12-15T16:11:33Z</time>
      </trkpt>
      <trkpt lat="45.52254" lon="5.92523">
        <ele>652.39</ele>
        <time>2012-12-15T16:11:34Z</time>
      </trkpt>
      <trkpt lat="45.52252" lon="5.92522">
        <ele>651.91</ele>
        <time>2012-12-15T16:11:35Z</time>
      </trkpt>
      <trkpt lat="45.5223" lon="5.92502">
        <ele>652.39</ele>
        <time>2012-12-15T16:11:51Z</time>
      </trkpt>
      <trkpt lat="45.52222" lon="5.92486">
        <ele>652.87</ele>
        <time>2012-12-15T16:11:59Z</time>
      </trkpt>
      <trkpt lat="45.5222" lon="5.92484">
        <ele>652.87</ele>
        <time>2012-12-15T16:12:00Z</time>
      </trkpt>
      <trkpt lat="45.52219" lon="5.92482">
        <ele>652.87</ele>
        <time>2012-12-15T16:12:01Z</time>
      </trkpt>
      <trkpt lat="45.52218" lon="5.9248">
        <ele>653.35</ele>
        <time>2012-12-15T16:12:02Z</time>
      </trkpt>
      <trkpt lat="45.52217" lon="5.92478">
        <ele>653.35</ele>
        <time>2012-12-15T16:12:03Z</time>
      </trkpt>
      <trkpt lat="45.52216" lon="5.92477">
        <ele>653.35</ele>
        <time>2012-12-15T16:12:04Z</time>
      </trkpt>
      <trkpt lat="45.52214" lon="5.92475">
        <ele>653.83</ele>
        <time>2012-12-15T16:12:05Z</time>
      </trkpt>
      <trkpt lat="45.52213" lon="5.92473">
        <ele>653.83</ele>
        <time>2012-12-15T16:12:06Z</time>
      </trkpt>
      <trkpt lat="45.52212" lon="5.92471">
        <ele>653.83</ele>
        <time>2012-12-15T16:12:07Z</time>
      </trkpt>
      <trkpt lat="45.52211" lon="5.92469">
        <ele>653.35</ele>
        <time>2012-12-15T16:12:08Z</time>
      </trkpt>
      <trkpt lat="45.5221" lon="5.92466">
        <ele>652.87</ele>
        <time>2012-12-15T16:12:09Z</time>
      </trkpt>
      <trkpt lat="45.52209" lon="5.92464">
        <ele>654.31</ele>
        <time>2012-12-15T16:12:10Z</time>
      </trkpt>
      <trkpt lat="45.52208" lon="5.92462">
        <ele>652.39</ele>
        <time>2012-12-15T16:12:11Z</time>
      </trkpt>
      <trkpt lat="45.52206" lon="5.9246">
        <ele>654.8</ele>
        <time>2012-12-15T16:12:12Z</time>
      </trkpt>
      <trkpt lat="45.52206" lon="5.92458">
        <ele>654.8</ele>
        <time>2012-12-15T16:12:13Z</time>
      </trkpt>
      <trkpt lat="45.52193" lon="5.92441">
        <ele>655.76</ele>
        <time>2012-12-15T16:12:25Z</time>
      </trkpt>
      <trkpt lat="45.52192" lon="5.9244">
        <ele>655.76</ele>
        <time>2012-12-15T16:12:26Z</time>
      </trkpt>
      <trkpt lat="45.52175" lon="5.92421">
        <ele>658.64</ele>
        <time>2012-12-15T16:12:42Z</time>
      </trkpt>
      <trkpt lat="45.52162" lon="5.92406">
        <ele>661.52</ele>
        <time>2012-12-15T16:12:56Z</time>
      </trkpt>
      <trkpt lat="45.52145" lon="5.924">
        <ele>662.49</ele>
        <time>2012-12-15T16:13:09Z</time>
      </trkpt>
      <trkpt lat="45.52132" lon="5.92395">
        <ele>663.93</ele>
        <time>2012-12-15T16:13:20Z</time>
      </trkpt>
      <trkpt lat="45.52131" lon="5.92394">
        <ele>664.41</ele>
        <time>2012-12-15T16:13:21Z</time>
      </trkpt>
      <trkpt lat="45.52121" lon="5.92391">
        <ele>665.85</ele>
        <time>2012-12-15T16:13:29Z</time>
      </trkpt>
      <trkpt lat="45.52106" lon="5.92388">
        <ele>667.29</ele>
        <time>2012-12-15T16:13:40Z</time>
      </trkpt>
      <trkpt lat="45.52102" lon="5.92385">
        <ele>667.77</ele>
        <time>2012-12-15T16:13:44Z</time>
      </trkpt>
      <trkpt lat="45.52094" lon="5.92386">
        <ele>669.22</ele>
        <time>2012-12-15T16:13:52Z</time>
      </trkpt>
      <trkpt lat="45.52092" lon="5.92385">
        <ele>669.22</ele>
        <time>2012-12-15T16:13:54Z</time>
      </trkpt>
      <trkpt lat="45.52089" lon="5.92386">
        <ele>669.7</ele>
        <time>2012-12-15T16:13:57Z</time>
      </trkpt>
      <trkpt lat="45.52088" lon="5.92386">
        <ele>670.18</ele>
        <time>2012-12-15T16:13:58Z</time>
      </trkpt>
      <trkpt lat="45.52087" lon="5.92386">
        <ele>670.18</ele>
        <time>2012-12-15T16:13:59Z</time>
      </trkpt>
      <trkpt lat="45.52085" lon="5.92387">
        <ele>670.66</ele>
        <time>2012-12-15T16:14:01Z</time>
      </trkpt>
      <trkpt lat="45.52084" lon="5.92386">
        <ele>670.66</ele>
        <time>2012-12-15T16:14:02Z</time>
      </trkpt>
      <trkpt lat="45.52083" lon="5.92386">
        <ele>670.66</ele>
        <time>2012-12-15T16:14:03Z</time>
      </trkpt>
      <trkpt lat="45.52082" lon="5.92386">
        <ele>670.66</ele>
        <time>2012-12-15T16:14:04Z</time>
      </trkpt>
      <trkpt lat="45.52081" lon="5.92386">
        <ele>671.14</ele>
        <time>2012-12-15T16:14:05Z</time>
      </trkpt>
      <trkpt lat="45.52079" lon="5.92386">
        <ele>671.14</ele>
        <time>2012-12-15T16:14:06Z</time>
      </trkpt>
      <trkpt lat="45.52075" lon="5.92386">
        <ele>672.1</ele>
        <time>2012-12-15T16:14:10Z</time>
      </trkpt>
      <trkpt lat="45.52073" lon="5.92386">
        <ele>672.58</ele>
        <time>2012-12-15T16:14:12Z</time>
      </trkpt>
      <trkpt lat="45.52071" lon="5.92386">
        <ele>672.58</ele>
        <time>2012-12-15T16:14:13Z</time>
      </trkpt>
      <trkpt lat="45.5207" lon="5.92385">
        <ele>673.06</ele>
        <time>2012-12-15T16:14:14Z</time>
      </trkpt>
      <trkpt lat="45.52069" lon="5.92385">
        <ele>673.06</ele>
        <time>2012-12-15T16:14:15Z</time>
      </trkpt>
      <trkpt lat="45.52068" lon="5.92384">
        <ele>673.06</ele>
        <time>2012-12-15T16:14:16Z</time>
      </trkpt>
      <trkpt lat="45.52067" lon="5.92384">
        <ele>673.06</ele>
        <time>2012-12-15T16:14:17Z</time>
      </trkpt>
      <trkpt lat="45.52065" lon="5.92384">
        <ele>673.06</ele>
        <time>2012-12-15T16:14:18Z</time>
      </trkpt>
      <trkpt lat="45.52064" lon="5.92384">
        <ele>673.54</ele>
        <time>2012-12-15T16:14:19Z</time>
      </trkpt>
      <trkpt lat="45.52063" lon="5.92384">
        <ele>673.06</ele>
        <time>2012-12-15T16:14:20Z</time>
      </trkpt>
      <trkpt lat="45.52062" lon="5.92384">
        <ele>673.06</ele>
        <time>2012-12-15T16:14:21Z</time>
      </trkpt>
      <trkpt lat="45.52044" lon="5.92381">
        <ele>675.46</ele>
        <time>2012-12-15T16:14:37Z</time>
      </trkpt>
      <trkpt lat="45.52022" lon="5.92383">
        <ele>678.35</ele>
        <time>2012-12-15T16:14:55Z</time>
      </trkpt>
      <trkpt lat="45.52002" lon="5.92378">
        <ele>680.27</ele>
        <time>2012-12-15T16:15:11Z</time>
      </trkpt>
      <trkpt lat="45.51975" lon="5.92377">
        <ele>682.19</ele>
        <time>2012-12-15T16:15:31Z</time>
      </trkpt>
      <trkpt lat="45.5196" lon="5.92377">
        <ele>683.63</ele>
        <time>2012-12-15T16:15:41Z</time>
      </trkpt>
      <trkpt lat="45.51959" lon="5.92377">
        <ele>683.63</ele>
        <time>2012-12-15T16:15:42Z</time>
      </trkpt>
      <trkpt lat="45.51958" lon="5.92376">
        <ele>683.15</ele>
        <time>2012-12-15T16:15:43Z</time>
      </trkpt>
      <trkpt lat="45.5193" lon="5.92378">
        <ele>685.08</ele>
        <time>2012-12-15T16:16:01Z</time>
      </trkpt>
      <trkpt lat="45.51904" lon="5.92388">
        <ele>686.52</ele>
        <time>2012-12-15T16:16:18Z</time>
      </trkpt>
      <trkpt lat="45.51903" lon="5.92389">
        <ele>686.52</ele>
        <time>2012-12-15T16:16:19Z</time>
      </trkpt>
      <trkpt lat="45.51899" lon="5.9239">
        <ele>687</ele>
        <time>2012-12-15T16:16:22Z</time>
      </trkpt>
      <trkpt lat="45.51884" lon="5.92398">
        <ele>687.96</ele>
        <time>2012-12-15T16:16:34Z</time>
      </trkpt>
      <trkpt lat="45.5186" lon="5.92402">
        <ele>688.92</ele>
        <time>2012-12-15T16:16:50Z</time>
      </trkpt>
      <trkpt lat="45.51837" lon="5.92402">
        <ele>690.84</ele>
        <time>2012-12-15T16:17:06Z</time>
      </trkpt>
      <trkpt lat="45.51816" lon="5.92404">
        <ele>693.25</ele>
        <time>2012-12-15T16:17:21Z</time>
      </trkpt>
      <trkpt lat="45.51794" lon="5.92406">
        <ele>694.69</ele>
        <time>2012-12-15T16:17:36Z</time>
      </trkpt>
      <trkpt lat="45.51771" lon="5.92403">
        <ele>695.65</ele>
        <time>2012-12-15T16:17:52Z</time>
      </trkpt>
      <trkpt lat="45.5174" lon="5.92392">
        <ele>696.61</ele>
        <time>2012-12-15T16:18:08Z</time>
      </trkpt>
      <trkpt lat="45.51717" lon="5.92384">
        <ele>698.05</ele>
        <time>2012-12-15T16:18:22Z</time>
      </trkpt>
      <trkpt lat="45.51691" lon="5.92359">
        <ele>698.05</ele>
        <time>2012-12-15T16:18:38Z</time>
      </trkpt>
      <trkpt lat="45.51656" lon="5.92329">
        <ele>699.5</ele>
        <time>2012-12-15T16:18:54Z</time>
      </trkpt>
      <trkpt lat="45.51625" lon="5.92294">
        <ele>698.05</ele>
        <time>2012-12-15T16:19:11Z</time>
      </trkpt>
      <trkpt lat="45.51585" lon="5.92236">
        <ele>697.57</ele>
        <time>2012-12-15T16:19:28Z</time>
      </trkpt>
      <trkpt lat="45.51545" lon="5.92201">
        <ele>697.57</ele>
        <time>2012-12-15T16:19:43Z</time>
      </trkpt>
      <trkpt lat="45.51511" lon="5.92182">
        <ele>699.02</ele>
        <time>2012-12-15T16:19:57Z</time>
      </trkpt>
      <trkpt lat="45.51488" lon="5.92177">
        <ele>700.94</ele>
        <time>2012-12-15T16:20:10Z</time>
      </trkpt>
      <trkpt lat="45.51461" lon="5.92164">
        <ele>703.82</ele>
        <time>2012-12-15T16:20:24Z</time>
      </trkpt>
      <trkpt lat="45.51447" lon="5.92132">
        <ele>704.78</ele>
        <time>2012-12-15T16:20:37Z</time>
      </trkpt>
      <trkpt lat="45.5144" lon="5.92092">
        <ele>706.71</ele>
        <time>2012-12-15T16:20:51Z</time>
      </trkpt>
      <trkpt lat="45.51425" lon="5.92061">
        <ele>708.15</ele>
        <time>2012-12-15T16:21:06Z</time>
      </trkpt>
      <trkpt lat="45.51418" lon="5.92055">
        <ele>708.15</ele>
        <time>2012-12-15T16:21:20Z</time>
      </trkpt>
      <trkpt lat="45.51418" lon="5.92055">
        <ele>708.15</ele>
        <time>2012-12-15T16:21:46Z</time>
      </trkpt>
      <trkpt lat="45.51418" lon="5.92055">
        <ele>708.15</ele>
        <time>2012-12-15T16:22:08Z</time>
      </trkpt>
      <trkpt lat="45.51417" lon="5.92055">
        <ele>708.63</ele>
        <time>2012-12-15T16:22:30Z</time>
      </trkpt>
      <trkpt lat="45.51417" lon="5.92055">
        <ele>709.11</ele>
        <time>2012-12-15T16:22:57Z</time>
      </trkpt>
      <trkpt lat="45.51415" lon="5.92053">
        <ele>709.11</ele>
        <time>2012-12-15T16:23:20Z</time>
      </trkpt>
      <trkpt lat="45.51414" lon="5.92051">
        <ele>709.11</ele>
        <time>2012-12-15T16:23:21Z</time>
      </trkpt>
      <trkpt lat="45.51412" lon="5.9205">
        <ele>708.63</ele>
        <time>2012-12-15T16:23:22Z</time>
      </trkpt>
      <trkpt lat="45.51409" lon="5.92047">
        <ele>708.15</ele>
        <time>2012-12-15T16:23:23Z</time>
      </trkpt>
      <trkpt lat="45.51407" lon="5.92044">
        <ele>708.15</ele>
        <time>2012-12-15T16:23:24Z</time>
      </trkpt>
      <trkpt lat="45.51404" lon="5.9204">
        <ele>708.15</ele>
        <time>2012-12-15T16:23:25Z</time>
      </trkpt>
      <trkpt lat="45.51401" lon="5.92035">
        <ele>708.15</ele>
        <time>2012-12-15T16:23:26Z</time>
      </trkpt>
      <trkpt lat="45.51387" lon="5.92016">
        <ele>706.71</ele>
        <time>2012-12-15T16:23:30Z</time>
      </trkpt>
      <trkpt lat="45.5137" lon="5.91984">
        <ele>704.78</ele>
        <time>2012-12-15T16:23:35Z</time>
      </trkpt>
      <trkpt lat="45.5134" lon="5.9191">
        <ele>701.42</ele>
        <time>2012-12-15T16:23:44Z</time>
      </trkpt>
      <trkpt lat="45.51334" lon="5.91891">
        <ele>701.42</ele>
        <time>2012-12-15T16:23:46Z</time>
      </trkpt>
      <trkpt lat="45.51332" lon="5.9188">
        <ele>700.46</ele>
        <time>2012-12-15T16:23:47Z</time>
      </trkpt>
      <trkpt lat="45.51321" lon="5.91798">
        <ele>697.57</ele>
        <time>2012-12-15T16:23:54Z</time>
      </trkpt>
      <trkpt lat="45.51319" lon="5.91766">
        <ele>696.61</ele>
        <time>2012-12-15T16:23:57Z</time>
      </trkpt>
      <trkpt lat="45.51316" lon="5.91756">
        <ele>696.61</ele>
        <time>2012-12-15T16:23:58Z</time>
      </trkpt>
      <trkpt lat="45.51289" lon="5.91675">
        <ele>693.73</ele>
        <time>2012-12-15T16:24:06Z</time>
      </trkpt>
      <trkpt lat="45.51271" lon="5.91644">
        <ele>692.29</ele>
        <time>2012-12-15T16:24:10Z</time>
      </trkpt>
      <trkpt lat="45.51267" lon="5.91635">
        <ele>691.33</ele>
        <time>2012-12-15T16:24:11Z</time>
      </trkpt>
      <trkpt lat="45.51264" lon="5.91626">
        <ele>691.33</ele>
        <time>2012-12-15T16:24:12Z</time>
      </trkpt>
      <trkpt lat="45.51263" lon="5.91616">
        <ele>691.33</ele>
        <time>2012-12-15T16:24:13Z</time>
      </trkpt>
      <trkpt lat="45.51264" lon="5.91607">
        <ele>691.33</ele>
        <time>2012-12-15T16:24:14Z</time>
      </trkpt>
      <trkpt lat="45.51267" lon="5.91599">
        <ele>690.84</ele>
        <time>2012-12-15T16:24:15Z</time>
      </trkpt>
      <trkpt lat="45.51271" lon="5.91592">
        <ele>690.36</ele>
        <time>2012-12-15T16:24:16Z</time>
      </trkpt>
      <trkpt lat="45.51276" lon="5.91586">
        <ele>690.36</ele>
        <time>2012-12-15T16:24:17Z</time>
      </trkpt>
      <trkpt lat="45.51282" lon="5.91584">
        <ele>689.88</ele>
        <time>2012-12-15T16:24:18Z</time>
      </trkpt>
      <trkpt lat="45.51289" lon="5.91583">
        <ele>689.4</ele>
        <time>2012-12-15T16:24:19Z</time>
      </trkpt>
      <trkpt lat="45.51357" lon="5.91596">
        <ele>686.52</ele>
        <time>2012-12-15T16:24:29Z</time>
      </trkpt>
      <trkpt lat="45.51402" lon="5.91615">
        <ele>685.56</ele>
        <time>2012-12-15T16:24:35Z</time>
      </trkpt>
      <trkpt lat="45.51429" lon="5.91636">
        <ele>683.63</ele>
        <time>2012-12-15T16:24:39Z</time>
      </trkpt>
      <trkpt lat="45.51458" lon="5.91655">
        <ele>682.67</ele>
        <time>2012-12-15T16:24:43Z</time>
      </trkpt>
      <trkpt lat="45.51467" lon="5.91656">
        <ele>682.67</ele>
        <time>2012-12-15T16:24:44Z</time>
      </trkpt>
      <trkpt lat="45.51476" lon="5.91655">
        <ele>682.19</ele>
        <time>2012-12-15T16:24:45Z</time>
      </trkpt>
      <trkpt lat="45.51485" lon="5.91651">
        <ele>681.71</ele>
        <time>2012-12-15T16:24:46Z</time>
      </trkpt>
      <trkpt lat="45.51494" lon="5.91646">
        <ele>681.23</ele>
        <time>2012-12-15T16:24:47Z</time>
      </trkpt>
      <trkpt lat="45.51521" lon="5.91621">
        <ele>679.31</ele>
        <time>2012-12-15T16:24:51Z</time>
      </trkpt>
      <trkpt lat="45.51528" lon="5.91616">
        <ele>679.79</ele>
        <time>2012-12-15T16:24:52Z</time>
      </trkpt>
      <trkpt lat="45.51536" lon="5.91613">
        <ele>678.83</ele>
        <time>2012-12-15T16:24:53Z</time>
      </trkpt>
      <trkpt lat="45.51544" lon="5.91611">
        <ele>677.87</ele>
        <time>2012-12-15T16:24:54Z</time>
      </trkpt>
      <trkpt lat="45.5162" lon="5.91617">
        <ele>675.46</ele>
        <time>2012-12-15T16:25:03Z</time>
      </trkpt>
      <trkpt lat="45.51664" lon="5.91615">
        <ele>672.58</ele>
        <time>2012-12-15T16:25:08Z</time>
      </trkpt>
      <trkpt lat="45.51721" lon="5.91601">
        <ele>669.22</ele>
        <time>2012-12-15T16:25:15Z</time>
      </trkpt>
      <trkpt lat="45.51778" lon="5.91578">
        <ele>666.33</ele>
        <time>2012-12-15T16:25:21Z</time>
      </trkpt>
      <trkpt lat="45.51786" lon="5.91572">
        <ele>665.85</ele>
        <time>2012-12-15T16:25:22Z</time>
      </trkpt>
      <trkpt lat="45.5183" lon="5.9154">
        <ele>663.45</ele>
        <time>2012-12-15T16:25:28Z</time>
      </trkpt>
      <trkpt lat="45.51909" lon="5.91519">
        <ele>660.08</ele>
        <time>2012-12-15T16:25:38Z</time>
      </trkpt>
      <trkpt lat="45.51976" lon="5.91506">
        <ele>657.2</ele>
        <time>2012-12-15T16:25:47Z</time>
      </trkpt>
      <trkpt lat="45.52028" lon="5.91503">
        <ele>654.31</ele>
        <time>2012-12-15T16:25:54Z</time>
      </trkpt>
      <trkpt lat="45.52077" lon="5.91499">
        <ele>650.95</ele>
        <time>2012-12-15T16:26:01Z</time>
      </trkpt>
      <trkpt lat="45.52096" lon="5.91495">
        <ele>649.99</ele>
        <time>2012-12-15T16:26:04Z</time>
      </trkpt>
      <trkpt lat="45.52103" lon="5.91492">
        <ele>649.03</ele>
        <time>2012-12-15T16:26:05Z</time>
      </trkpt>
      <trkpt lat="45.52109" lon="5.91488">
        <ele>649.03</ele>
        <time>2012-12-15T16:26:06Z</time>
      </trkpt>
      <trkpt lat="45.52159" lon="5.91456">
        <ele>647.59</ele>
        <time>2012-12-15T16:26:14Z</time>
      </trkpt>
      <trkpt lat="45.52171" lon="5.91453">
        <ele>647.1</ele>
        <time>2012-12-15T16:26:16Z</time>
      </trkpt>
      <trkpt lat="45.52177" lon="5.91453">
        <ele>647.59</ele>
        <time>2012-12-15T16:26:17Z</time>
      </trkpt>
      <trkpt lat="45.52183" lon="5.91454">
        <ele>647.1</ele>
        <time>2012-12-15T16:26:18Z</time>
      </trkpt>
      <trkpt lat="45.5219" lon="5.91455">
        <ele>647.1</ele>
        <time>2012-12-15T16:26:19Z</time>
      </trkpt>
      <trkpt lat="45.52197" lon="5.91455">
        <ele>646.14</ele>
        <time>2012-12-15T16:26:20Z</time>
      </trkpt>
      <trkpt lat="45.52203" lon="5.91453">
        <ele>646.14</ele>
        <time>2012-12-15T16:26:21Z</time>
      </trkpt>
      <trkpt lat="45.5221" lon="5.91449">
        <ele>645.66</ele>
        <time>2012-12-15T16:26:22Z</time>
      </trkpt>
      <trkpt lat="45.52216" lon="5.91444">
        <ele>645.18</ele>
        <time>2012-12-15T16:26:23Z</time>
      </trkpt>
      <trkpt lat="45.52221" lon="5.91438">
        <ele>645.18</ele>
        <time>2012-12-15T16:26:24Z</time>
      </trkpt>
      <trkpt lat="45.52235" lon="5.91418">
        <ele>645.66</ele>
        <time>2012-12-15T16:26:27Z</time>
      </trkpt>
      <trkpt lat="45.52238" lon="5.91411">
        <ele>645.18</ele>
        <time>2012-12-15T16:26:28Z</time>
      </trkpt>
      <trkpt lat="45.5224" lon="5.91405">
        <ele>645.66</ele>
        <time>2012-12-15T16:26:29Z</time>
      </trkpt>
      <trkpt lat="45.52249" lon="5.91376">
        <ele>647.1</ele>
        <time>2012-12-15T16:26:38Z</time>
      </trkpt>
      <trkpt lat="45.52251" lon="5.91366">
        <ele>648.07</ele>
        <time>2012-12-15T16:26:43Z</time>
      </trkpt>
      <trkpt lat="45.52252" lon="5.91364">
        <ele>648.55</ele>
        <time>2012-12-15T16:26:44Z</time>
      </trkpt>
      <trkpt lat="45.52253" lon="5.91363">
        <ele>648.55</ele>
        <time>2012-12-15T16:26:45Z</time>
      </trkpt>
      <trkpt lat="45.52263" lon="5.9134">
        <ele>651.43</ele>
        <time>2012-12-15T16:27:02Z</time>
      </trkpt>
      <trkpt lat="45.52266" lon="5.91337">
        <ele>651.91</ele>
        <time>2012-12-15T16:27:05Z</time>
      </trkpt>
      <trkpt lat="45.52268" lon="5.91337">
        <ele>651.91</ele>
        <time>2012-12-15T16:27:06Z</time>
      </trkpt>
      <trkpt lat="45.52269" lon="5.91337">
        <ele>651.91</ele>
        <time>2012-12-15T16:27:07Z</time>
      </trkpt>
      <trkpt lat="45.52287" lon="5.9133">
        <ele>653.83</ele>
        <time>2012-12-15T16:27:20Z</time>
      </trkpt>
      <trkpt lat="45.52288" lon="5.9133">
        <ele>653.83</ele>
        <time>2012-12-15T16:27:21Z</time>
      </trkpt>
      <trkpt lat="45.52312" lon="5.91323">
        <ele>655.28</ele>
        <time>2012-12-15T16:27:37Z</time>
      </trkpt>
      <trkpt lat="45.52333" lon="5.91299">
        <ele>656.72</ele>
        <time>2012-12-15T16:27:53Z</time>
      </trkpt>
      <trkpt lat="45.52344" lon="5.91264">
        <ele>657.68</ele>
        <time>2012-12-15T16:28:10Z</time>
      </trkpt>
      <trkpt lat="45.52336" lon="5.9124">
        <ele>658.64</ele>
        <time>2012-12-15T16:28:24Z</time>
      </trkpt>
      <trkpt lat="45.52322" lon="5.91215">
        <ele>661.04</ele>
        <time>2012-12-15T16:28:41Z</time>
      </trkpt>
      <trkpt lat="45.52312" lon="5.91215">
        <ele>662.01</ele>
        <time>2012-12-15T16:28:50Z</time>
      </trkpt>
      <trkpt lat="45.52303" lon="5.91226">
        <ele>665.37</ele>
        <time>2012-12-15T16:29:00Z</time>
      </trkpt>
      <trkpt lat="45.52301" lon="5.91226">
        <ele>665.37</ele>
        <time>2012-12-15T16:29:01Z</time>
      </trkpt>
      <trkpt lat="45.52298" lon="5.91225">
        <ele>665.37</ele>
        <time>2012-12-15T16:29:04Z</time>
      </trkpt>
      <trkpt lat="45.52297" lon="5.91225">
        <ele>665.85</ele>
        <time>2012-12-15T16:29:05Z</time>
      </trkpt>
      <trkpt lat="45.52296" lon="5.91226">
        <ele>665.85</ele>
        <time>2012-12-15T16:29:06Z</time>
      </trkpt>
      <trkpt lat="45.52296" lon="5.91227">
        <ele>666.33</ele>
        <time>2012-12-15T16:29:07Z</time>
      </trkpt>
      <trkpt lat="45.52295" lon="5.91228">
        <ele>666.33</ele>
        <time>2012-12-15T16:29:08Z</time>
      </trkpt>
      <trkpt lat="45.52293" lon="5.91228">
        <ele>666.81</ele>
        <time>2012-12-15T16:29:10Z</time>
      </trkpt>
      <trkpt lat="45.52293" lon="5.91227">
        <ele>666.81</ele>
        <time>2012-12-15T16:29:11Z</time>
      </trkpt>
      <trkpt lat="45.52292" lon="5.91226">
        <ele>666.81</ele>
        <time>2012-12-15T16:29:12Z</time>
      </trkpt>
      <trkpt lat="45.52292" lon="5.91224">
        <ele>666.81</ele>
        <time>2012-12-15T16:29:13Z</time>
      </trkpt>
      <trkpt lat="45.52291" lon="5.91222">
        <ele>667.29</ele>
        <time>2012-12-15T16:29:14Z</time>
      </trkpt>
      <trkpt lat="45.52288" lon="5.91204">
        <ele>668.73</ele>
        <time>2012-12-15T16:29:26Z</time>
      </trkpt>
      <trkpt lat="45.52287" lon="5.91203">
        <ele>669.22</ele>
        <time>2012-12-15T16:29:27Z</time>
      </trkpt>
      <trkpt lat="45.52287" lon="5.91202">
        <ele>669.22</ele>
        <time>2012-12-15T16:29:28Z</time>
      </trkpt>
      <trkpt lat="45.52286" lon="5.91201">
        <ele>669.22</ele>
        <time>2012-12-15T16:29:29Z</time>
      </trkpt>
      <trkpt lat="45.52285" lon="5.91199">
        <ele>669.7</ele>
        <time>2012-12-15T16:29:30Z</time>
      </trkpt>
      <trkpt lat="45.52285" lon="5.91198">
        <ele>669.7</ele>
        <time>2012-12-15T16:29:31Z</time>
      </trkpt>
      <trkpt lat="45.5228" lon="5.91175">
        <ele>672.1</ele>
        <time>2012-12-15T16:29:46Z</time>
      </trkpt>
      <trkpt lat="45.52279" lon="5.91151">
        <ele>674.02</ele>
        <time>2012-12-15T16:30:02Z</time>
      </trkpt>
      <trkpt lat="45.5228" lon="5.91128">
        <ele>676.42</ele>
        <time>2012-12-15T16:30:17Z</time>
      </trkpt>
      <trkpt lat="45.52279" lon="5.91107">
        <ele>677.39</ele>
        <time>2012-12-15T16:30:29Z</time>
      </trkpt>
      <trkpt lat="45.5228" lon="5.91105">
        <ele>677.39</ele>
        <time>2012-12-15T16:30:30Z</time>
      </trkpt>
      <trkpt lat="45.52281" lon="5.911">
        <ele>677.87</ele>
        <time>2012-12-15T16:30:33Z</time>
      </trkpt>
      <trkpt lat="45.52281" lon="5.91098">
        <ele>677.39</ele>
        <time>2012-12-15T16:30:34Z</time>
      </trkpt>
      <trkpt lat="45.52284" lon="5.91091">
        <ele>678.35</ele>
        <time>2012-12-15T16:30:39Z</time>
      </trkpt>
      <trkpt lat="45.52285" lon="5.91086">
        <ele>679.31</ele>
        <time>2012-12-15T16:30:42Z</time>
      </trkpt>
      <trkpt lat="45.5229" lon="5.91077">
        <ele>679.79</ele>
        <time>2012-12-15T16:30:50Z</time>
      </trkpt>
      <trkpt lat="45.52306" lon="5.91057">
        <ele>682.67</ele>
        <time>2012-12-15T16:31:07Z</time>
      </trkpt>
      <trkpt lat="45.52316" lon="5.91042">
        <ele>684.12</ele>
        <time>2012-12-15T16:31:18Z</time>
      </trkpt>
      <trkpt lat="45.52329" lon="5.91019">
        <ele>686.04</ele>
        <time>2012-12-15T16:31:36Z</time>
      </trkpt>
      <trkpt lat="45.52342" lon="5.91005">
        <ele>687.96</ele>
        <time>2012-12-15T16:31:49Z</time>
      </trkpt>
      <trkpt lat="45.52354" lon="5.90996">
        <ele>689.4</ele>
        <time>2012-12-15T16:32:00Z</time>
      </trkpt>
      <trkpt lat="45.52355" lon="5.90996">
        <ele>689.4</ele>
        <time>2012-12-15T16:32:01Z</time>
      </trkpt>
      <trkpt lat="45.52358" lon="5.90993">
        <ele>689.88</ele>
        <time>2012-12-15T16:32:04Z</time>
      </trkpt>
      <trkpt lat="45.52359" lon="5.90992">
        <ele>689.88</ele>
        <time>2012-12-15T16:32:05Z</time>
      </trkpt>
      <trkpt lat="45.5236" lon="5.90992">
        <ele>689.88</ele>
        <time>2012-12-15T16:32:06Z</time>
      </trkpt>
      <trkpt lat="45.52366" lon="5.90989">
        <ele>691.81</ele>
        <time>2012-12-15T16:32:13Z</time>
      </trkpt>
      <trkpt lat="45.52377" lon="5.90985">
        <ele>694.21</ele>
        <time>2012-12-15T16:32:27Z</time>
      </trkpt>
      <trkpt lat="45.52378" lon="5.90983">
        <ele>694.21</ele>
        <time>2012-12-15T16:32:45Z</time>
      </trkpt>
      <trkpt lat="45.52379" lon="5.90981">
        <ele>694.21</ele>
        <time>2012-12-15T16:32:46Z</time>
      </trkpt>
      <trkpt lat="45.52378" lon="5.90979">
        <ele>694.69</ele>
        <time>2012-12-15T16:32:47Z</time>
      </trkpt>
      <trkpt lat="45.52377" lon="5.90978">
        <ele>694.69</ele>
        <time>2012-12-15T16:32:48Z</time>
      </trkpt>
      <trkpt lat="45.52376" lon="5.90977">
        <ele>695.65</ele>
        <time>2012-12-15T16:32:49Z</time>
      </trkpt>
      <trkpt lat="45.52375" lon="5.90975">
        <ele>695.17</ele>
        <time>2012-12-15T16:32:50Z</time>
      </trkpt>
      <trkpt lat="45.52376" lon="5.90973">
        <ele>695.65</ele>
        <time>2012-12-15T16:32:51Z</time>
      </trkpt>
      <trkpt lat="45.52375" lon="5.90965">
        <ele>696.61</ele>
        <time>2012-12-15T16:32:57Z</time>
      </trkpt>
      <trkpt lat="45.52367" lon="5.90949">
        <ele>699.5</ele>
        <time>2012-12-15T16:33:10Z</time>
      </trkpt>
      <trkpt lat="45.52366" lon="5.90948">
        <ele>699.02</ele>
        <time>2012-12-15T16:33:11Z</time>
      </trkpt>
      <trkpt lat="45.52365" lon="5.90947">
        <ele>699.98</ele>
        <time>2012-12-15T16:33:12Z</time>
      </trkpt>
      <trkpt lat="45.52362" lon="5.90941">
        <ele>700.94</ele>
        <time>2012-12-15T16:33:17Z</time>
      </trkpt>
      <trkpt lat="45.52361" lon="5.90939">
        <ele>700.94</ele>
        <time>2012-12-15T16:33:19Z</time>
      </trkpt>
      <trkpt lat="45.52356" lon="5.90929">
        <ele>702.86</ele>
        <time>2012-12-15T16:33:28Z</time>
      </trkpt>
      <trkpt lat="45.52355" lon="5.90927">
        <ele>702.86</ele>
        <time>2012-12-15T16:33:29Z</time>
      </trkpt>
      <trkpt lat="45.52353" lon="5.90924">
        <ele>702.86</ele>
        <time>2012-12-15T16:33:32Z</time>
      </trkpt>
      <trkpt lat="45.52352" lon="5.90922">
        <ele>703.82</ele>
        <time>2012-12-15T16:33:34Z</time>
      </trkpt>
      <trkpt lat="45.52351" lon="5.9092">
        <ele>703.34</ele>
        <time>2012-12-15T16:33:35Z</time>
      </trkpt>
      <trkpt lat="45.52342" lon="5.90898">
        <ele>706.71</ele>
        <time>2012-12-15T16:33:52Z</time>
      </trkpt>
      <trkpt lat="45.52334" lon="5.90879">
        <ele>709.11</ele>
        <time>2012-12-15T16:34:06Z</time>
      </trkpt>
      <trkpt lat="45.52327" lon="5.90859">
        <ele>711.51</ele>
        <time>2012-12-15T16:34:20Z</time>
      </trkpt>
      <trkpt lat="45.52316" lon="5.90837">
        <ele>713.44</ele>
        <time>2012-12-15T16:34:36Z</time>
      </trkpt>
      <trkpt lat="45.52315" lon="5.90825">
        <ele>713.44</ele>
        <time>2012-12-15T16:34:43Z</time>
      </trkpt>
      <trkpt lat="45.52315" lon="5.90824">
        <ele>713.92</ele>
        <time>2012-12-15T16:34:44Z</time>
      </trkpt>
      <trkpt lat="45.52313" lon="5.9082">
        <ele>713.92</ele>
        <time>2012-12-15T16:34:59Z</time>
      </trkpt>
      <trkpt lat="45.52313" lon="5.9082">
        <ele>713.92</ele>
        <time>2012-12-15T16:35:24Z</time>
      </trkpt>
      <trkpt lat="45.52313" lon="5.90821">
        <ele>714.4</ele>
        <time>2012-12-15T16:36:05Z</time>
      </trkpt>
      <trkpt lat="45.52313" lon="5.90822">
        <ele>715.36</ele>
        <time>2012-12-15T16:36:40Z</time>
      </trkpt>
      <trkpt lat="45.52313" lon="5.90822">
        <ele>714.88</ele>
        <time>2012-12-15T16:37:14Z</time>
      </trkpt>
      <trkpt lat="45.52313" lon="5.90823">
        <ele>714.88</ele>
        <time>2012-12-15T16:37:49Z</time>
      </trkpt>
      <trkpt lat="45.52312" lon="5.90823">
        <ele>715.36</ele>
        <time>2012-12-15T16:38:20Z</time>
      </trkpt>
      <trkpt lat="45.52313" lon="5.90823">
        <ele>714.88</ele>
        <time>2012-12-15T16:38:55Z</time>
      </trkpt>
      <trkpt lat="45.52313" lon="5.90823">
        <ele>715.36</ele>
        <time>2012-12-15T16:39:30Z</time>
      </trkpt>
      <trkpt lat="45.52313" lon="5.90823">
        <ele>714.88</ele>
        <time>2012-12-15T16:40:07Z</time>
      </trkpt>
      <trkpt lat="45.52315" lon="5.90823">
        <ele>714.88</ele>
        <time>2012-12-15T16:40:28Z</time>
      </trkpt>
    </trkseg>
  </trk>
</gpx>